[[{"header":{"parameterUnit":"m.s-1","parameterCategory":1,"la1":30.6,"la2":29.2853,"lo1":-89.7004,"lo2":-87.6739,"dy":0.0162,"dx":0.0183,"nx":112,"ny":82,"refTime":"2023-06-06T06:00:00:Z","depth":0,"parameterNumber":2,"parameterNumberName":"U-component_of_WINDS"},"data":[0.0,0.0,0.0,0.0,0.0,0.0,0.0,0.0,0.0,0.0,0.0,0.0,0.0,0.0,0.0,0.0,0.0,0.0,0.0,0.0,0.0,0.0,0.0,0.0,0.0,0.0,0.0,0.0,0.0,0.0,0.0,0.0,0.0,0.0,0.0,0.0,0.0,0.0,0.0,0.0,0.0,0.0,0.0,0.0,0.0,0.0,0.0,0.0,0.0,0.0,0.0,0.0,0.0,0.0,0.0,0.0,0.0,0.0,0.0,0.0,0.0,0.0,0.0,0.0,0.0,0.0,0.0,0.0,0.0,0.0,0.0,0.0,0.0,0.0,0.0,0.0,0.0,0.0,0.0,0.0,0.0,0.0,0.0,0.0,0.0,0.0,0.0,0.0,0.0,0.0,2.5726,2.9486,3.3968,3.643,3.5738,3.5218,3.321,2.9208,0.0,0.0,0.0,0.0,0.0,0.0,0.0,0.0,0.0,0.0,0.0,0.0,0.0,0.0,0.0,0.0,0.0,0.0,0.0,0.0,0.0,0.0,0.0,0.0,0.0,0.0,0.0,0.0,0.0,0.0,0.0,0.0,0.0,0.0,0.0,0.0,0.0,0.0,0.0,0.0,0.0,0.0,0.0,0.0,0.0,0.0,0.0,0.0,0.0,0.0,0.0,0.0,0.0,0.0,0.0,0.0,0.0,0.0,0.0,0.0,0.0,0.0,0.0,0.0,0.0,0.0,0.0,0.0,0.0,0.0,0.0,0.0,0.0,0.0,0.0,0.0,0.0,0.0,0.0,0.0,0.0,0.0,0.0,0.0,0.0,0.0,0.0,0.0,0.0,0.0,0.0,0.0,0.0,0.0,0.0,0.0,0.0,0.0,0.0,0.0,0.0,0.0,0.0,0.0,2.7255,3.2833,3.5391,3.6661,3.6526,3.391,3.1506,2.9763,0.0,0.0,0.0,0.0,0.0,0.0,0.0,0.0,0.0,0.0,0.0,0.0,0.0,0.0,0.0,0.0,0.0,0.0,0.0,0.0,0.0,0.0,0.0,0.0,0.0,0.0,0.0,0.0,0.0,0.0,0.0,0.0,0.0,0.0,0.0,0.0,0.0,0.0,0.0,0.0,0.0,0.0,0.0,0.0,0.0,0.0,0.0,0.0,0.0,0.0,0.0,0.0,0.0,0.0,0.0,0.0,0.0,0.0,0.0,0.0,0.0,0.0,0.0,0.0,0.0,0.0,0.0,0.0,0.0,0.0,0.0,0.0,0.0,0.0,0.0,0.0,0.0,0.0,0.0,0.0,0.0,0.0,0.0,0.0,0.0,0.0,0.0,0.0,0.0,0.0,0.0,0.0,0.0,0.0,0.0,0.0,0.0,0.0,0.0,0.0,0.0,0.0,0.0,2.6774,2.964,3.3757,3.5315,3.5872,3.5391,3.2679,3.0497,2.9326,2.7555,0.0,0.0,0.0,0.0,0.0,0.0,0.0,0.0,0.0,0.0,0.0,0.0,0.0,0.0,0.0,0.0,0.0,0.0,0.0,0.0,0.0,0.0,0.0,0.0,0.0,0.0,0.0,0.0,0.0,0.0,0.0,0.0,0.0,0.0,0.0,0.0,0.0,0.0,0.0,0.0,0.0,0.0,0.0,0.0,0.0,0.0,0.0,0.0,0.0,0.0,0.0,0.0,0.0,0.0,0.0,0.0,0.0,0.0,0.0,0.0,0.0,0.0,0.0,0.0,0.0,0.0,0.0,0.0,0.0,0.0,0.0,0.0,0.0,0.0,0.0,0.0,0.0,0.0,0.0,0.0,0.0,0.0,0.0,0.0,0.0,0.0,0.0,0.0,0.0,0.0,0.0,0.0,0.0,0.0,0.0,0.0,0.0,0.0,0.0,0.0,0.0,0.0,2.9486,3.1448,3.4199,3.493,3.493,3.4257,3.1635,2.9666,2.8798,2.6223,0.0,0.0,0.0,0.0,0.0,0.0,0.0,0.0,0.0,0.0,0.0,0.0,0.0,0.0,0.0,0.0,0.0,0.0,0.0,0.0,0.0,0.0,0.0,0.0,0.0,0.0,0.0,0.0,0.0,0.0,0.0,0.0,0.0,0.0,0.0,0.0,0.0,0.0,0.0,0.0,0.0,0.0,0.0,0.0,0.0,0.0,0.0,0.0,0.0,0.0,0.0,0.0,0.0,0.0,0.0,0.0,0.0,0.0,0.0,0.0,0.0,0.0,0.0,0.0,0.0,0.0,0.0,0.0,0.0,0.0,0.0,0.0,0.0,0.0,0.0,0.0,0.0,0.0,0.0,0.0,0.0,0.0,0.0,0.0,0.0,0.0,0.0,0.0,0.0,0.0,0.0,0.0,0.0,0.0,0.0,0.0,0.0,0.0,0.0,0.0,0.0,0.0,2.9833,3.1686,3.5064,3.4737,3.4257,3.4199,3.095,2.8836,2.8619,2.604,0.0,0.0,0.0,0.0,0.0,0.0,0.0,0.0,0.0,0.0,0.0,0.0,0.0,0.0,0.0,0.0,0.0,0.0,0.0,0.0,0.0,0.0,0.0,0.0,0.0,0.0,0.0,0.0,0.0,0.0,0.0,0.0,0.0,0.0,0.0,0.0,0.0,0.0,0.0,0.0,0.0,0.0,0.0,0.0,0.0,0.0,0.0,0.0,0.0,0.0,0.0,0.0,0.0,0.0,0.0,0.0,0.0,0.0,0.0,0.0,0.0,0.0,0.0,0.0,0.0,0.0,0.0,0.0,0.0,0.0,0.0,0.0,0.0,0.0,0.0,0.0,0.0,0.0,0.0,0.0,0.0,0.0,0.0,0.0,0.0,0.0,0.0,0.0,0.0,0.0,0.0,0.0,0.0,0.0,0.0,0.0,0.0,0.0,0.0,0.0,0.0,0.0,2.9871,3.1506,0.0,3.4391,3.3776,3.2737,3.088,2.9434,2.8588,0.0,0.0,0.0,0.0,0.0,0.0,0.0,0.0,0.0,0.0,0.0,0.0,0.0,0.0,0.0,0.0,0.0,0.0,0.0,0.0,0.0,0.0,0.0,0.0,0.0,0.0,0.0,0.0,0.0,0.0,0.0,0.0,0.0,0.0,0.0,0.0,0.0,0.0,0.0,0.0,0.0,0.0,0.0,0.0,0.0,0.0,0.0,0.0,0.0,0.0,0.0,0.0,0.0,0.0,0.0,0.0,0.0,0.0,0.0,0.0,0.0,0.0,0.0,0.0,0.0,0.0,0.0,0.0,0.0,0.0,0.0,0.0,0.0,0.0,0.0,0.0,0.0,0.0,0.0,0.0,0.0,0.0,0.0,0.0,0.0,0.0,0.0,0.0,0.0,0.0,0.0,0.0,0.0,0.0,0.0,0.0,0.0,0.0,0.0,0.0,0.0,0.0,2.8698,2.9621,3.0968,0.0,3.3564,3.2929,3.1795,3.0605,2.9492,2.8555,0.0,0.0,0.0,0.0,0.0,0.0,0.0,0.0,0.0,0.0,0.0,0.0,0.0,0.0,0.0,0.0,0.0,0.0,0.0,0.0,0.0,0.0,0.0,0.0,0.0,0.0,0.0,0.0,0.0,0.0,0.0,0.0,0.0,0.0,0.0,0.0,0.0,0.0,0.0,0.0,0.0,0.0,0.0,0.0,0.0,0.0,0.0,0.0,0.0,0.0,0.0,0.0,0.0,0.0,0.0,0.0,0.0,0.0,0.0,0.0,0.0,0.0,0.0,0.0,0.0,0.0,0.0,0.0,0.0,0.0,0.0,0.0,0.0,0.0,0.0,0.0,0.0,0.0,0.0,0.0,0.0,0.0,0.0,0.0,0.0,0.0,0.0,0.0,0.0,0.0,0.0,0.0,0.0,0.0,0.0,0.0,0.0,0.0,0.0,0.0,0.0,0.0,2.8775,2.9121,3.0102,3.2622,3.2199,3.1718,3.1698,2.9941,2.8732,0.0,0.0,0.0,0.0,0.0,0.0,0.0,0.0,0.0,0.0,0.0,0.0,0.0,0.0,0.0,0.0,0.0,0.0,0.0,0.0,0.0,0.0,0.0,0.0,0.0,0.0,0.0,0.0,0.0,0.0,0.0,0.0,0.0,0.0,0.0,0.0,0.0,0.0,0.0,0.0,0.0,0.0,0.0,0.0,0.0,0.0,0.0,0.0,0.0,0.0,0.0,0.0,0.0,0.0,0.0,0.0,0.0,0.0,0.0,0.0,0.0,0.0,0.0,0.0,0.0,0.0,0.0,0.0,0.0,0.0,0.0,0.0,0.0,0.0,0.0,0.0,0.0,0.0,0.0,0.0,0.0,0.0,0.0,0.0,0.0,0.0,0.0,0.0,0.0,0.0,0.0,0.0,0.0,0.0,0.0,0.0,0.0,0.0,0.0,0.0,0.0,0.0,0.0,2.8852,3.016,3.1448,3.2756,3.2699,3.2314,3.1756,3.0605,2.9813,2.9559,0.0,0.0,0.0,0.0,0.0,0.0,0.0,0.0,0.0,0.0,0.0,0.0,0.0,0.0,0.0,0.0,0.0,0.0,0.0,0.0,0.0,0.0,0.0,0.0,0.0,0.0,0.0,0.0,0.0,0.0,0.0,0.0,0.0,0.0,0.0,0.0,0.0,0.0,0.0,0.0,0.0,0.0,0.0,0.0,0.0,0.0,0.0,0.0,0.0,0.0,0.0,0.0,0.0,0.0,0.0,0.0,0.0,0.0,0.0,0.0,0.0,0.0,0.0,0.0,0.0,0.0,0.0,0.0,0.0,0.0,0.0,0.0,0.0,0.0,0.0,0.0,0.0,0.0,0.0,0.0,0.0,0.0,0.0,0.0,0.0,0.0,0.0,0.0,0.0,0.0,0.0,0.0,0.0,0.0,0.0,0.0,0.0,0.0,0.0,0.0,0.0,0.0,2.8871,3.0006,3.1102,3.2295,3.2102,3.1718,3.1218,3.0698,3.0299,3.0013,0.0,0.0,0.0,0.0,0.0,0.0,0.0,0.0,0.0,0.0,0.0,0.0,0.0,0.0,0.0,0.0,0.0,0.0,0.0,0.0,0.0,0.0,0.0,0.0,0.0,0.0,0.0,0.0,0.0,0.0,0.0,0.0,0.0,0.0,0.0,0.0,0.0,0.0,0.0,0.0,0.0,0.0,0.0,0.0,0.0,0.0,0.0,0.0,0.0,0.0,0.0,0.0,0.0,0.0,0.0,0.0,0.0,0.0,0.0,0.0,0.0,0.0,0.0,0.0,0.0,0.0,0.0,0.0,0.0,0.0,0.0,0.0,0.0,0.0,0.0,0.0,0.0,0.0,0.0,0.0,0.0,0.0,0.0,0.0,0.0,0.0,0.0,0.0,0.0,0.0,0.0,0.0,0.0,0.0,0.0,0.0,0.0,0.0,0.0,0.0,0.0,0.0,2.889,2.9313,3.0025,3.1545,3.1064,3.059,3.0533,3.0436,3.0299,3.0042,0.0,0.0,0.0,0.0,0.0,0.0,0.0,0.0,0.0,0.0,0.0,0.0,0.0,0.0,0.0,0.0,0.0,0.0,0.0,0.0,0.0,0.0,0.0,0.0,0.0,0.0,0.0,0.0,0.0,0.0,0.0,0.0,0.0,0.0,0.0,0.0,0.0,0.0,0.0,0.0,0.0,0.0,0.0,0.0,0.0,0.0,0.0,0.0,0.0,0.0,0.0,0.0,0.0,0.0,0.0,0.0,0.0,0.0,0.0,0.0,2.8832,0.0,0.0,0.0,0.0,0.0,0.0,0.0,0.0,0.0,0.0,0.0,0.0,0.0,0.0,0.0,0.0,0.0,0.0,0.0,0.0,0.0,0.0,0.0,0.0,0.0,0.0,0.0,0.0,0.0,0.0,0.0,0.0,0.0,0.0,0.0,0.0,0.0,0.0,0.0,0.0,0.0,2.9044,3.0852,3.1987,3.1737,3.2102,3.2102,3.1487,3.0794,3.0386,3.0311,3.0122,0.0,0.0,0.0,0.0,0.0,0.0,0.0,0.0,0.0,0.0,0.0,0.0,0.0,0.0,0.0,0.0,0.0,0.0,0.0,0.0,0.0,0.0,0.0,0.0,0.0,0.0,0.0,0.0,0.0,0.0,0.0,0.0,0.0,0.0,0.0,0.0,0.0,0.0,0.0,0.0,0.0,0.0,0.0,0.0,0.0,0.0,0.0,0.0,0.0,0.0,0.0,0.0,0.0,0.0,0.0,0.0,0.0,0.0,0.0,0.0,3.0641,0.0,0.0,0.0,0.0,0.0,0.0,0.0,0.0,0.0,0.0,0.0,0.0,0.0,0.0,0.0,0.0,0.0,0.0,0.0,0.0,0.0,0.0,0.0,0.0,0.0,0.0,0.0,0.0,0.0,0.0,0.0,0.0,0.0,0.0,0.0,0.0,0.0,0.0,0.0,0.0,3.0237,3.1506,3.2468,3.2852,3.2891,3.2564,3.1775,3.1275,3.0852,3.0417,3.0267,0.0,0.0,0.0,0.0,0.0,0.0,0.0,0.0,0.0,0.0,0.0,0.0,0.0,0.0,0.0,0.0,0.0,0.0,0.0,0.0,0.0,0.0,0.0,0.0,0.0,0.0,0.0,0.0,0.0,0.0,0.0,0.0,0.0,0.0,0.0,0.0,0.0,0.0,0.0,0.0,0.0,0.0,0.0,0.0,0.0,0.0,0.0,0.0,0.0,0.0,0.0,0.0,0.0,3.4218,3.5007,3.5718,3.5872,3.5982,3.5913,3.375,3.2571,3.2231,3.2148,0.0,0.0,0.0,0.0,0.0,0.0,0.0,0.0,0.0,0.0,0.0,0.0,0.0,0.0,0.0,0.0,0.0,0.0,0.0,0.0,0.0,0.0,0.0,0.0,3.3139,3.3224,3.1836,0.0,0.0,0.0,0.0,0.0,0.0,0.0,0.0,0.0,0.0,0.0,3.1506,3.1968,3.2602,3.3833,3.3468,3.2795,3.1987,3.191,3.1602,3.0891,3.0852,3.0753,0.0,0.0,0.0,0.0,0.0,0.0,0.0,0.0,0.0,0.0,0.0,0.0,0.0,0.0,0.0,0.0,0.0,0.0,0.0,0.0,0.0,0.0,0.0,0.0,0.0,0.0,0.0,0.0,0.0,0.0,0.0,0.0,2.6467,2.6582,0.0,0.0,0.0,0.0,0.0,0.0,0.0,0.0,0.0,0.0,0.0,0.0,0.0,3.4064,3.482,3.4949,3.5064,3.518,3.5988,3.643,3.6584,3.7334,3.768,3.7661,3.7315,0.0,3.3967,3.3897,0.0,0.0,0.0,0.0,0.0,0.0,0.0,0.0,0.0,0.0,0.0,0.0,0.0,0.0,0.0,0.0,0.0,0.0,0.0,0.0,0.0,0.0,3.3418,3.4199,3.4419,3.4376,0.0,3.3555,3.3025,3.2881,3.2251,0.0,0.0,0.0,0.0,0.0,0.0,0.0,3.1679,3.2968,3.366,3.3122,3.3641,3.368,3.2814,3.2737,3.2699,3.2583,3.2564,3.2551,3.2519,3.2379,0.0,0.0,0.0,0.0,0.0,0.0,0.0,0.0,0.0,0.0,0.0,0.0,0.0,0.0,0.0,0.0,0.0,0.0,0.0,0.0,0.0,0.0,0.0,0.0,0.0,0.0,0.0,0.0,0.0,2.6774,2.7505,2.7948,2.8775,2.9313,0.0,0.0,0.0,0.0,0.0,0.0,0.0,0.0,0.0,3.4334,3.518,3.5795,3.618,3.7161,3.7853,3.8315,3.9161,3.9815,4.0315,4.07,4.0873,4.0873,4.0873,3.9954,3.8339,3.5916,3.4507,3.3776,0.0,0.0,0.0,0.0,3.3756,3.3839,3.4478,3.4691,3.4679,3.4602,0.0,0.0,0.0,0.0,0.0,0.0,0.0,0.0,0.0,0.0,3.4867,3.5778,3.6343,3.6682,3.667,3.6293,3.5403,0.0,3.313,3.2987,3.2468,0.0,0.0,0.0,0.0,3.2545,3.3045,3.3737,3.4237,3.4353,3.4699,3.4584,3.3699,3.3622,3.341,3.2929,3.2891,3.2891,3.2891,3.2826,3.2826,0.0,0.0,0.0,0.0,0.0,0.0,0.0,0.0,0.0,0.0,0.0,0.0,0.0,0.0,0.0,0.0,0.0,0.0,0.0,0.0,0.0,0.0,0.0,0.0,0.0,0.0,0.0,0.0,2.8044,2.8929,2.9083,3.0256,3.0871,0.0,0.0,0.0,0.0,0.0,0.0,3.3833,3.4699,3.5661,3.6757,3.7584,3.8123,3.8334,3.9623,4.0566,4.1181,4.2027,4.2777,4.3412,4.3643,4.3739,4.372,4.3508,4.3047,4.2162,3.8334,3.6526,3.6007,3.4718,3.4064,3.3987,3.4872,3.5199,3.5316,3.6086,3.6363,3.6307,3.5937,3.5776,3.556,3.4462,0.0,0.0,0.0,0.0,3.4001,3.4855,3.5669,3.651,3.7453,3.8142,3.8586,3.8579,3.8315,3.7262,0.0,3.432,3.4314,3.3391,0.0,0.0,0.0,0.0,3.3468,3.4122,3.4391,3.4776,3.543,3.5493,3.5238,3.4584,3.4526,3.4257,3.3603,3.3564,3.3564,3.3564,3.3564,3.3564,3.3564,0.0,0.0,0.0,0.0,0.0,0.0,0.0,0.0,0.0,0.0,0.0,0.0,0.0,0.0,0.0,0.0,0.0,0.0,0.0,0.0,0.0,0.0,0.0,0.0,0.0,0.0,0.0,0.0,0.0,2.9294,3.1275,0.0,0.0,0.0,0.0,3.2776,3.4353,3.5661,3.6469,3.7334,3.8565,4.02,4.1085,4.195,4.2777,4.2874,4.2931,4.2989,4.3797,4.4201,4.4259,4.5086,4.547,4.5432,4.4605,4.4201,4.397,4.1316,3.9315,3.7873,3.7777,3.7238,3.6622,3.756,3.7892,3.7935,3.8112,3.8168,3.8296,3.9093,3.9254,3.8859,3.7214,3.6622,0.0,0.0,3.5477,3.5694,3.6642,3.7497,3.8381,3.9258,3.9403,3.9341,3.9345,3.8638,3.7757,0.0,3.6012,3.5161,3.4295,0.0,3.2891,3.2891,3.3603,3.4141,3.418,3.493,3.5449,3.5507,3.5493,3.5474,3.5449,3.543,3.543,3.5372,3.5372,3.5372,3.5372,3.5372,3.5372,3.5372,3.5372,0.0,0.0,0.0,0.0,0.0,0.0,0.0,0.0,0.0,0.0,0.0,0.0,0.0,0.0,0.0,0.0,0.0,0.0,0.0,0.0,0.0,0.0,0.0,0.0,0.0,0.0,0.0,0.0,3.2391,3.4141,0.0,3.3782,3.4699,3.5353,3.5353,3.6969,3.8296,3.9104,3.9969,4.0989,4.2143,4.3508,4.4124,4.3874,4.4989,4.5259,4.4701,4.4989,4.5143,4.5143,4.5451,4.5586,4.5566,4.5259,4.5143,4.5009,4.3547,4.1623,3.9488,3.8411,3.7815,3.7642,3.8541,3.8873,3.8969,3.9608,3.9832,3.9805,3.9547,3.9064,3.845,3.7839,3.7689,3.7666,3.7301,3.7217,3.7397,3.8262,3.8704,3.9146,3.9988,4.0142,4.0119,4.0119,3.985,3.9373,3.8604,3.7719,3.7007,3.6699,3.6392,3.618,3.618,3.6449,3.6642,3.6642,3.6911,3.7103,3.7103,3.6622,3.6276,3.6276,3.5815,3.5493,3.5493,3.5493,3.5493,3.5493,3.5493,3.5493,3.5493,3.5493,3.5353,0.0,0.0,0.0,0.0,0.0,0.0,0.0,0.0,0.0,0.0,0.0,0.0,0.0,0.0,0.0,0.0,0.0,0.0,0.0,0.0,0.0,0.0,0.0,0.0,0.0,0.0,3.4737,3.5007,3.7046,3.7873,3.6488,3.7603,3.843,3.843,4.0008,4.147,4.2604,4.2931,4.3605,4.4759,4.5605,4.5893,4.5586,4.674,4.7009,4.6432,4.6432,4.6432,4.6432,4.6432,4.6432,4.6432,4.6432,4.6278,4.597,4.5105,4.3566,4.1643,4.0258,3.9719,3.9796,4.0373,4.0585,4.0662,4.1277,4.1331,4.0985,4.0408,3.9623,3.8911,3.8911,3.8973,3.9016,3.8935,3.8911,3.9027,3.9565,3.9912,4.0277,4.0816,4.0931,4.0931,4.0931,4.07,4.0335,3.9796,3.9008,3.8354,3.8046,3.8007,3.8007,3.8007,3.8007,3.8007,3.8007,3.8007,3.8007,3.8007,3.7488,3.7142,3.7142,3.6392,3.5911,3.5911,3.5661,3.5493,3.5493,3.5493,3.5641,3.5911,3.5911,3.6065,3.6353,0.0,0.0,0.0,0.0,0.0,0.0,0.0,0.0,0.0,0.0,0.0,0.0,0.0,0.0,0.0,0.0,0.0,0.0,0.0,0.0,0.0,0.0,0.0,3.3218,3.6007,3.7815,3.7026,3.9892,4.095,3.8488,4.0489,4.197,4.197,4.3489,4.5163,4.6855,4.6144,4.6413,4.8048,4.7375,4.7336,4.8086,4.8125,4.8125,4.8105,4.8105,4.8105,4.8105,4.8105,4.8105,4.8105,4.8105,4.7663,4.6874,4.6028,4.5163,4.4297,4.3431,4.3104,4.3104,4.3104,4.3104,4.3104,4.3104,4.2527,4.1797,4.1797,4.1239,4.0527,4.0527,4.0527,4.0527,4.0527,4.0527,4.0527,4.0527,4.1181,4.1854,4.1854,4.1854,4.1835,4.1816,4.1143,4.0527,4.0508,3.9873,3.9065,3.8219,3.8084,3.8084,3.8084,3.8084,0.0,3.8084,3.8084,3.8084,3.8084,3.8065,3.8046,3.8046,3.7238,3.6738,3.6738,3.6007,3.5584,3.5584,3.5584,3.5949,3.6738,3.6738,3.7161,3.8007,0.0,0.0,0.0,0.0,0.0,0.0,0.0,0.0,0.0,0.0,0.0,0.0,0.0,0.0,0.0,0.0,0.0,0.0,0.0,0.0,0.0,0.0,3.7084,3.7488,3.9392,4.1123,4.2085,4.3605,4.4278,4.3566,4.472,4.5509,4.5509,4.6471,4.7259,4.774,4.7548,4.7625,4.8086,4.8509,4.8529,4.8105,4.8721,4.8721,4.8105,4.8105,4.8105,4.8105,4.8105,4.8105,4.8105,4.8105,4.7971,4.7759,4.7509,4.6932,4.599,4.3912,4.3104,4.3104,4.3104,4.3104,4.3104,4.3104,4.2527,4.1797,4.1797,4.1643,4.145,4.145,4.145,4.145,4.145,4.145,4.145,4.145,4.2085,4.2739,4.2739,4.2739,4.2566,4.195,4.1604,4.1258,4.0623,4.0315,4.0085,3.9854,3.9796,3.9796,3.9796,3.9796,0.0,3.9796,3.9796,3.9796,3.9796,3.9277,3.8931,3.8931,3.8142,3.7642,3.7642,3.745,3.7315,3.7315,3.7315,3.743,3.7642,3.7642,3.7757,0.0,0.0,0.0,0.0,0.0,0.0,0.0,0.0,0.0,0.0,0.0,0.0,0.0,0.0,0.0,0.0,0.0,0.0,0.0,0.0,0.0,0.0,3.8392,4.0392,4.2662,4.322,4.3893,4.524,4.6451,4.7048,4.6682,4.7432,4.7952,4.7952,4.8375,4.8798,4.9163,4.8836,4.8817,4.9183,4.9336,4.9336,4.9183,4.9683,4.9683,4.9183,4.9183,4.9183,4.9183,4.9183,4.9183,4.9183,4.9183,4.8971,4.8644,4.8644,4.8144,0.0,0.0,0.0,0.0,0.0,4.4143,4.4143,4.4143,4.3585,4.2854,4.2854,4.2624,4.2335,4.2335,4.2335,4.2335,4.2335,4.2335,4.2335,4.2335,4.297,4.3605,4.3605,4.3605,4.3451,4.297,4.2585,4.2085,4.12,4.1046,0.0,4.0546,4.0489,4.0489,4.0489,4.0489,4.0489,4.0489,4.0489,4.0489,4.0489,4.0065,3.9796,3.9796,3.9027,0.0,0.0,0.0,3.8007,3.8007,3.8354,0.0,0.0,0.0,3.87,3.9046,3.8753,0.0,0.0,3.8339,3.777,0.0,0.0,0.0,0.0,0.0,0.0,0.0,0.0,0.0,0.0,0.0,0.0,0.0,0.0,0.0,0.0,4.1623,4.3758,4.7702,4.7124,4.6547,4.7259,4.8644,4.924,4.8471,4.9086,4.9548,4.9548,4.9548,4.9875,5.0644,0.0,0.0,0.0,0.0,4.9913,5.0683,5.0702,5.0702,5.0702,5.0702,5.0702,5.0702,5.0702,5.0702,5.0702,5.0702,5.026,4.9548,4.9548,4.9029,4.8163,4.7355,4.6509,4.574,4.574,4.5682,4.5586,4.5586,0.0,0.0,4.4297,4.3816,4.3239,4.3239,4.3239,4.3239,4.3239,4.3239,4.3239,4.3239,4.3835,4.4451,4.4451,4.4451,4.4412,4.4316,4.3739,4.2989,4.2124,4.195,4.17,4.0931,4.0623,4.0489,4.0489,4.0489,4.0489,4.0489,4.0489,4.0489,4.0489,0.0,0.0,4.0489,3.9835,3.9431,3.9431,3.87,3.8277,3.8277,3.9008,3.9431,3.9431,3.9431,3.9777,4.0489,3.9831,3.9957,4.0757,3.9225,3.8535,0.0,0.0,0.0,0.0,0.0,0.0,0.0,0.0,0.0,0.0,0.0,0.0,0.0,0.0,0.0,4.12,4.4008,4.6682,4.8836,5.0029,5.051,5.001,5.024,5.0375,5.0202,5.0337,5.0452,5.0452,5.0452,5.051,5.0683,5.0529,5.0529,5.0683,5.0529,5.0529,5.0702,5.0702,5.0702,5.0702,0.0,0.0,5.0702,5.0702,5.0702,5.0702,5.0702,5.0587,5.0452,5.0452,4.9933,4.9067,4.8202,4.7375,4.6644,4.6644,4.6201,4.5586,4.5586,4.5028,4.4297,4.4297,4.4182,4.4066,4.4066,4.4066,0.0,4.4066,4.4066,4.4066,4.4066,4.4701,4.5336,4.5336,4.5336,4.5163,4.4451,4.4182,4.3835,4.3008,4.2854,4.2797,4.2624,4.1431,4.0489,4.0489,4.0489,4.0489,4.0489,4.0489,4.0489,4.0489,4.0489,4.0489,4.0489,4.0354,4.0258,4.0258,4.0104,4.0008,4.0008,4.0181,4.0258,4.0258,4.0258,4.0335,4.0489,4.0369,4.0468,4.0791,4.0571,4.0148,0.0,0.0,0.0,0.0,0.0,0.0,0.0,0.0,0.0,0.0,0.0,3.706,0.0,0.0,4.2643,4.5182,4.7048,4.8894,5.101,5.1664,5.1606,5.0798,5.1048,5.1144,5.0741,5.0702,5.0702,5.0702,5.0702,5.0702,5.0702,5.0702,5.0702,5.0702,5.1087,5.1106,5.0702,5.1106,5.1298,5.1298,5.1298,5.1529,5.1933,5.1491,5.1298,5.1279,5.0856,5.0702,5.0702,5.0702,5.0433,5.001,4.9567,4.8375,4.6913,4.6913,4.6355,4.572,4.6547,4.6297,4.5663,4.6067,4.6201,4.6201,4.6201,4.6201,4.6124,4.572,4.5605,4.5509,4.5047,4.5259,4.5586,4.5586,4.5586,4.547,4.5028,4.4951,4.4701,4.3855,4.3701,4.3566,4.3162,4.2374,4.1643,4.1219,4.0777,4.0489,4.0489,4.0489,4.0489,4.0489,4.0489,4.0489,4.0489,4.0489,4.0489,4.0489,4.0489,4.0489,4.0489,4.0489,4.0489,4.0489,4.0581,4.06,4.06,4.0696,4.08,4.0897,4.1044,4.0894,0.0,0.0,0.0,0.0,0.0,0.0,0.0,0.0,3.5714,3.6832,3.8844,4.0866,4.2316,4.4085,4.6278,4.9183,4.9933,5.0798,5.2683,5.2491,5.1798,5.0818,5.1279,5.1471,5.0971,5.0933,5.0991,5.1164,5.1029,5.0933,5.0933,5.0933,5.0933,5.0933,5.1741,5.1837,5.1183,5.1837,5.2164,5.2164,5.1991,5.2279,5.2933,5.2068,5.1683,5.1625,5.0971,5.0702,5.0702,5.0702,5.0702,5.0664,5.051,4.9183,4.7394,4.7394,4.6836,4.6278,4.7625,4.7682,4.724,4.7894,4.8105,4.8105,4.8105,4.8105,4.7971,4.7317,4.7144,4.6971,4.6259,4.597,4.5836,4.5836,4.572,4.5586,4.5586,4.5586,4.5393,4.4682,4.4547,4.4355,4.3701,4.3451,4.3047,4.2181,4.1316,4.0739,4.0739,4.0585,4.0489,4.0489,4.0489,4.0489,4.0489,4.0489,4.0489,4.0489,4.0489,4.0489,4.0489,4.0489,4.0508,4.0543,4.0639,4.0708,4.0723,4.0891,4.0964,4.1001,4.1106,4.1181,3.2795,3.2923,3.3655,3.5986,3.5524,3.5637,0.0,0.0,3.9704,4.2116,4.3412,4.436,4.5203,4.7355,4.9355,5.0375,5.1798,5.2606,5.2125,5.2645,5.2472,5.0875,5.0779,5.1087,5.1722,5.1779,5.2087,5.2856,5.2202,5.1779,5.1779,5.1779,5.1779,5.1779,5.2606,5.301,5.2914,5.301,5.3049,5.3049,5.2279,5.1952,5.2029,5.1202,5.0818,5.0818,5.0741,5.0702,5.0702,5.0702,5.0702,5.0606,4.9856,4.9375,4.9125,4.9125,4.8567,4.7855,4.8029,4.8048,4.799,4.8067,4.8105,4.8105,4.8105,4.8105,4.8086,4.799,4.7971,4.7952,4.7855,4.7298,4.6759,4.6759,4.6163,4.5586,4.5586,4.5586,4.5566,4.547,4.5451,4.5432,4.5336,4.4682,4.3893,4.3085,4.222,4.1662,4.1662,4.0969,4.0489,4.0489,4.0489,4.0489,4.0489,4.0489,4.0489,4.0489,4.0489,4.0489,4.0489,4.0489,4.0562,4.0677,4.0696,4.072,4.0779,4.0799,4.0884,4.0985,4.1012,4.1082,3.4372,3.5014,3.5987,0.0,3.8807,3.9727,4.2325,4.3179,4.3877,4.5395,4.719,4.8721,4.9509,5.088,5.2184,0.0,5.3723,5.407,5.3682,5.3453,5.2684,5.1029,5.0741,5.101,5.1818,5.1491,5.1548,5.2395,5.1664,5.1414,5.1875,5.1914,5.2145,5.2645,5.351,5.3703,5.3203,5.3703,5.3953,5.3953,5.3587,5.3664,5.4087,5.328,5.2356,5.1375,5.0894,5.0702,5.0702,5.0702,5.0702,5.0644,5.0298,5.0164,5.0087,4.9586,4.8856,4.8259,4.926,4.9279,4.8933,4.9452,4.9663,4.9702,4.9644,4.9663,4.9606,4.9009,4.8856,4.874,4.824,4.7509,4.6913,4.6913,4.622,4.574,4.624,4.5951,4.574,4.6259,4.5951,4.5586,4.5586,4.5297,4.4932,4.4605,4.3412,4.2566,4.2566,4.1797,4.1066,4.0546,4.0489,4.0543,4.062,4.062,4.062,4.062,4.062,4.062,4.062,4.062,4.0658,4.0754,4.0831,4.0887,4.0919,4.0994,4.1066,4.1117,4.1119,4.116,3.5859,0.0,0.0,4.0613,4.2285,4.3807,4.5332,4.6688,4.7931,4.8937,5.0457,5.1852,5.2635,5.3066,5.3658,5.4723,5.4898,5.4821,5.4591,5.3721,5.247,5.0798,5.0087,5.0164,5.1182,5.1125,5.1395,5.226,5.176,5.1683,5.2299,5.2549,5.2953,5.3587,5.4414,5.4568,5.403,5.4549,5.4838,5.4876,5.4626,5.4799,5.5338,5.4511,5.3203,5.1548,5.1221,5.0952,5.076,5.0818,5.0818,5.0818,5.0818,5.0818,5.0741,5.0087,4.9413,4.899,5.0298,5.0317,4.9875,5.0529,5.0837,5.0895,5.0779,5.0856,5.0798,5.0029,4.9798,4.9663,4.899,4.8221,4.7528,4.7298,4.6759,4.6394,4.6817,4.6586,4.6471,4.7105,4.6721,4.6278,4.6278,4.6278,4.622,4.6009,4.4951,4.4008,4.3547,4.2563,4.1639,4.1004,4.0735,4.062,4.0716,4.0728,4.0725,4.0725,4.0737,4.0735,4.0735,4.0742,4.0761,4.085,4.0947,4.1012,4.1067,4.1156,4.1191,4.1191,4.1198,4.1193,3.6927,0.0,4.0463,4.3972,4.5508,4.7051,5.039,5.1191,5.1738,5.3437,5.3183,5.2871,5.3613,5.3085,5.3051,5.4636,5.4905,5.4594,5.3766,5.288,5.1703,5.0028,4.8356,4.7933,0.0,5.1029,5.2299,5.3278,5.3338,5.3338,5.3336,5.4145,5.4628,5.4647,5.532,5.5799,5.6109,5.5799,5.5722,5.5838,5.4934,5.4511,5.4511,5.3645,5.2318,5.0779,5.1664,5.1606,5.0914,5.1029,5.1087,5.1087,5.1087,5.1087,5.1087,5.1068,5.0875,5.0644,5.0837,5.0798,5.0683,5.0856,5.0914,5.0914,5.0914,5.0991,5.1068,5.0914,5.0856,5.0837,5.0644,4.9971,4.9106,4.8259,4.8048,4.7817,4.7067,4.749,4.8029,4.8067,4.8048,4.8029,4.8029,4.8029,4.7778,4.7067,4.6913,4.6278,4.466,4.306,4.2075,4.2036,4.1309,4.0793,4.0793,4.0807,4.0805,4.0805,4.0797,4.0793,4.0793,4.0798,4.0858,4.1001,4.0985,4.1061,4.1191,4.1191,4.1191,4.1191,4.1191,4.1191,3.9182,0.0,4.479,4.7714,4.9062,5.0293,5.2598,5.3574,5.3984,5.4004,5.2851,5.1758,5.1465,5.0703,5.0643,5.2303,5.3549,5.4193,5.3901,5.3549,5.2251,4.941,4.898,0.0,0.0,0.0,0.0,5.168,5.226,5.2835,5.3494,5.4359,5.511,5.5686,5.591,5.6084,5.6205,5.6084,5.6046,5.609,5.5203,5.5068,5.557,5.3528,5.2932,5.3393,5.2029,5.1597,5.1781,5.1296,5.1102,5.1102,5.1102,5.1102,5.1102,5.1102,5.1043,5.0965,5.1026,5.0996,5.0984,5.1008,5.1068,5.1086,5.1039,5.1103,5.1152,5.1066,5.1029,5.1029,5.0991,5.0317,4.9587,4.9298,4.8778,4.8449,4.8758,4.8586,4.8548,4.9106,4.8759,4.8355,4.8355,4.8355,4.8077,4.7262,4.663,4.5877,4.4761,4.4156,4.3605,4.3014,4.2168,4.1703,4.1782,4.1272,4.0937,4.0932,4.0929,4.0932,4.0939,4.0944,4.1003,4.1139,4.112,4.114,4.1191,4.1191,4.1191,4.1191,4.1191,4.1191,4.2163,4.5214,4.832,5.0918,5.2187,5.3164,5.4609,5.5117,5.4961,5.3789,5.1914,5.0156,4.9023,4.7832,4.7598,4.9297,5.0527,5.1562,5.2519,5.2305,5.1346,4.9462,4.9107,4.8691,0.0,0.0,0.0,5.0528,5.1934,5.3004,5.3637,5.478,5.5688,5.6265,5.6209,5.6253,5.6343,5.6253,5.6214,5.6188,5.5629,5.5339,5.5243,5.4179,5.3658,5.3488,5.2493,5.2005,5.1871,5.1401,5.1206,5.1206,5.1206,5.1203,5.1211,5.1211,5.1211,5.1208,5.1155,5.113,5.1103,5.1132,5.1157,5.1183,5.1155,5.1206,5.1248,5.1157,5.1132,5.114,5.1115,5.0681,5.0198,4.9872,4.9595,4.9504,4.9741,4.961,4.9595,5.0159,4.9811,4.944,4.944,4.9213,4.8848,4.8277,4.7229,4.6185,4.5311,4.4962,4.4596,4.4022,4.2905,4.2241,4.2325,4.1568,4.1064,4.1074,4.1074,4.1072,4.1073,4.1072,4.111,4.1191,4.1191,4.1191,4.1191,4.1191,4.1191,4.1191,4.1191,4.1191,4.5744,4.8418,5.1055,5.3516,5.4746,5.5566,5.6367,5.582,5.4668,5.2871,5.041,4.8047,0.0,0.0,4.416,4.5937,4.6426,4.7461,5.0039,4.9726,4.9492,0.0,0.0,0.0,0.0,0.0,0.0,5.0084,0.0,5.3818,5.3866,5.5488,5.6413,5.6425,5.629,5.6329,5.6602,5.6349,5.6212,5.6212,5.6173,5.5298,5.374,5.5317,5.4305,5.1405,5.3003,5.2801,5.135,5.1372,5.1406,5.1406,5.1406,5.1394,5.1405,5.1405,5.1405,5.1366,5.1261,5.1175,5.1128,5.1183,5.1206,5.1201,5.1201,5.1308,5.1367,5.125,5.1211,5.1206,5.1125,5.1113,5.0918,5.0072,5.05,5.0879,5.0068,5.0518,5.1113,5.1113,5.1113,5.1113,5.1113,5.0555,5.0048,5.0029,4.8717,4.7362,4.6323,4.5533,4.5078,4.5078,4.3555,4.2519,4.2461,4.1738,4.123,4.1191,4.1191,4.1191,4.1191,4.1191,4.1191,4.1191,4.1191,4.1191,4.1191,4.1191,4.1191,4.1191,4.1191,4.1191,4.9192,5.2006,5.4316,5.5605,5.6094,5.6152,5.5723,5.4453,5.2695,5.0351,4.6777,4.3535,0.0,0.0,0.0,4.4941,4.8008,0.0,5.2754,5.3398,0.0,5.2187,0.0,5.1238,5.0791,5.1316,0.0,0.0,5.3111,5.4128,5.4882,5.5957,5.6558,5.6548,5.6516,5.6529,5.6607,5.6529,5.651,5.649,5.5846,5.5299,5.485,5.3988,5.3835,5.4147,5.2655,5.2503,5.3196,5.1909,5.1406,5.1406,5.1406,5.1404,5.1394,5.1394,5.1394,5.1391,5.1367,5.1336,5.1338,5.1347,5.1357,5.1357,5.1357,5.1372,5.1387,5.1367,5.1348,5.1347,5.134,5.1316,5.1277,5.1042,5.116,5.1257,5.1045,5.116,5.1316,5.1316,5.1316,5.1316,5.1316,5.116,5.0836,5.0256,4.9807,4.8981,4.7416,4.6497,4.5976,4.5976,4.498,4.4062,4.3418,4.2598,4.1836,4.123,4.1191,4.1191,4.1191,4.1191,4.1191,4.1191,4.1191,4.1191,4.1191,4.1191,4.1191,4.1191,4.1191,4.1191,5.1816,5.418,5.5996,5.6484,5.6308,5.5605,5.3965,5.2266,5.0078,4.6738,4.3516,0.0,0.0,0.0,0.0,0.0,0.0,0.0,5.1875,5.2754,5.3105,0.0,5.3262,0.0,5.2598,5.2988,5.3437,0.0,5.4229,5.4687,5.5273,5.6133,5.6601,5.6601,5.6601,5.6601,5.6601,5.6601,5.6601,5.6582,5.6094,5.5664,5.5273,5.4687,5.4531,5.4648,0.0,5.2871,5.332,5.1953,5.1406,5.1406,5.1406,5.1406,5.1406,5.1406,5.1406,5.1406,5.1406,5.1406,5.1406,5.1406,5.1406,5.1406,5.1406,5.1406,5.1406,5.1406,5.1406,5.1406,5.1406,5.1406,5.1406,5.1406,5.1406,5.1406,5.1406,5.1406,5.1406,5.1406,5.1406,5.1406,5.1406,5.1406,5.1257,5.0802,5.0425,4.9844,4.8867,4.7656,4.6719,4.6348,4.5527,4.4805,4.4316,4.3125,4.2207,4.1758,4.1406,4.1191,4.1191,4.1191,4.1191,4.1191,4.1191,4.1191,4.1191,4.1191,4.1191,4.1191,4.1191,4.1191,5.4043,5.5625,5.6738,5.6621,5.5762,5.4297,5.1816,4.9668,4.7031,4.293,0.0,3.9062,3.7422,3.7402,3.8495,4.108,0.0,4.5,4.998,5.0781,5.1738,5.4062,5.4355,5.4355,5.4355,5.4355,5.4668,5.543,5.5469,5.5469,5.5469,5.6191,5.6601,5.6601,5.6601,5.6601,5.6601,5.6601,5.6543,5.6426,5.6543,5.6074,5.5156,5.5918,5.543,5.3984,5.3769,5.3281,5.2637,5.1758,5.1406,5.1406,5.1406,5.1406,5.1406,5.1406,5.1406,5.1406,5.1406,5.1406,5.1406,5.1406,5.1406,5.1406,5.1406,5.1406,5.1406,5.1406,5.1406,5.1406,5.1406,5.1406,5.1406,5.1406,5.1406,5.1406,5.1406,5.1406,5.1406,5.1406,5.1406,5.1406,5.1406,5.1406,5.1406,5.1406,5.0801,5.0312,5.0215,4.8672,4.7305,4.6543,4.5683,4.5137,4.5019,4.3516,4.2519,4.2402,4.1641,4.1191,4.1191,4.1191,4.1191,4.1191,4.1191,4.1191,4.1191,4.1187,4.1162,4.1162,4.1167,4.115,5.6719,5.7441,5.75,5.6777,5.4863,5.2676,5.082,4.7402,0.0,0.0,3.8965,3.7441,3.6406,3.7988,4.0242,4.27,0.0,0.0,0.0,0.0,5.4844,0.0,0.0,0.0,0.0,0.0,0.0,0.0,5.6367,5.6367,5.6367,5.6523,5.6601,5.6601,5.6601,5.6601,5.6601,5.6601,5.623,5.5527,5.6269,5.5762,5.4238,5.4375,5.4297,5.3926,5.248,0.0,5.2637,5.1758,5.1406,5.1406,5.1406,5.1406,5.1406,5.1406,5.1406,5.1406,5.1406,5.1406,5.1406,5.1406,5.1406,5.1406,5.1406,5.1406,5.1406,5.1406,5.1406,5.1406,5.1406,5.1406,5.1406,5.1406,5.1406,5.1406,5.1406,5.1406,5.1406,5.1406,5.1406,5.1406,5.1406,5.1406,5.1406,5.1406,5.1289,5.0957,5.0293,4.8672,4.7539,4.7383,4.6582,4.5781,4.5058,4.4062,4.3164,4.2441,4.1641,4.1191,4.1191,4.1191,4.1191,4.1191,4.1191,4.1191,4.1191,4.1099,4.1029,4.1029,4.0913,4.087,5.6776,5.7016,5.6816,5.6014,5.3848,5.1133,4.8164,0.0,0.0,0.0,3.7207,3.6504,3.6074,0.0,0.0,0.0,0.0,0.0,0.0,0.0,0.0,0.0,0.0,0.0,0.0,0.0,0.0,0.0,5.6601,5.6601,5.6601,5.6601,5.6601,5.6601,5.6601,5.6601,5.6601,5.6601,5.6387,5.5976,5.6406,5.6152,5.5332,5.4883,5.4687,5.457,5.2832,5.2305,5.2637,5.1758,5.1406,5.1406,5.1406,5.1406,5.1406,5.1406,5.1406,5.1406,5.1406,5.1406,5.1406,5.1406,5.1406,5.1406,5.1406,5.1406,5.1406,5.1406,5.1406,5.1406,5.1406,5.1406,5.1406,5.1406,5.1406,5.1406,5.1406,5.1406,5.1406,5.1406,5.1406,5.1406,5.1406,5.1406,5.1406,5.1406,5.1406,5.1269,5.0879,4.9726,4.8613,4.7695,4.7226,4.6621,4.5742,4.4453,4.3516,4.3105,4.1894,4.1191,4.1191,4.1125,4.1104,4.1104,4.1037,4.0992,4.0992,4.0926,4.09,4.0889,4.0842,4.0788,5.6408,5.6466,5.6236,5.5288,5.2814,4.9623,4.5795,4.2671,0.0,0.0,3.5932,3.5932,3.5932,0.0,0.0,0.0,0.0,0.0,0.0,0.0,0.0,0.0,0.0,0.0,0.0,0.0,0.0,0.0,5.6582,5.6601,5.6601,5.6601,5.6601,5.6601,5.6601,5.6601,5.6601,5.6601,5.6504,5.6328,5.6504,5.6504,5.6289,5.543,5.5019,5.4922,5.3183,5.2422,5.2363,5.168,5.1406,5.1406,5.1406,5.1406,5.1406,5.1406,5.1406,5.1406,5.1406,5.1406,5.1406,5.1406,5.1406,5.1406,5.1406,5.1406,5.1406,5.1406,5.1406,5.1406,5.1406,5.1406,5.1406,5.1406,5.1406,5.1406,5.1406,5.1406,5.1406,5.1406,5.1406,5.1406,5.1406,5.1406,5.1406,5.1406,5.1406,5.1406,5.1406,5.0859,4.9783,4.8021,4.769,4.7243,4.6339,4.4829,4.3922,4.3917,4.2492,4.1672,4.1672,4.1393,4.1229,4.1232,4.1141,4.0995,4.0801,4.0976,4.0967,4.0773,4.0754,4.0735,5.7061,5.7292,5.6906,5.5326,5.1813,4.8041,4.5339,0.0,0.0,3.6119,3.5729,3.5729,3.5729,3.6436,3.7852,0.0,0.0,4.3876,0.0,0.0,0.0,0.0,0.0,0.0,0.0,0.0,0.0,0.0,5.6523,5.6601,5.6601,5.6601,5.6601,5.6601,5.6601,5.6601,5.6601,5.6601,5.6191,5.543,5.6211,5.6191,5.539,5.4512,5.4121,5.4023,5.2285,5.1523,0.0,5.1426,5.1406,5.1406,5.1406,5.1406,5.1406,5.1406,5.1406,5.1406,5.1406,5.1406,5.1406,5.1406,5.1406,5.1406,5.1406,5.1406,5.1406,5.1406,5.1406,5.1406,5.1406,5.1406,5.1406,5.1406,5.1406,5.1406,5.1406,5.1406,5.1406,5.1406,5.1406,5.1406,5.1406,5.1406,5.1406,5.1406,5.1406,5.1406,5.1406,5.1348,5.059,4.8793,4.7996,4.7205,4.6201,4.524,4.4672,4.4604,4.3716,4.321,4.321,4.2427,4.2003,4.2013,4.1982,4.1594,4.0815,4.1532,4.1478,4.0716,4.0581,4.0543,5.4993,5.6013,5.5859,5.3742,5.0385,4.6809,4.3819,0.0,3.7157,3.5955,3.5704,3.5704,3.5704,3.5974,3.6887,3.8926,3.9502,0.0,0.0,0.0,0.0,0.0,0.0,0.0,0.0,0.0,0.0,0.0,5.6329,5.6368,5.6368,5.6512,5.6601,5.6601,5.6601,5.6601,5.6601,5.6601,5.6426,5.6094,5.6426,5.6133,5.5273,5.4394,5.3711,5.3144,5.1933,5.1406,0.0,5.1406,5.1342,5.128,5.128,5.1249,5.1219,5.1219,5.1219,5.123,5.1265,5.1289,5.1289,5.1367,5.1406,5.1406,5.1406,5.1406,5.1406,5.1406,5.1406,5.1406,5.1406,5.1797,5.2051,5.1523,5.1797,5.2031,5.1504,5.1406,5.1406,5.1406,5.1406,5.1406,5.1406,5.1406,5.1406,5.1406,5.1336,5.128,5.128,5.1245,5.0548,4.8771,4.8386,4.7648,4.6111,4.5214,4.4732,4.4708,4.3394,4.2853,4.338,4.2518,4.227,4.2755,4.272,4.2527,4.2181,4.1989,4.17,4.1354,4.0758,4.0489,5.1774,5.3637,5.4233,5.1875,4.8913,4.5719,0.0,0.0,3.6656,3.5815,3.5641,3.5641,3.5641,3.5641,3.6219,3.793,3.8142,3.9262,4.2684,0.0,0.0,0.0,0.0,0.0,0.0,0.0,0.0,5.6204,5.6199,5.6199,5.6199,5.6368,5.6489,5.6484,5.6484,5.6484,5.6484,5.6484,5.6484,5.6484,5.6484,5.6035,5.516,5.4281,5.3402,5.2521,5.1681,5.131,0.0,5.131,5.1265,5.117,5.1163,5.1131,5.1095,5.1095,5.1095,5.1113,5.116,5.1171,5.1193,5.1271,5.131,5.131,5.131,5.1343,5.1406,5.1406,5.1582,5.1777,5.1777,5.2246,5.2558,5.1933,5.2051,5.2148,5.1523,5.1406,5.1406,5.1406,5.1366,5.1341,5.1341,5.1312,5.131,5.131,5.1228,5.1175,5.1164,5.1134,5.0525,4.8984,4.8686,4.7851,4.6019,4.536,4.501,4.4972,4.3818,4.3398,4.4032,4.3165,4.2951,4.3511,4.3489,4.3335,4.3104,4.272,4.2277,4.1797,4.1162,4.0739,4.7532,5.0187,5.2117,4.997,4.7509,4.472,0.0,3.8546,3.6469,3.568,3.5493,3.5493,3.5493,3.5493,3.6065,3.7738,3.8007,3.92,4.2624,0.0,0.0,0.0,0.0,0.0,0.0,0.0,0.0,5.6186,5.6186,0.0,5.6186,5.6207,5.6209,5.6211,5.6202,5.6202,5.6202,5.6202,5.6202,5.6202,5.6202,5.5754,5.4879,5.3993,5.3137,5.2252,5.1444,5.1094,0.0,5.1094,5.1094,5.1102,5.1095,5.1106,5.1087,5.1087,5.1087,5.1087,5.1106,5.1106,5.1094,5.1094,5.1094,5.1094,5.1094,5.1235,5.1406,5.1406,5.2012,5.2695,5.2695,5.2695,5.2695,5.2695,5.2031,5.1406,5.1406,5.1406,5.1406,5.1406,5.1288,5.1203,5.1203,5.1145,5.1094,5.1094,5.1094,5.1101,5.1086,5.1087,5.0702,4.9701,4.8816,4.7622,4.593,4.5796,4.5738,4.5586,4.5566,4.5566,4.5566,4.4739,4.4278,4.4297,4.4297,4.3893,4.3104,4.3893,4.3412,4.1797,4.1797,4.1316,4.3366,4.547,4.6468,4.5359,4.3585,4.1527,3.9296,3.7276,3.5815,3.5551,3.5493,3.5493,3.5493,3.5493,3.6065,3.7738,3.8007,3.8777,0.0,0.0,0.0,0.0,0.0,0.0,0.0,0.0,5.578,5.5838,5.5857,5.5857,5.5857,5.5857,5.596,5.6191,5.6191,5.6191,5.6191,5.6191,5.6191,5.6191,5.559,5.4856,5.3986,5.3114,5.2263,5.1473,5.1206,5.109,5.109,5.109,5.1051,5.0957,5.0952,5.0914,5.0837,5.0837,5.0837,5.0856,5.0933,5.095,5.0974,5.107,5.109,5.109,5.109,5.1132,5.1193,5.1193,5.1395,5.1609,5.1609,5.2019,5.2292,5.1746,5.1824,5.1863,5.1317,5.1193,5.1193,5.1193,5.1162,5.1131,5.1125,5.112,5.109,5.109,5.1013,5.0962,5.0972,5.0895,5.0491,4.9548,4.8663,4.7721,4.6644,4.6009,4.5643,4.5586,4.5028,4.497,4.5566,4.4759,4.4586,4.5182,4.5182,4.5047,4.4797,4.447,4.3431,4.1797,4.1797,4.1662,0.0,4.1098,4.2493,4.172,4.0699,0.0,0.0,3.6469,3.5493,3.5493,3.5493,3.5493,3.5493,3.5493,3.5949,3.7296,3.7796,3.8469,0.0,0.0,0.0,0.0,0.0,0.0,0.0,0.0,5.5703,5.5703,5.5703,5.5703,5.5703,5.5703,5.5799,5.6013,5.6013,5.6013,5.6013,5.6013,5.5859,5.5551,5.5012,5.4127,5.2933,5.2396,5.1703,5.0952,5.0952,5.0952,0.0,5.0952,5.0914,5.0837,5.0837,5.076,5.0702,5.0702,5.0702,5.0702,5.0818,5.0837,5.0856,5.0933,5.0952,5.0952,5.0952,5.1015,5.1153,5.1469,5.156,5.1632,5.1961,5.2175,5.2175,5.167,5.1709,5.1709,5.1211,5.1095,5.1095,5.1095,5.1056,5.1024,5.1029,5.0991,5.0952,5.0952,5.0895,5.0837,5.0837,5.0741,5.0491,4.9952,4.8817,4.7894,4.7413,4.6278,4.5586,4.5586,4.5086,4.5028,4.5566,4.5066,4.5047,4.5586,4.5586,4.5586,4.5586,4.4593,4.3503,4.2354,4.203,4.1896,0.0,3.6894,0.0,0.0,0.0,0.0,0.0,3.5998,0.0,3.5493,3.5493,3.5526,3.557,3.5545,3.5815,3.6738,3.7507,0.0,0.0,0.0,0.0,0.0,0.0,0.0,0.0,0.0,5.5703,5.5703,5.5703,5.5703,5.5703,5.5703,5.5703,5.5703,5.5703,5.5703,5.5703,5.5703,5.5318,5.4587,5.4453,5.3568,5.1991,5.1875,5.1414,0.0,5.0702,5.0702,5.0702,5.0702,5.0702,5.0702,5.0702,5.0702,5.0702,5.0702,5.0702,5.0702,5.0702,5.0702,5.0702,5.0702,5.0702,5.0702,5.0702,5.0875,5.1241,5.1971,5.2203,5.2377,5.3186,5.2781,5.2204,5.2204,5.1626,5.1068,5.1068,5.1068,5.1068,5.1068,5.0972,5.0895,5.0895,5.0779,5.0702,5.0702,5.0702,5.0702,5.0702,5.0702,5.0664,5.0606,4.9106,4.8086,4.8029,4.6528,4.5586,4.5586,4.5586,4.5586,4.5586,4.5568,4.5568,4.5568,4.5531,4.5531,4.5531,4.4399,4.3658,4.3271,4.2473,4.2096,3.0056,0.0,3.4132,3.5376,3.5684,3.5647,0.0,3.5324,3.5239,0.0,0.0,3.5699,3.6315,3.5911,3.6199,3.8334,3.8296,0.0,0.0,0.0,0.0,0.0,0.0,0.0,0.0,5.4203,5.5703,5.5703,5.5703,5.5703,5.5703,5.5703,5.5703,5.5703,5.5703,5.5703,5.5703,5.5703,5.5607,5.5395,5.4126,5.3299,5.2856,5.1568,5.0875,5.0702,5.0702,5.0702,5.0702,5.0702,5.0702,5.0702,5.0702,5.0702,5.0702,5.0702,5.0702,5.0702,5.0702,5.0702,5.0702,5.0702,5.0702,5.0702,5.0702,5.0741,5.0818,5.1029,5.1068,5.1126,5.1318,5.1222,5.1087,5.1087,5.0933,5.0779,5.0779,5.0779,5.0779,5.0779,5.076,5.0741,5.0741,5.0721,5.0702,5.0702,5.0702,5.0702,5.0702,5.0702,5.0433,4.9779,4.874,4.7855,4.724,4.6201,4.5586,4.5586,4.5586,4.5586,4.5586,4.5342,4.5222,4.5222,4.4966,4.4849,4.483,4.4543,4.4033,4.329,4.3102,4.2989,2.9628,3.0729,3.189,3.3093,3.3904,3.4551,3.4851,0.0,0.0,0.0,0.0,0.0,3.5711,0.0,0.0,0.0,3.7964,0.0,0.0,0.0,0.0,0.0,0.0,0.0,0.0,5.477,5.5621,5.5423,5.5599,5.5703,5.5703,5.5703,5.5703,5.5703,5.5338,5.5318,5.5703,5.5703,5.5299,5.4549,5.3626,5.2799,5.201,5.1106,5.0702,5.0702,5.0702,5.0702,5.0702,5.0702,5.0702,5.0702,5.0702,5.0702,5.0702,5.0702,5.0702,5.0702,5.0702,5.0702,5.0702,5.0702,5.0584,5.0421,5.0421,5.0313,5.0302,5.1046,5.0971,5.0779,5.1144,5.0971,5.0702,5.0702,5.0702,5.0702,5.0702,5.0702,5.0702,5.0702,5.0702,5.0702,5.0702,5.0702,5.0702,5.0702,5.0702,5.0702,5.0702,5.0544,5.0095,4.9252,4.8245,4.7277,4.6457,4.5617,4.5263,4.5586,4.5476,4.5362,4.5362,4.5052,4.4872,4.4872,4.4682,4.4501,4.4318,4.4318,4.4008,4.3394,4.3394,4.3394,2.9978,3.0821,3.1352,3.196,3.3125,3.4218,3.4551,0.0,0.0,0.0,0.0,0.0,0.0,0.0,0.0,0.0,0.0,0.0,0.0,0.0,0.0,0.0,0.0,0.0,5.4291,5.5077,5.5375,5.5034,5.5331,5.5512,5.5512,5.5512,5.5455,5.532,5.4649,5.4572,5.5132,5.5256,5.4664,5.3395,5.3126,5.226,5.0875,5.076,5.0702,5.0702,0.0,0.0,5.0604,5.0544,5.0523,5.0523,5.0523,5.0523,5.0523,5.0523,5.0523,5.0523,5.0523,5.0523,5.0523,5.0523,5.0291,5.0019,5.0019,4.9773,4.9797,5.1136,5.1081,5.0758,5.1449,5.1143,5.0702,5.0702,5.0702,5.0702,5.0702,5.0702,5.0683,5.0624,5.0604,5.0604,5.0544,5.0523,5.0523,5.0523,5.0523,5.0523,5.0523,5.0225,4.9638,4.871,4.7636,4.6617,4.5719,4.5002,4.483,4.5419,4.518,4.5007,4.4924,4.4657,4.4474,4.4419,4.4419,4.428,4.3924,4.3924,4.3772,4.3497,4.3497,4.3497,2.8284,2.9354,3.0861,3.2957,3.3684,3.391,3.4218,0.0,0.0,0.0,0.0,0.0,0.0,0.0,0.0,0.0,0.0,0.0,0.0,0.0,0.0,0.0,0.0,5.3391,5.1533,5.338,5.4659,5.4597,5.464,5.4671,5.4671,5.4671,5.4349,5.3621,5.347,5.3129,5.257,5.323,5.3818,5.428,5.2799,5.1972,5.1702,5.101,5.0702,5.0683,0.0,5.0183,5.0159,4.9827,4.9673,4.9673,4.9673,4.9673,4.9673,4.9673,4.9673,4.9673,4.9673,4.9673,4.9673,4.9673,4.9645,4.9589,4.9589,4.9532,4.957,4.9816,5.0019,5.0221,5.0336,5.0538,5.0702,5.0702,5.0702,5.0702,5.0702,5.0702,5.0604,5.0249,5.0183,5.0068,4.9746,4.9673,4.9673,4.9673,4.9673,4.9673,4.9673,4.9617,4.9003,4.7454,4.7116,4.6391,4.4926,4.4655,4.4631,4.4732,4.4726,4.4508,4.4175,4.4117,4.3974,4.3679,4.3646,4.3631,4.3563,4.3563,4.3548,4.3497,4.3497,4.3497,2.8054,2.9026,3.0307,3.2062,3.2811,3.3148,3.3252,0.0,0.0,0.0,0.0,0.0,0.0,0.0,0.0,0.0,0.0,0.0,0.0,0.0,0.0,0.0,0.0,5.2435,5.2379,5.3644,5.4199,5.3515,5.411,5.4088,5.3194,5.3541,5.3421,5.2572,5.2137,5.193,5.1997,5.1475,5.165,5.2488,5.1688,5.1078,5.0577,5.0215,5.0043,5.0043,0.0,4.9773,4.9773,4.958,4.9504,4.9504,4.9504,4.9504,4.9504,4.9504,4.9504,4.9504,4.9504,4.9504,4.9504,4.9504,4.9356,4.9171,4.9171,4.9029,4.8847,4.8847,4.9295,4.9773,4.9773,4.9924,5.0043,5.0043,5.0043,5.0043,5.0043,5.0043,5.0019,4.98,4.9773,4.9719,4.9532,4.9504,4.9504,4.9504,4.9504,4.9504,4.9504,4.9326,4.8703,4.7503,4.6794,4.5927,4.4736,4.4265,4.4095,4.4261,4.428,4.4106,4.374,4.3726,4.3646,4.3479,4.3497,4.3497,4.3497,4.3497,4.3497,4.3497,4.3497,4.3497,2.7837,2.8625,2.9401,3.0339,3.1538,3.257,3.2714,0.0,0.0,0.0,0.0,0.0,0.0,0.0,0.0,0.0,0.0,0.0,0.0,0.0,0.0,0.0,5.0525,5.1772,5.2977,5.3603,5.3431,5.2289,5.3061,5.3061,5.1799,5.2292,5.2254,5.1442,5.0842,5.0729,5.1123,4.9853,4.9758,5.0797,5.0589,5.0145,4.9504,4.9504,4.9504,4.9475,4.9386,4.9356,4.9356,4.9265,4.9202,4.9202,4.9202,4.9202,4.9202,4.9202,4.9202,4.9202,4.9202,4.9202,4.9202,4.9202,4.9029,4.8744,4.8744,4.8532,4.8306,4.8306,4.8763,4.9234,4.9326,4.9416,4.9504,4.9504,4.9504,4.9504,4.9504,4.9504,4.9475,4.9386,4.9356,4.9326,4.9252,4.9202,4.9202,4.9202,4.9202,4.9202,4.9202,4.8963,4.8428,4.763,4.6725,4.5792,4.4782,4.3956,4.3631,4.3881,4.3881,4.3772,4.3513,4.3497,4.3497,4.3497,4.3497,4.3497,4.3497,4.3375,4.3321,4.3286,4.316,4.3105,2.6826,2.7351,2.7944,2.803,3.0299,0.0,3.3368,3.3527,0.0,0.0,0.0,0.0,0.0,0.0,0.0,0.0,0.0,0.0,0.0,0.0,0.0,4.9556,5.1639,5.2481,5.1136,5.1709,5.1842,5.1011,5.0993,5.1014,5.0885,5.094,5.0591,4.9781,4.9708,4.9321,4.8567,4.8457,4.9206,5.0797,4.9975,4.956,4.9504,4.9504,4.9504,4.9475,4.9108,4.8963,4.893,4.855,4.8402,4.8402,4.8402,4.8402,4.8402,4.8402,4.8402,4.8402,4.8402,4.8402,4.8402,4.8402,4.8364,4.8326,4.8326,4.8344,4.8306,4.8306,4.8326,4.8495,4.8847,4.9234,4.9504,4.9504,4.9504,4.9504,4.9504,4.9504,4.9386,4.9029,4.8963,4.8829,4.8458,4.8402,4.8402,4.8402,4.8402,4.8402,4.8402,4.8364,4.8014,4.7224,4.7058,4.6397,4.4837,4.3956,4.3513,4.3548,4.3548,4.3513,4.3497,4.3497,4.3497,4.3497,4.3497,4.3497,4.3497,4.3014,4.275,4.2732,4.2203,4.1919,2.6624,2.7075,2.7668,2.8373,2.9841,0.0,0.0,0.0,0.0,0.0,0.0,0.0,0.0,0.0,0.0,0.0,0.0,0.0,0.0,0.0,4.8493,4.8407,4.9685,5.0434,5.0185,5.0446,5.049,5.0105,5.0508,5.0362,4.9297,4.9756,4.9664,4.882,4.8783,4.8636,4.8306,4.8306,4.8366,4.8519,4.867,4.8763,4.8763,4.8763,4.8763,4.8763,4.8604,4.8513,4.8477,4.7831,4.7865,4.8306,4.8306,4.8306,4.8306,4.8306,4.8306,4.8306,4.8306,4.8306,4.8306,4.8306,4.8306,4.8306,4.8306,4.8306,4.8306,4.8306,4.8306,4.8344,4.8477,4.864,4.8763,4.8763,4.8763,4.8763,4.8763,4.8763,4.8692,4.8586,4.8513,4.8495,4.8344,4.8306,4.8306,4.8306,4.8306,4.8306,4.8306,4.8306,4.7994,4.7205,4.5915,4.4667,4.3559,4.2838,4.2426,4.2426,4.279,4.3014,4.3014,4.2657,4.2426,4.2426,4.2426,4.2426,4.2426,4.2244,4.2121,4.2121,4.1895,4.181,2.6123,2.6557,2.7104,0.0,0.0,0.0,0.0,0.0,0.0,0.0,0.0,0.0,0.0,0.0,0.0,0.0,0.0,0.0,0.0,4.6829,4.7333,4.7298,4.8263,4.8834,4.8757,4.9,4.891,4.8302,4.8974,4.8829,4.7429,4.8156,4.8338,4.7715,4.7484,4.7357,4.7357,4.712,4.6721,4.6194,4.6739,4.7317,4.7921,4.7664,4.7682,4.7921,4.7664,4.7553,4.7498,4.6966,4.7205,4.7921,4.7921,4.8086,4.8231,4.7801,4.7816,4.8035,4.8035,4.7879,4.7779,4.8172,4.8172,4.8035,4.8249,4.8172,4.8035,4.8035,4.7879,4.7697,4.7697,4.7977,4.8306,4.8306,4.8306,4.8306,4.8306,4.8306,4.8306,4.8306,4.8306,4.8306,4.8306,4.8306,4.8306,4.8306,4.8306,4.821,4.8035,4.8035,4.7718,4.6953,4.5124,4.384,4.3512,4.2661,4.2271,4.2475,4.2494,4.2489,4.24,4.2021,4.181,4.181,4.181,4.181,4.181,4.1621,4.1534,4.149,4.1331,4.1241,2.5221,2.5594,0.0,0.0,0.0,0.0,0.0,0.0,0.0,0.0,0.0,0.0,0.0,0.0,0.0,0.0,0.0,0.0,4.5304,4.6187,4.662,4.6424,4.786,4.8196,4.6525,4.7156,4.7027,4.5414,4.597,4.6076,4.5326,4.5988,4.6365,4.6365,4.5652,4.529,4.529,4.4573,4.4201,4.4201,4.4201,4.5192,4.7039,4.6269,4.6305,4.702,4.625,4.5902,4.5902,4.5902,4.6379,4.7057,4.7057,4.7552,4.8101,4.6703,4.6717,4.7385,4.7385,4.6955,4.6618,4.7879,4.7897,4.7512,4.8114,4.7838,4.7385,4.7385,4.691,4.6383,4.6383,4.7324,4.8267,4.8267,4.8267,4.8267,4.8267,4.8267,4.8267,4.8267,4.8267,4.8267,4.8267,4.8267,4.8267,4.8267,4.8267,4.8075,4.7488,4.7367,4.7114,4.646,4.5014,4.4367,4.511,4.3784,4.3191,4.3923,4.28,4.2004,4.1803,4.181,4.1793,4.1793,4.1793,4.1793,4.1768,4.1161,4.0903,4.0856,4.0319,4.007,2.5688,2.5811,0.0,0.0,0.0,0.0,0.0,0.0,0.0,0.0,0.0,0.0,0.0,0.0,0.0,0.0,0.0,0.0,4.4681,4.5039,4.52,4.5159,4.5591,4.582,4.5784,4.5992,4.5912,4.5333,4.5521,4.5308,4.4591,4.4723,4.4847,4.4847,4.4617,4.4556,4.4556,4.4325,4.3935,4.3341,4.3341,4.3967,4.5036,4.4803,4.4821,4.5036,4.4803,4.4962,4.5337,4.5337,4.5137,4.488,4.5024,4.552,4.6122,4.5713,4.6051,4.671,4.671,4.6571,4.6478,4.6847,4.6847,4.671,4.6892,4.6847,4.671,4.671,4.6571,4.6383,4.6383,4.6664,4.6937,4.6937,4.6937,4.6937,4.6937,4.6937,4.6937,4.6937,4.6937,4.6937,4.6937,4.6937,4.6937,4.6937,4.6937,4.6892,4.671,4.5748,4.4983,4.4802,4.3524,4.2753,4.2979,4.2696,4.2551,4.2774,4.2467,4.214,4.2039,4.1125,4.0594,4.0594,4.0594,4.0594,4.0594,4.0417,4.0336,4.0319,4.0154,4.007,2.5377,0.0,0.0,0.0,0.0,0.0,0.0,0.0,0.0,0.0,0.0,0.0,0.0,0.0,0.0,0.0,0.0,4.2286,4.3504,4.3927,4.3995,4.3707,4.3927,4.4126,4.425,4.4215,4.4078,4.368,4.3938,4.3781,4.3032,4.3276,4.3432,4.3432,4.3136,4.2997,4.2997,4.273,4.2347,4.183,4.183,4.2073,4.2573,4.3014,4.3412,4.3722,4.3377,4.3469,4.3799,4.4145,4.396,4.3542,4.3693,4.4219,4.4812,4.4254,4.453,4.515,4.515,4.5005,4.4841,4.537,4.5582,4.5638,4.5906,4.5993,4.6046,4.6046,4.5638,4.5212,4.5212,4.5212,4.5361,4.5859,4.62,4.6342,4.6023,4.62,4.6383,4.6383,4.6383,4.6383,4.6383,4.6383,4.6383,4.6383,4.6192,4.6046,4.6046,4.5012,4.4202,4.3889,4.2819,4.2207,4.2207,4.1954,4.2117,4.2709,4.2455,4.2377,4.262,4.1274,4.0392,4.0087,4.007,4.007,4.007,4.007,4.007,4.007,4.007,4.007,0.0,0.0,0.0,0.0,0.0,0.0,0.0,0.0,0.0,0.0,0.0,0.0,0.0,0.0,0.0,0.0,4.0644,4.1353,4.2078,4.277,4.2939,4.2264,4.2787,4.2976,4.2354,4.2286,4.1982,4.1271,4.1813,4.188,4.1136,4.166,4.1999,4.1999,4.1288,4.0899,4.0899,4.0223,3.9884,3.9884,3.9884,3.9884,3.9935,4.1098,4.2053,4.2714,4.2008,4.1707,4.176,4.251,4.2793,4.2793,4.275,4.3226,4.3754,4.2502,4.2504,4.3192,4.3192,4.2809,4.2481,4.367,4.4095,4.4297,4.4876,4.5096,4.52,4.52,4.428,4.3318,4.3318,4.3318,4.3591,4.4734,4.567,4.6046,4.537,4.5776,4.624,4.624,4.624,4.624,4.624,4.624,4.624,4.624,4.5783,4.5407,4.5407,4.4892,4.4198,4.3504,4.2811,4.2371,4.2233,4.169,4.1873,4.3098,4.2593,4.2526,4.3149,4.1873,4.083,4.0138,4.0002,3.9969,3.9901,3.9901,3.9935,4.0002,4.0002,4.0002,0.0,0.0,0.0,0.0,0.0,0.0,0.0,0.0,0.0,0.0,0.0,0.0,0.0,0.0,0.0,3.9863,4.0221,4.0569,4.1316,4.1564,4.1598,4.1448,4.1564,4.1822,4.225,4.2286,4.1982,4.1271,4.1356,4.1102,4.0358,3.9935,3.9698,3.9698,3.8988,3.8616,3.8616,3.8447,3.8379,3.8379,3.8379,3.8379,3.8413,3.9808,4.0551,4.0737,4.099,4.1087,4.1105,4.1261,4.1377,4.1331,4.0865,4.1167,4.1834,4.1495,4.1852,4.2533,4.2533,4.2428,4.2339,4.262,4.2722,4.2771,4.2894,4.2961,4.301,4.301,4.2749,4.254,4.254,4.254,4.263,4.2894,4.3989,4.4947,4.4793,4.4895,4.4998,4.4998,4.4998,4.4998,4.4998,4.4998,4.4998,4.4998,4.4869,4.4814,4.4814,4.4139,4.3606,4.3436,4.3267,4.2694,4.1538,4.227,4.2482,4.1573,4.1886,4.1873,4.1484,4.1156,4.0763,4.0105,3.9446,3.8829,3.8262,3.8262,3.8553,3.9104,3.9104,3.9104,0.0,0.0,0.0,0.0,0.0,0.0,0.0,0.0,0.0,0.0,0.0,0.0,0.0,0.0,3.7576,3.8398,3.8225,3.8388,3.9406,3.9609,3.9609,3.9568,3.9845,3.9969,3.9709,3.9643,3.94,3.8689,3.8623,3.8457,3.8077,3.7661,3.7446,3.7446,3.71,3.6901,3.6901,3.6901,3.6901,3.6901,3.722,3.7549,3.7939,3.9056,3.9546,3.9613,3.9887,3.9808,3.9517,3.986,4.0014,4.0001,4.0068,4.0307,4.0663,4.0663,4.0916,4.1238,4.1238,4.1238,4.1238,4.1238,4.1474,4.1762,4.1762,4.2016,4.2286,4.2286,4.2049,4.1709,4.1355,4.1481,4.1566,4.1253,4.2618,4.4028,4.4028,4.4316,4.4587,4.4587,4.4587,4.4587,4.4587,4.4253,4.4006,4.4006,4.3604,4.335,4.335,4.3003,4.2565,4.2235,4.2186,4.1714,4.0642,4.0891,4.1067,4.0942,4.0974,4.1117,4.139,4.0766,4.0068,3.9462,3.9039,3.8467,3.7822,3.8099,3.8451,3.8818,3.9154,3.9297,0.0,0.0,0.0,0.0,0.0,0.0,0.0,0.0,0.0,0.0,0.0,0.0,0.0,0.0,3.626,3.643,3.5951,3.6031,3.7265,3.7403,3.7371,3.7441,3.7855,3.778,3.671,3.6653,3.6412,3.5819,3.5786,3.5786,3.5786,3.5674,3.561,3.561,3.5498,3.5417,3.5417,3.5417,3.5417,3.5433,3.5997,3.6621,3.7349,3.8002,3.8453,3.8802,3.8687,3.8284,3.7778,3.827,3.8589,3.8874,3.9228,3.9564,3.9885,3.9648,3.9613,3.9679,3.9679,3.9679,3.9679,3.9679,4.0098,4.0601,4.0601,4.102,4.1543,4.1543,4.1054,4.0478,3.9847,4.005,4.0335,3.9842,4.1189,4.268,4.2931,4.3484,4.3994,4.3994,4.4095,4.4121,4.4121,4.3545,4.3075,4.2944,4.2377,4.1949,4.1821,4.1917,4.1773,4.115,4.1087,4.0736,3.9833,3.9356,3.9485,4.0403,4.0087,4.0277,4.1322,4.0162,3.9163,3.8412,3.8381,3.8112,3.7603,3.8112,3.8507,3.8744,3.9329,3.9535,0.0,0.0,0.0,0.0,0.0,0.0,0.0,0.0,0.0,0.0,0.0,0.0,0.0,3.3895,3.4181,3.4872,3.4909,3.5112,3.5801,3.5428,3.533,3.5833,3.549,3.5461,3.5892,3.5915,3.5883,3.5803,3.5786,3.5786,3.5786,3.5171,3.4851,3.4851,3.4242,3.3906,3.3906,3.3906,3.3906,3.3906,3.3957,3.4398,3.5114,3.5211,3.6288,3.7993,3.7386,3.7052,3.6919,3.6434,3.6963,3.8011,3.6824,3.7469,3.8896,3.7698,3.76,3.8108,3.8108,3.8108,3.8108,3.8108,3.8157,3.8237,3.8237,3.8302,3.8382,3.8382,3.8318,3.8237,3.8123,3.8187,3.8354,3.8889,3.9291,3.9812,4.1055,4.1394,4.1459,4.1459,4.1959,4.2316,4.2316,4.2252,4.198,4.1369,4.1677,4.1773,4.1228,4.1613,4.1965,4.1869,4.1853,4.1246,3.9854,4.0177,3.9982,3.881,3.9194,3.9285,3.8931,3.8687,3.8039,3.6808,3.6778,3.6733,3.6642,3.6733,3.7352,3.8454,3.8545,3.8575,0.0,0.0,0.0,0.0,0.0,0.0,0.0,0.0,0.0,0.0,0.0,0.0,3.2347,3.2706,3.3066,3.3393,3.3133,3.3254,3.4273,3.3862,3.3695,3.4349,3.4182,3.4025,3.3959,3.397,3.3816,3.3429,3.3398,3.3398,3.3398,3.3064,3.2909,3.2909,3.2616,3.2407,3.2407,3.2407,3.2625,3.3039,3.3039,3.3409,3.4062,3.4062,3.481,3.6089,3.575,3.5402,3.4994,3.5138,3.5561,3.6133,3.5862,3.6561,3.7653,3.6998,3.7238,3.7822,3.7822,3.7822,3.7822,3.7822,3.7822,3.7822,3.7822,3.7822,3.7822,3.7822,3.7822,3.7706,3.7263,3.7382,3.7698,3.7591,3.782,3.8145,3.8392,3.9519,4.0523,4.0924,4.126,4.1533,4.1933,4.1609,4.1044,4.0352,4.0115,3.9874,3.9581,3.9797,4.0137,4.047,4.0516,4.027,3.958,3.9458,3.9249,3.896,3.8886,3.8706,3.8407,3.8033,3.7584,3.7015,3.7,3.6836,3.6492,3.721,3.7838,3.8407,3.8796,3.896,0.0,0.0,0.0,0.0,0.0,0.0,0.0,0.0,0.0,0.0,0.0,0.0,3.1482,3.1943,3.2273,3.2273,3.1854,3.1943,3.308,3.2677,3.2512,3.317,3.3095,3.2811,3.2317,3.2273,3.2063,3.1511,3.1482,3.1482,3.1482,3.1482,3.1482,3.1482,3.1482,3.1482,3.1482,3.1482,3.1796,3.2327,3.2327,3.2571,3.3077,3.3077,3.336,3.3918,3.4064,3.3868,3.3371,3.3751,3.4121,3.4473,3.4643,3.5364,3.6238,3.6011,3.6411,3.6999,3.7188,3.7251,3.7251,3.7251,3.7251,3.7251,3.7251,3.7251,3.7251,3.7251,3.7251,3.7055,3.6461,3.6706,3.6914,3.634,3.6582,3.6851,3.6552,3.788,3.9281,3.9755,3.9992,4.0212,4.0732,4.0298,3.9625,3.9016,3.8485,3.8078,3.7928,3.8048,3.8392,3.908,3.9155,3.923,3.9409,3.8945,3.8871,3.9394,3.8701,3.8112,3.7771,3.7057,3.6579,3.6417,3.6564,3.6744,3.6971,3.7928,3.8326,3.8275,3.8779,3.8855,0.0,0.0,0.0,0.0,0.0,0.0,0.0,0.0,0.0,0.0,0.0,3.1482,3.1482,3.1497,3.1526,3.1526,3.1497,3.1779,3.2467,3.2003,3.1824,3.2482,3.2018,3.1556,3.1584,3.1526,3.1511,3.1482,3.1482,3.1482,3.1482,3.1482,3.1482,3.1482,3.1482,3.1482,3.1482,3.1482,3.1524,3.1582,3.1582,3.1582,3.164,3.164,3.1655,3.1685,3.2428,3.2672,3.2586,3.194,3.2475,3.3628,3.2228,3.2962,3.4752,3.394,3.4072,3.4733,3.5394,3.5619,3.5619,3.5619,3.5619,3.5619,3.5619,3.5619,3.5619,3.5619,3.5619,3.5619,3.5569,3.5584,3.5614,3.5549,3.5579,3.5759,3.6357,3.6573,3.667,3.67,3.7181,3.7601,3.7631,3.7563,3.7368,3.6738,3.7075,3.7255,3.6656,3.7105,3.7719,3.8377,3.8437,3.8706,3.9364,3.9394,3.9379,3.9424,3.8428,3.7313,3.6158,3.5085,3.4275,3.3633,3.4247,3.5795,3.8287,3.8362,3.8176,3.7861,3.789,3.7343,0.0,0.0,0.0,0.0,0.0,0.0,0.0,0.0,0.0,0.0,0.0,3.0718,3.0718,3.1161,3.1482,3.1482,3.1482,3.1556,3.1795,3.1616,3.1556,3.1854,3.1616,3.1482,3.1482,3.1482,3.1482,3.1482,3.1482,3.1482,3.1482,3.1482,3.1482,3.1482,3.1482,3.1482,3.1482,3.1482,3.1482,3.1482,3.1482,3.1482,3.1482,3.1482,3.1482,3.1524,3.1796,3.1894,3.1853,3.1582,3.1832,3.2228,3.173,3.2238,3.3258,3.2976,3.3275,3.3888,3.4128,3.4487,3.4846,3.4846,3.5145,3.5504,3.5504,3.5504,3.5504,3.5504,3.5504,3.5504,3.5504,3.4986,3.4394,3.3754,3.3616,3.3673,3.397,3.4976,3.5983,3.6402,3.6671,3.6941,3.7345,3.7404,3.721,3.6582,3.6671,3.6731,3.6507,3.6138,3.6131,3.6775,3.6331,3.6068,3.6296,3.6325,3.6325,3.6325,3.5939,3.5395,3.4522,3.4116,3.3799,3.3505,3.3785,3.4692,3.6404,3.6479,3.6382,3.6276,3.5897,3.5759,2.4063,0.0,0.0,0.0,0.0,0.0,0.0,0.0,0.0,0.0,2.9364,2.9889,2.9889,3.0329,3.0837,3.1409,3.1482,3.1482,3.1482,3.1482,3.1482,3.1482,3.1482,3.1482,3.1482,3.1482,3.1482,3.1482,3.1482,0.0,3.1482,3.1482,3.1482,3.1482,3.1482,3.1482,3.1482,3.1482,3.1482,3.1482,3.1482,3.1482,3.1482,3.1482,3.1482,3.1482,3.1482,3.1482,3.1482,3.1482,3.1482,3.1482,3.1482,3.1735,3.2213,3.2437,3.2796,3.32,3.3425,3.3784,3.4188,3.4412,3.4579,3.472,3.4927,3.4773,3.4558,3.4558,3.4558,3.4558,3.4558,3.4041,3.338,3.2749,3.2593,3.2593,3.2593,3.3616,3.4689,3.5098,3.5185,3.5317,3.5726,3.5784,3.5653,3.5244,3.5185,3.5185,3.5185,3.4591,3.4455,3.5139,3.4643,3.4372,3.458,3.4594,3.4594,3.4594,3.4218,3.3793,3.3178,3.2779,3.2568,3.2568,3.2568,3.3051,3.3965,3.4744,3.5071,3.4862,3.4467,3.4448,0.0,0.0,0.0,0.0,0.0,0.0,0.0,0.0,0.0,0.0,2.8588,2.8939,2.8939,2.8939,2.9504,3.1161,3.1409,3.1409,3.1409,3.1409,3.1409,3.1409,3.1409,3.1409,3.1409,3.1409,3.1409,3.1467,3.1409,3.1409,3.1467,3.1409,3.1409,3.1409,3.1467,3.1467,3.1467,3.1482,3.1482,3.1467,3.1467,3.1467,3.1409,3.1409,3.1409,3.1409,3.1409,3.1409,3.1409,3.1467,3.1482,3.1482,3.1482,3.1482,3.1541,3.2184,3.2422,3.2512,3.3154,3.3378,3.3498,3.414,3.3759,3.3154,3.3743,3.3282,3.2579,3.2593,3.2593,3.2593,3.2593,3.2522,3.2522,3.2522,3.2536,3.2536,3.2536,3.2536,3.2522,3.2593,3.2593,3.2593,3.2593,3.2593,3.2593,3.2593,3.2593,3.2593,3.2593,3.2593,3.2828,3.3481,3.3463,3.3726,3.4422,3.4477,3.4477,3.4477,3.349,3.2645,3.2154,3.111,3.0595,3.062,3.062,3.0871,3.1386,3.3453,3.4199,3.374,3.3753,3.3537,2.3251,0.0,0.0,0.0,0.0,0.0,0.0,0.0,0.0,0.0,2.7565,2.8051,2.8051,2.8051,2.8427,2.9504,2.969,2.969,2.969,2.969,2.969,2.969,2.969,2.969,2.969,2.969,2.995,0.0,3.0072,2.995,3.0584,3.0011,2.969,2.969,3.0329,3.0644,3.0644,3.1219,3.1219,3.0644,3.0644,3.0329,2.969,2.969,2.969,2.969,2.969,2.969,2.9766,3.1029,3.1482,3.1482,3.1482,3.1161,3.0673,3.0848,3.0528,2.9973,3.0205,3.0559,3.1034,3.1204,3.1364,3.1643,3.226,3.2236,3.2111,3.2469,3.2593,3.2464,3.1742,3.1609,3.1402,3.0709,3.057,3.057,3.057,3.057,3.0996,3.2321,3.2593,3.2593,3.2593,3.2593,3.2593,3.2593,3.2593,3.2593,3.2593,3.2033,3.1663,3.1823,3.1294,3.0944,3.1099,3.1125,3.1125,3.1125,3.083,3.0611,3.0458,3.0161,3.0206,3.0608,3.062,3.0871,3.1386,3.2008,3.2233,3.209,3.2485,3.2084,2.305,2.3424,0.0,0.0,0.0,0.0,2.414,2.5185,2.6143,0.0,2.6518,2.7229,2.7229,2.7229,2.7351,2.7855,2.7986,2.8182,2.8876,2.9002,2.9002,2.9002,2.9002,2.9002,2.9002,2.9002,2.9192,2.969,2.9317,2.9192,2.9752,2.9254,2.9002,2.9002,2.9504,2.9766,2.9766,3.0208,3.0208,2.9766,2.9766,2.9504,2.9002,2.9002,2.9002,2.9002,2.9002,2.9002,2.9066,3.0072,3.045,3.045,3.045,3.0147,2.9766,2.9766,2.9442,2.9002,2.9002,2.9223,2.9633,2.9882,3.0003,3.0052,3.0664,3.0575,3.0304,3.0637,3.0916,3.1023,3.0706,3.0633,3.0482,2.9934,2.9792,2.9792,2.9792,2.9792,3.0139,3.1193,3.1415,3.1415,3.1415,3.1415,3.1415,3.1415,3.1415,3.1415,3.1415,3.0983,3.0633,3.0633,3.0139,2.9792,2.9792,2.9792,2.9792,2.9792,3.0005,3.0131,3.0131,2.9843,2.9849,3.0168,2.9651,2.9642,3.0241,3.098,3.1253,3.0952,3.1051,3.0671,2.3153,2.3226,0.0,0.0,0.0,0.0,2.3328,2.418,2.4921,0.0,2.5774,2.6533,2.6533,2.6533,2.6533,2.6533,2.6533,2.704,2.8492,2.8748,2.8748,2.8748,2.8748,2.8748,2.8748,2.8748,2.8748,2.8876,2.8876,2.8812,2.8748,2.8748,2.8748,2.8748,2.8812,2.8876,2.8876,2.8939,2.8939,2.8876,2.8876,2.8812,2.8748,2.8748,2.8748,2.8748,2.8748,2.8748,2.8748,2.8748,2.8812,2.9002,2.9002,2.8939,2.8876,2.8876,2.8812,2.8748,2.8748,2.8748,2.883,2.9429,2.9,2.8376,2.9048,2.8692,2.8021,2.8084,2.8461,2.895,2.9465,2.9603,2.9628,2.9679,2.9691,2.9716,2.9779,2.9792,2.9792,2.9792,2.9792,2.9792,2.9792,2.9792,2.9792,2.9624,2.9702,2.9792,2.9624,2.9624,2.9624,2.9624,2.9534,2.9481,2.9465,2.9465,2.9489,2.9551,3.001,3.0282,3.0282,2.969,2.9423,2.9482,2.84,2.8121,2.8668,3.0265,3.0796,3.0272,2.9647,2.9315,0.0,0.0,0.0,0.0,0.0,0.0,2.5021,2.5285,2.5573,0.0,2.6382,2.6533,2.6533,2.6533,2.6533,2.6533,2.6533,2.6589,2.6905,2.6973,2.6973,2.6973,2.6973,2.6973,2.6973,2.6973,2.7297,2.792,2.792,2.767,2.704,2.6973,2.6973,2.6973,2.7604,2.792,2.792,2.862,2.862,2.792,2.792,2.7604,2.6973,2.6973,2.6973,2.6973,2.6973,2.6973,2.6973,2.6973,2.7802,2.9002,2.9002,2.8556,2.792,2.792,2.7537,2.6973,2.6973,2.6973,2.6985,2.7169,2.7071,2.698,2.7538,2.7574,2.7544,2.7984,2.8185,2.8298,2.8411,2.8436,2.8549,2.8988,2.9101,2.9227,2.9691,2.9792,2.9792,2.9792,2.9792,2.9792,2.9792,2.9792,2.9456,2.8597,2.9197,2.9456,2.8518,2.8426,2.8426,2.8426,2.7626,2.73,2.7618,2.7641,2.7729,2.8117,2.8231,2.83,2.83,2.8121,2.8282,2.8788,2.9004,2.916,2.9261,2.9215,2.9315,2.9625,2.9454,2.8866,0.0,0.0,0.0,2.4757,0.0,0.0,0.0,2.541,2.5686,2.5963,2.6264,2.6533,2.6533,2.6533,2.6533,2.6533,2.6533,2.6533,2.6533,2.6533,2.6533,2.6533,2.6533,2.6533,2.6533,2.6533,2.6658,2.7095,2.7095,2.6905,2.6521,2.6533,2.6533,2.6533,2.6905,2.7095,2.7095,2.755,2.755,2.7095,2.7095,2.6905,2.6533,2.6533,2.6533,2.6533,2.6533,2.6533,2.6533,2.6533,2.6973,2.7736,2.7736,2.7484,2.7095,2.7095,2.685,2.6533,2.6533,2.6533,2.6533,2.6533,2.6533,2.6584,2.6791,2.6866,2.6979,2.7544,2.7695,2.7758,2.8034,2.8109,2.8013,2.7803,2.7922,2.8037,2.7837,2.8032,2.8131,2.8131,2.8131,2.8462,2.9624,2.9365,2.8767,2.8176,2.8119,2.7959,2.7371,2.7279,2.7279,2.7279,2.6801,2.6573,2.6819,2.697,2.7216,2.7364,2.7843,2.811,2.811,2.7818,2.7522,2.7128,2.7463,2.7579,2.7579,2.7254,2.7617,2.8495,2.7851,2.721,0.0,0.0,0.0,0.0,0.0,2.5146,0.0,0.0,0.0,2.5762,2.6138,0.0,0.0,0.0,0.0,0.0,0.0,0.0,0.0,2.6533,0.0,2.6533,2.6533,2.6533,2.6533,2.6533,2.6533,2.6533,2.6533,2.6533,2.6533,2.6533,2.6533,2.6533,2.6533,2.6533,2.6533,2.6533,2.6533,2.6533,2.6533,2.6533,2.6533,2.6533,2.6533,2.6533,2.6533,2.6533,2.6533,2.6533,2.6533,2.6533,2.6533,2.6533,2.6533,2.6533,2.6533,2.6533,2.6533,2.6533,2.6533,2.6533,2.6533,2.6533,2.6533,2.6533,2.6622,2.7005,2.713,2.7218,2.7441,2.7481,2.7299,2.6479,2.6618,2.6671,2.6074,2.6192,2.6483,2.6483,2.6483,2.7058,2.8882,2.8359,2.7683,2.751,2.6871,2.6389,2.6224,2.6141,2.6141,2.6141,2.5975,2.5852,2.5939,2.6376,2.6606,2.6693,2.7521,2.8,2.8,2.7473,2.6754,2.5742,2.5742,2.5742,2.5742,2.5742,2.6197,2.722,2.6197,2.5742,0.0,0.0,0.0,0.0,2.6345,0.0,0.0,0.0,2.6433,2.6433,0.0,0.0,0.0,0.0,0.0,0.0,0.0,0.0,2.6533,2.6533,2.6533,2.6533,2.6533,2.6533,2.6533,2.6533,2.6533,2.6533,2.6533,2.6533,2.6533,2.6533,2.6533,2.6533,2.6533,2.6533,2.6533,2.6533,2.6533,2.6533,2.6533,2.6533,2.6533,2.6533,2.6533,2.6533,2.6533,2.6533,2.6533,2.6533,2.6533,2.6533,2.6533,2.6533,2.6533,2.6533,2.6533,2.6533,2.6533,2.6533,2.6533,2.6533,2.6533,2.6533,2.6533,2.6533,2.6546,2.6596,2.6622,2.6414,2.5539,2.5326,2.5336,2.5176,2.5194,2.5475,2.6285,2.6438,2.6483,2.6483,2.6483,2.6554,2.6812,2.6812,2.6307,2.5368,2.5964,2.6141,2.5126,2.4957,2.4957,2.4957,2.4049,2.3632,2.4118,2.4445,2.4861,2.5258,2.5754,2.6031,2.6031,2.5994,2.583,2.5742,2.5742,2.5742,2.5742,2.5742,2.5732,2.5917,2.5732,2.5742,0.0,0.0,0.0,0.0,0.0,0.0,2.6533,0.0,2.6533,0.0,0.0,0.0,0.0,0.0,0.0,0.0,2.6533,0.0,0.0,0.0,2.6533,0.0,0.0,0.0,2.6533,2.6533,2.6533,2.6533,2.6533,2.6533,2.6533,2.6533,2.6533,2.6533,2.6533,2.6533,2.6533,2.6533,2.6533,2.6533,2.6533,2.6533,2.6533,2.6533,2.6533,2.6533,2.6533,2.6533,2.6533,2.6533,2.6533,2.6533,2.6533,2.6533,2.6533,2.6533,2.6533,2.6533,2.6533,2.6533,2.6383,2.5804,2.5664,2.5511,2.4921,2.4767,2.4767,2.4767,2.4767,2.4696,2.4264,2.412,2.3993,2.3427,2.3641,2.3998,2.3865,2.42,2.4563,2.4563,2.4563,2.4563,2.4563,2.5052,2.5378,2.4872,2.4628,2.4392,2.3887,2.38,2.38,2.38,2.3387,2.3213,2.3398,2.3809,2.4238,2.4668,2.5352,2.5742,2.5742,2.5742,2.5742,2.5742,2.5742,2.5742,2.5742,2.5742,2.5742,2.5742,2.5742,2.5742,2.6533,0.0,0.0,0.0,0.0,0.0,0.0,0.0,0.0,0.0,0.0,0.0,0.0,0.0,2.6533,2.6533,0.0,2.6533,0.0,2.6533,0.0,0.0,0.0,0.0,0.0,2.6533,2.6533,2.6533,2.6533,2.6533,2.6533,2.6533,2.6533,2.6533,2.6533,2.6533,2.6533,2.6533,2.6533,2.6533,2.6533,2.6533,2.6533,2.6533,2.6533,2.6533,2.6533,2.6533,2.6533,2.6533,2.6533,2.6533,2.6533,2.6533,2.6533,2.6533,2.6533,2.6452,2.6164,2.5943,2.5569,2.5158,2.4779,2.448,2.3745,2.3514,2.3514,2.3514,2.3514,2.3441,2.3147,2.3073,2.2883,2.1977,2.2385,2.2747,2.2188,2.2627,2.3135,2.3135,2.3135,2.3135,2.3135,2.38,2.4296,2.4296,2.3637,2.3135,2.3135,2.3135,2.3135,2.3135,2.3135,2.3135,2.3135,2.3545,2.4023,2.456,2.5195,2.5605,2.5732,2.5742,2.5538,2.5128,2.5128,2.502,2.4609,2.4609,2.4609,2.4609,2.5333,2.5528,0.0,0.0,0.0,2.6533,0.0,0.0,0.0,0.0,2.6533,0.0,0.0,0.0,0.0,2.6533,2.6533,2.6533,2.6533,0.0,0.0,0.0,0.0,0.0,0.0,0.0,0.0,2.6533,2.6533,2.6533,2.6533,2.6533,2.6533,2.6533,2.6533,2.6533,2.6533,2.6533,2.6533,2.6533,2.6533,2.6533,2.6533,2.6533,2.6533,2.6533,2.6533,2.6533,2.6533,2.6533,2.6533,2.6533,2.6533,2.6533,2.6533,2.6533,2.6533,2.6533,2.6533,2.6383,2.537,2.4409,2.3745,2.4707,2.4337,2.3514,2.3514,2.3514,2.3514,2.3514,2.3514,2.3294,2.2328,2.2027,2.1925,2.1332,2.1553,2.2075,2.2402,2.2832,2.3135,2.3135,2.3135,2.3135,2.3135,2.3135,2.3135,2.3135,2.3135,2.3135,2.3135,2.3135,2.3135,2.3135,2.3135,2.3135,2.3135,2.3545,2.415,2.499,2.5068,2.5283,2.5723,2.5742,2.5118,2.3791,2.3791,2.3176,2.1853,2.1853,2.1853,2.1853,2.4501,2.502,0.0,0.0,2.6533,2.6533,0.0,0.0,0.0,0.0,0.0,0.0,0.0,0.0,0.0,2.6533,2.6533,2.6533,2.6533,2.6533,0.0,0.0,0.0,0.0,0.0,0.0,0.0,0.0,2.6533,2.6533,2.6533,2.6533,2.6533,2.6533,2.6533,2.6533,2.6533,2.6533,2.6533,2.6533,2.6533,2.6533,2.6533,2.6533,2.6533,2.6533,2.6533,2.6452,2.5804,2.5523,2.5441,2.4767,2.4921,2.5441,2.4767,2.4921,2.5594,2.6233,2.6094,2.537,2.4337,2.3818,2.3452,2.3147,2.2776,2.2403,2.1745,2.1603,2.1603,2.1603,2.1603,2.1527,2.1155,2.1078,2.1121,2.1203,2.1562,2.2002,2.2422,2.2842,2.3135,2.3135,2.3135,2.3135,2.3135,2.3135,2.3135,2.3135,2.3135,2.3135,2.3135,2.3135,2.3135,2.3135,2.3135,2.3135,2.3135,2.3545,2.3659,2.3354,2.3537,2.3463,2.3059,2.3076,2.2868,2.2366,2.2366,2.2156,2.1752,2.1752,2.1752,2.1752,2.2667,2.2767,2.6533,2.6533,0.0,2.6533,2.6533,0.0,2.6533,0.0,2.6533,0.0,0.0,0.0,0.0,2.6533,2.6533,2.6533,2.6533,2.6383,0.0,2.5441,0.0,0.0,0.0,0.0,0.0,0.0,2.5721,2.6465,2.5861,2.5569,2.5943,2.5652,2.5429,2.5429,2.5429,2.5429,2.5429,2.5429,2.5429,2.5429,2.5429,2.5429,2.5429,2.5429,2.5429,2.5429,2.4779,2.4492,2.4409,2.3745,2.3891,2.4409,2.3745,2.3891,2.4564,2.5205,2.4767,2.3891,2.3588,2.3073,2.2414,2.2103,2.1735,2.1375,2.0789,2.0566,2.0625,2.0947,2.081,2.0635,2.0957,2.0801,2.0674,2.1123,2.1562,2.2002,2.2422,2.2842,2.3135,2.3135,2.3135,2.3135,2.3135,2.3135,2.3135,2.3135,2.3135,2.3135,2.3135,2.3135,2.3135,2.3135,2.3135,2.293,2.2631,2.2507,2.2233,2.19,2.2162,2.2073,2.1736,2.1752,2.1448,2.0939,2.0939,2.0735,2.0231,2.0231,2.0231,2.0231,2.0231,2.0231]},{"header":{"parameterUnit":"m.s-1","parameterCategory":1,"la1":30.6,"la2":29.2853,"lo1":-89.7004,"lo2":-87.6739,"dy":0.0162,"dx":0.0183,"nx":112,"ny":82,"refTime":"2023-06-06T06:00:00:Z","depth":0,"parameterNumber":3,"parameterNumberName":"V-component_of_WINDS"},"data":[0.0,0.0,0.0,0.0,0.0,0.0,0.0,0.0,0.0,0.0,0.0,0.0,0.0,0.0,0.0,0.0,0.0,0.0,0.0,0.0,0.0,0.0,0.0,0.0,0.0,0.0,0.0,0.0,0.0,0.0,0.0,0.0,0.0,0.0,0.0,0.0,0.0,0.0,0.0,0.0,0.0,0.0,0.0,0.0,0.0,0.0,0.0,0.0,0.0,0.0,0.0,0.0,0.0,0.0,0.0,0.0,0.0,0.0,0.0,0.0,0.0,0.0,0.0,0.0,0.0,0.0,0.0,0.0,0.0,0.0,0.0,0.0,0.0,0.0,0.0,0.0,0.0,0.0,0.0,0.0,0.0,0.0,0.0,0.0,0.0,0.0,0.0,0.0,0.0,0.0,0.4478,0.5199,0.5989,0.6424,0.6302,0.621,0.623,0.6408,0.0,0.0,0.0,0.0,0.0,0.0,0.0,0.0,0.0,0.0,0.0,0.0,0.0,0.0,0.0,0.0,0.0,0.0,0.0,0.0,0.0,0.0,0.0,0.0,0.0,0.0,0.0,0.0,0.0,0.0,0.0,0.0,0.0,0.0,0.0,0.0,0.0,0.0,0.0,0.0,0.0,0.0,0.0,0.0,0.0,0.0,0.0,0.0,0.0,0.0,0.0,0.0,0.0,0.0,0.0,0.0,0.0,0.0,0.0,0.0,0.0,0.0,0.0,0.0,0.0,0.0,0.0,0.0,0.0,0.0,0.0,0.0,0.0,0.0,0.0,0.0,0.0,0.0,0.0,0.0,0.0,0.0,0.0,0.0,0.0,0.0,0.0,0.0,0.0,0.0,0.0,0.0,0.0,0.0,0.0,0.0,0.0,0.0,0.0,0.0,0.0,0.0,0.0,0.0,0.4806,0.5789,0.624,0.6464,0.6441,0.5979,0.6195,0.7214,0.0,0.0,0.0,0.0,0.0,0.0,0.0,0.0,0.0,0.0,0.0,0.0,0.0,0.0,0.0,0.0,0.0,0.0,0.0,0.0,0.0,0.0,0.0,0.0,0.0,0.0,0.0,0.0,0.0,0.0,0.0,0.0,0.0,0.0,0.0,0.0,0.0,0.0,0.0,0.0,0.0,0.0,0.0,0.0,0.0,0.0,0.0,0.0,0.0,0.0,0.0,0.0,0.0,0.0,0.0,0.0,0.0,0.0,0.0,0.0,0.0,0.0,0.0,0.0,0.0,0.0,0.0,0.0,0.0,0.0,0.0,0.0,0.0,0.0,0.0,0.0,0.0,0.0,0.0,0.0,0.0,0.0,0.0,0.0,0.0,0.0,0.0,0.0,0.0,0.0,0.0,0.0,0.0,0.0,0.0,0.0,0.0,0.0,0.0,0.0,0.0,0.0,0.0,0.4721,0.5226,0.5952,0.6227,0.6325,0.624,0.5762,0.5859,0.677,0.687,0.0,0.0,0.0,0.0,0.0,0.0,0.0,0.0,0.0,0.0,0.0,0.0,0.0,0.0,0.0,0.0,0.0,0.0,0.0,0.0,0.0,0.0,0.0,0.0,0.0,0.0,0.0,0.0,0.0,0.0,0.0,0.0,0.0,0.0,0.0,0.0,0.0,0.0,0.0,0.0,0.0,0.0,0.0,0.0,0.0,0.0,0.0,0.0,0.0,0.0,0.0,0.0,0.0,0.0,0.0,0.0,0.0,0.0,0.0,0.0,0.0,0.0,0.0,0.0,0.0,0.0,0.0,0.0,0.0,0.0,0.0,0.0,0.0,0.0,0.0,0.0,0.0,0.0,0.0,0.0,0.0,0.0,0.0,0.0,0.0,0.0,0.0,0.0,0.0,0.0,0.0,0.0,0.0,0.0,0.0,0.0,0.0,0.0,0.0,0.0,0.0,0.0,0.5199,0.5545,0.603,0.6159,0.6159,0.604,0.5721,0.5834,0.645,0.6721,0.0,0.0,0.0,0.0,0.0,0.0,0.0,0.0,0.0,0.0,0.0,0.0,0.0,0.0,0.0,0.0,0.0,0.0,0.0,0.0,0.0,0.0,0.0,0.0,0.0,0.0,0.0,0.0,0.0,0.0,0.0,0.0,0.0,0.0,0.0,0.0,0.0,0.0,0.0,0.0,0.0,0.0,0.0,0.0,0.0,0.0,0.0,0.0,0.0,0.0,0.0,0.0,0.0,0.0,0.0,0.0,0.0,0.0,0.0,0.0,0.0,0.0,0.0,0.0,0.0,0.0,0.0,0.0,0.0,0.0,0.0,0.0,0.0,0.0,0.0,0.0,0.0,0.0,0.0,0.0,0.0,0.0,0.0,0.0,0.0,0.0,0.0,0.0,0.0,0.0,0.0,0.0,0.0,0.0,0.0,0.0,0.0,0.0,0.0,0.0,0.0,0.0,0.526,0.5658,0.6183,0.6125,0.604,0.603,0.6086,0.6459,0.7202,0.7467,0.0,0.0,0.0,0.0,0.0,0.0,0.0,0.0,0.0,0.0,0.0,0.0,0.0,0.0,0.0,0.0,0.0,0.0,0.0,0.0,0.0,0.0,0.0,0.0,0.0,0.0,0.0,0.0,0.0,0.0,0.0,0.0,0.0,0.0,0.0,0.0,0.0,0.0,0.0,0.0,0.0,0.0,0.0,0.0,0.0,0.0,0.0,0.0,0.0,0.0,0.0,0.0,0.0,0.0,0.0,0.0,0.0,0.0,0.0,0.0,0.0,0.0,0.0,0.0,0.0,0.0,0.0,0.0,0.0,0.0,0.0,0.0,0.0,0.0,0.0,0.0,0.0,0.0,0.0,0.0,0.0,0.0,0.0,0.0,0.0,0.0,0.0,0.0,0.0,0.0,0.0,0.0,0.0,0.0,0.0,0.0,0.0,0.0,0.0,0.0,0.0,0.0,0.5267,0.5555,0.0,0.6064,0.5956,0.5772,0.5723,0.6189,0.7327,0.0,0.0,0.0,0.0,0.0,0.0,0.0,0.0,0.0,0.0,0.0,0.0,0.0,0.0,0.0,0.0,0.0,0.0,0.0,0.0,0.0,0.0,0.0,0.0,0.0,0.0,0.0,0.0,0.0,0.0,0.0,0.0,0.0,0.0,0.0,0.0,0.0,0.0,0.0,0.0,0.0,0.0,0.0,0.0,0.0,0.0,0.0,0.0,0.0,0.0,0.0,0.0,0.0,0.0,0.0,0.0,0.0,0.0,0.0,0.0,0.0,0.0,0.0,0.0,0.0,0.0,0.0,0.0,0.0,0.0,0.0,0.0,0.0,0.0,0.0,0.0,0.0,0.0,0.0,0.0,0.0,0.0,0.0,0.0,0.0,0.0,0.0,0.0,0.0,0.0,0.0,0.0,0.0,0.0,0.0,0.0,0.0,0.0,0.0,0.0,0.0,0.0,0.506,0.5223,0.546,0.0,0.5918,0.5806,0.5606,0.5603,0.6201,0.7451,0.0,0.0,0.0,0.0,0.0,0.0,0.0,0.0,0.0,0.0,0.0,0.0,0.0,0.0,0.0,0.0,0.0,0.0,0.0,0.0,0.0,0.0,0.0,0.0,0.0,0.0,0.0,0.0,0.0,0.0,0.0,0.0,0.0,0.0,0.0,0.0,0.0,0.0,0.0,0.0,0.0,0.0,0.0,0.0,0.0,0.0,0.0,0.0,0.0,0.0,0.0,0.0,0.0,0.0,0.0,0.0,0.0,0.0,0.0,0.0,0.0,0.0,0.0,0.0,0.0,0.0,0.0,0.0,0.0,0.0,0.0,0.0,0.0,0.0,0.0,0.0,0.0,0.0,0.0,0.0,0.0,0.0,0.0,0.0,0.0,0.0,0.0,0.0,0.0,0.0,0.0,0.0,0.0,0.0,0.0,0.0,0.0,0.0,0.0,0.0,0.0,0.0,0.5074,0.5135,0.5308,0.5752,0.5677,0.5593,0.5589,0.5956,0.6567,0.0,0.0,0.0,0.0,0.0,0.0,0.0,0.0,0.0,0.0,0.0,0.0,0.0,0.0,0.0,0.0,0.0,0.0,0.0,0.0,0.0,0.0,0.0,0.0,0.0,0.0,0.0,0.0,0.0,0.0,0.0,0.0,0.0,0.0,0.0,0.0,0.0,0.0,0.0,0.0,0.0,0.0,0.0,0.0,0.0,0.0,0.0,0.0,0.0,0.0,0.0,0.0,0.0,0.0,0.0,0.0,0.0,0.0,0.0,0.0,0.0,0.0,0.0,0.0,0.0,0.0,0.0,0.0,0.0,0.0,0.0,0.0,0.0,0.0,0.0,0.0,0.0,0.0,0.0,0.0,0.0,0.0,0.0,0.0,0.0,0.0,0.0,0.0,0.0,0.0,0.0,0.0,0.0,0.0,0.0,0.0,0.0,0.0,0.0,0.0,0.0,0.0,0.0,0.5087,0.5318,0.5545,0.5776,0.5766,0.5698,0.5599,0.5603,0.5998,0.6892,0.0,0.0,0.0,0.0,0.0,0.0,0.0,0.0,0.0,0.0,0.0,0.0,0.0,0.0,0.0,0.0,0.0,0.0,0.0,0.0,0.0,0.0,0.0,0.0,0.0,0.0,0.0,0.0,0.0,0.0,0.0,0.0,0.0,0.0,0.0,0.0,0.0,0.0,0.0,0.0,0.0,0.0,0.0,0.0,0.0,0.0,0.0,0.0,0.0,0.0,0.0,0.0,0.0,0.0,0.0,0.0,0.0,0.0,0.0,0.0,0.0,0.0,0.0,0.0,0.0,0.0,0.0,0.0,0.0,0.0,0.0,0.0,0.0,0.0,0.0,0.0,0.0,0.0,0.0,0.0,0.0,0.0,0.0,0.0,0.0,0.0,0.0,0.0,0.0,0.0,0.0,0.0,0.0,0.0,0.0,0.0,0.0,0.0,0.0,0.0,0.0,0.0,0.5091,0.5291,0.5484,0.5694,0.5661,0.5593,0.5504,0.5413,0.5752,0.6654,0.0,0.0,0.0,0.0,0.0,0.0,0.0,0.0,0.0,0.0,0.0,0.0,0.0,0.0,0.0,0.0,0.0,0.0,0.0,0.0,0.0,0.0,0.0,0.0,0.0,0.0,0.0,0.0,0.0,0.0,0.0,0.0,0.0,0.0,0.0,0.0,0.0,0.0,0.0,0.0,0.0,0.0,0.0,0.0,0.0,0.0,0.0,0.0,0.0,0.0,0.0,0.0,0.0,0.0,0.0,0.0,0.0,0.0,0.0,0.0,0.0,0.0,0.0,0.0,0.0,0.0,0.0,0.0,0.0,0.0,0.0,0.0,0.0,0.0,0.0,0.0,0.0,0.0,0.0,0.0,0.0,0.0,0.0,0.0,0.0,0.0,0.0,0.0,0.0,0.0,0.0,0.0,0.0,0.0,0.0,0.0,0.0,0.0,0.0,0.0,0.0,0.0,0.5094,0.5169,0.5294,0.5562,0.5477,0.5463,0.5452,0.5435,0.5752,0.6523,0.0,0.0,0.0,0.0,0.0,0.0,0.0,0.0,0.0,0.0,0.0,0.0,0.0,0.0,0.0,0.0,0.0,0.0,0.0,0.0,0.0,0.0,0.0,0.0,0.0,0.0,0.0,0.0,0.0,0.0,0.0,0.0,0.0,0.0,0.0,0.0,0.0,0.0,0.0,0.0,0.0,0.0,0.0,0.0,0.0,0.0,0.0,0.0,0.0,0.0,0.0,0.0,0.0,0.0,0.0,0.0,0.0,0.0,0.0,0.0,0.5084,0.0,0.0,0.0,0.0,0.0,0.0,0.0,0.0,0.0,0.0,0.0,0.0,0.0,0.0,0.0,0.0,0.0,0.0,0.0,0.0,0.0,0.0,0.0,0.0,0.0,0.0,0.0,0.0,0.0,0.0,0.0,0.0,0.0,0.0,0.0,0.0,0.0,0.0,0.0,0.0,0.0,0.5121,0.544,0.564,0.5596,0.5661,0.5661,0.5552,0.543,0.5495,0.5686,0.6334,0.0,0.0,0.0,0.0,0.0,0.0,0.0,0.0,0.0,0.0,0.0,0.0,0.0,0.0,0.0,0.0,0.0,0.0,0.0,0.0,0.0,0.0,0.0,0.0,0.0,0.0,0.0,0.0,0.0,0.0,0.0,0.0,0.0,0.0,0.0,0.0,0.0,0.0,0.0,0.0,0.0,0.0,0.0,0.0,0.0,0.0,0.0,0.0,0.0,0.0,0.0,0.0,0.0,0.0,0.0,0.0,0.0,0.0,0.0,0.0,0.5403,0.0,0.0,0.0,0.0,0.0,0.0,0.0,0.0,0.0,0.0,0.0,0.0,0.0,0.0,0.0,0.0,0.0,0.0,0.0,0.0,0.0,0.0,0.0,0.0,0.0,0.0,0.0,0.0,0.0,0.0,0.0,0.0,0.0,0.0,0.0,0.0,0.0,0.0,0.0,0.0,0.5332,0.5555,0.5725,0.5793,0.58,0.5742,0.5603,0.5515,0.544,0.5432,0.5815,0.0,0.0,0.0,0.0,0.0,0.0,0.0,0.0,0.0,0.0,0.0,0.0,0.0,0.0,0.0,0.0,0.0,0.0,0.0,0.0,0.0,0.0,0.0,0.0,0.0,0.0,0.0,0.0,0.0,0.0,0.0,0.0,0.0,0.0,0.0,0.0,0.0,0.0,0.0,0.0,0.0,0.0,0.0,0.0,0.0,0.0,0.0,0.0,0.0,0.0,0.0,0.0,0.0,0.6034,0.6173,0.6298,0.6325,0.6264,0.609,0.5875,0.5816,0.5828,0.5741,0.0,0.0,0.0,0.0,0.0,0.0,0.0,0.0,0.0,0.0,0.0,0.0,0.0,0.0,0.0,0.0,0.0,0.0,0.0,0.0,0.0,0.0,0.0,0.0,0.0578,0.1088,0.1112,0.0,0.0,0.0,0.0,0.0,0.0,0.0,0.0,0.0,0.0,0.0,0.5555,0.5637,0.5749,0.5966,0.5901,0.5783,0.564,0.5627,0.5572,0.5447,0.544,0.5769,0.0,0.0,0.0,0.0,0.0,0.0,0.0,0.0,0.0,0.0,0.0,0.0,0.0,0.0,0.0,0.0,0.0,0.0,0.0,0.0,0.0,0.0,0.0,0.0,0.0,0.0,0.0,0.0,0.0,0.0,0.0,0.0,0.4667,0.4687,0.0,0.0,0.0,0.0,0.0,0.0,0.0,0.0,0.0,0.0,0.0,0.0,0.0,0.6006,0.6218,0.6162,0.6183,0.6203,0.6346,0.6424,0.6451,0.6583,0.6644,0.6641,0.658,0.0,0.6219,0.6053,0.0,0.0,0.0,0.0,0.0,0.0,0.0,0.0,0.0,0.0,0.0,0.0,0.0,0.0,0.0,0.0,0.0,0.0,0.0,0.0,0.0,0.0,0.0,0.0,0.2784,0.5445,0.0,0.3971,0.2817,0.3311,0.4604,0.0,0.0,0.0,0.0,0.0,0.0,0.0,0.5586,0.5813,0.5935,0.584,0.5932,0.5939,0.5786,0.5772,0.5766,0.5745,0.5742,0.5813,0.588,0.6514,0.0,0.0,0.0,0.0,0.0,0.0,0.0,0.0,0.0,0.0,0.0,0.0,0.0,0.0,0.0,0.0,0.0,0.0,0.0,0.0,0.0,0.0,0.0,0.0,0.0,0.0,0.0,0.0,0.0,0.4721,0.485,0.4928,0.5074,0.5169,0.0,0.0,0.0,0.0,0.0,0.0,0.0,0.0,0.0,0.6054,0.6203,0.6312,0.638,0.6552,0.6675,0.6756,0.6905,0.7021,0.7109,0.7177,0.7207,0.7207,0.7207,0.7135,0.6846,0.6414,0.6084,0.5956,0.0,0.0,0.0,0.0,0.5725,0.5587,0.431,0.2806,0.1817,0.3561,0.0,0.0,0.0,0.0,0.0,0.0,0.0,0.0,0.0,0.0,0.2285,0.211,0.3419,0.5074,0.6301,0.5829,0.5054,0.0,0.5321,0.5817,0.5725,0.0,0.0,0.0,0.0,0.5739,0.5827,0.5949,0.6037,0.6057,0.6118,0.6098,0.5942,0.5928,0.5891,0.5806,0.58,0.58,0.58,0.6158,0.6158,0.0,0.0,0.0,0.0,0.0,0.0,0.0,0.0,0.0,0.0,0.0,0.0,0.0,0.0,0.0,0.0,0.0,0.0,0.0,0.0,0.0,0.0,0.0,0.0,0.0,0.0,0.0,0.0,0.4945,0.5101,0.5128,0.5335,0.5443,0.0,0.0,0.0,0.0,0.0,0.0,0.5966,0.6118,0.6288,0.6481,0.6627,0.6722,0.6759,0.6987,0.7153,0.7261,0.7411,0.7543,0.7655,0.7695,0.7712,0.7709,0.7672,0.759,0.7434,0.6759,0.6441,0.6349,0.6122,0.6006,0.5993,0.6149,0.6207,0.5989,0.4351,0.3421,0.2937,0.3144,0.3602,0.3973,0.3774,0.0,0.0,0.0,0.0,0.4024,0.428,0.4696,0.4888,0.4599,0.443,0.4823,0.6369,0.6756,0.6654,0.0,0.6129,0.6051,0.5888,0.0,0.0,0.0,0.0,0.5901,0.6017,0.6064,0.6132,0.6247,0.6338,0.6213,0.6098,0.6088,0.604,0.5925,0.5918,0.5918,0.5918,0.5918,0.5918,0.5918,0.0,0.0,0.0,0.0,0.0,0.0,0.0,0.0,0.0,0.0,0.0,0.0,0.0,0.0,0.0,0.0,0.0,0.0,0.0,0.0,0.0,0.0,0.0,0.0,0.0,0.0,0.0,0.0,0.0,0.5165,0.5515,0.0,0.0,0.0,0.0,0.5779,0.6057,0.6288,0.643,0.6583,0.68,0.7088,0.7244,0.7397,0.7543,0.756,0.757,0.758,0.7723,0.7794,0.7804,0.795,0.8018,0.8011,0.7865,0.7794,0.7753,0.7285,0.6932,0.6678,0.6661,0.6566,0.6458,0.6538,0.6681,0.6774,0.6892,0.5449,0.3519,0.3592,0.4994,0.659,0.6478,0.6458,0.0,0.0,0.5223,0.6213,0.6461,0.6781,0.694,0.6922,0.6771,0.6672,0.6761,0.6726,0.6658,0.0,0.6431,0.62,0.6047,0.0,0.58,0.58,0.5925,0.602,0.6027,0.6159,0.6251,0.6261,0.6338,0.6335,0.6251,0.6247,0.6247,0.6237,0.6237,0.6237,0.6237,0.6237,0.6237,0.6237,0.6237,0.0,0.0,0.0,0.0,0.0,0.0,0.0,0.0,0.0,0.0,0.0,0.0,0.0,0.0,0.0,0.0,0.0,0.0,0.0,0.0,0.0,0.0,0.0,0.0,0.0,0.0,0.0,0.0,0.5711,0.602,0.0,0.6033,0.6118,0.6234,0.6234,0.6519,0.6753,0.6895,0.7048,0.7227,0.7431,0.7672,0.778,0.7736,0.7933,0.798,0.7882,0.7933,0.796,0.796,0.8014,0.8038,0.8035,0.798,0.796,0.7936,0.7678,0.7339,0.6963,0.6773,0.6668,0.6637,0.6709,0.6854,0.6871,0.7073,0.6576,0.586,0.5734,0.6187,0.678,0.6757,0.6815,0.6726,0.6075,0.6228,0.6678,0.6833,0.6912,0.6991,0.7051,0.7078,0.6984,0.6984,0.6937,0.6943,0.6807,0.6651,0.6525,0.6471,0.6417,0.638,0.638,0.6427,0.6461,0.6461,0.6508,0.6542,0.6542,0.6458,0.6396,0.6396,0.6315,0.6338,0.6338,0.6338,0.6338,0.6338,0.6338,0.6338,0.6338,0.6338,0.6234,0.0,0.0,0.0,0.0,0.0,0.0,0.0,0.0,0.0,0.0,0.0,0.0,0.0,0.0,0.0,0.0,0.0,0.0,0.0,0.0,0.0,0.0,0.0,0.0,0.0,0.0,0.6125,0.6173,0.6532,0.6678,0.6434,0.663,0.6776,0.6776,0.7054,0.7312,0.7512,0.757,0.7689,0.7892,0.8041,0.8092,0.8038,0.8241,0.8289,0.8187,0.8187,0.8187,0.8187,0.8187,0.8187,0.8187,0.8187,0.816,0.8106,0.7953,0.7682,0.7343,0.7099,0.7004,0.7017,0.7119,0.7156,0.717,0.7278,0.7195,0.7135,0.7034,0.6987,0.6861,0.6861,0.696,0.7055,0.6953,0.6861,0.6881,0.6976,0.7037,0.7102,0.7197,0.7217,0.7217,0.7217,0.7177,0.7112,0.7017,0.6878,0.6763,0.6709,0.6702,0.6702,0.6702,0.6702,0.6702,0.6702,0.6702,0.6702,0.6702,0.661,0.6549,0.6549,0.6417,0.6332,0.6332,0.6288,0.6338,0.6338,0.6338,0.6285,0.6332,0.6332,0.6359,0.641,0.0,0.0,0.0,0.0,0.0,0.0,0.0,0.0,0.0,0.0,0.0,0.0,0.0,0.0,0.0,0.0,0.0,0.0,0.0,0.0,0.0,0.0,0.0,0.5857,0.6349,0.6668,0.6529,0.7034,0.7221,0.6787,0.7139,0.74,0.74,0.7668,0.7963,0.8262,0.8136,0.8184,0.8472,0.8353,0.8347,0.8479,0.8486,0.8486,0.8482,0.8482,0.8482,0.8482,0.8482,0.8482,0.8482,0.8482,0.8404,0.8265,0.8116,0.7963,0.7811,0.7658,0.76,0.76,0.76,0.76,0.76,0.76,0.7499,0.737,0.737,0.7272,0.7146,0.7146,0.7146,0.7146,0.7146,0.7146,0.7146,0.7146,0.7261,0.738,0.738,0.738,0.7377,0.7373,0.7255,0.7146,0.7143,0.7031,0.6888,0.6739,0.6715,0.6715,0.6715,0.6715,0.0,0.6715,0.6715,0.6715,0.6715,0.6712,0.6709,0.6709,0.6566,0.6478,0.6478,0.6349,0.6274,0.6274,0.6274,0.6339,0.6478,0.6478,0.6552,0.6702,0.0,0.0,0.0,0.0,0.0,0.0,0.0,0.0,0.0,0.0,0.0,0.0,0.0,0.0,0.0,0.0,0.0,0.0,0.0,0.0,0.0,0.0,0.6539,0.661,0.6946,0.7251,0.7421,0.7689,0.7807,0.7682,0.7885,0.8024,0.8024,0.8194,0.8333,0.8418,0.8384,0.8397,0.8479,0.8554,0.8557,0.8482,0.8591,0.8591,0.8482,0.8482,0.8482,0.8482,0.8482,0.8482,0.8482,0.8482,0.8459,0.8421,0.8377,0.8275,0.8109,0.7743,0.76,0.76,0.76,0.76,0.76,0.76,0.7499,0.737,0.737,0.7343,0.7309,0.7309,0.7309,0.7309,0.7309,0.7309,0.7309,0.7309,0.7421,0.7536,0.7536,0.7536,0.7506,0.7397,0.7336,0.7275,0.7163,0.7109,0.7068,0.7027,0.7017,0.7017,0.7017,0.7017,0.0,0.7017,0.7017,0.7017,0.7017,0.6926,0.6865,0.6865,0.6725,0.6637,0.6637,0.6603,0.658,0.658,0.658,0.66,0.6637,0.6637,0.6658,0.0,0.0,0.0,0.0,0.0,0.0,0.0,0.0,0.0,0.0,0.0,0.0,0.0,0.0,0.0,0.0,0.0,0.0,0.0,0.0,0.0,0.0,0.677,0.7122,0.7522,0.7621,0.774,0.7977,0.8191,0.8296,0.8231,0.8364,0.8455,0.8455,0.853,0.8604,0.8669,0.8611,0.8608,0.8672,0.8699,0.8699,0.8672,0.876,0.876,0.8672,0.8672,0.8672,0.8672,0.8672,0.8672,0.8672,0.8672,0.8635,0.8577,0.8577,0.8489,0.0,0.0,0.0,0.0,0.0,0.7784,0.7784,0.7784,0.7685,0.7556,0.7556,0.7516,0.7465,0.7465,0.7465,0.7465,0.7465,0.7465,0.7465,0.7465,0.7577,0.7689,0.7689,0.7689,0.7662,0.7577,0.7509,0.7421,0.7265,0.7238,0.0,0.7149,0.7139,0.7139,0.7139,0.7139,0.7139,0.7139,0.7139,0.7139,0.7139,0.7065,0.7017,0.7017,0.6881,0.0,0.0,0.0,0.6702,0.6702,0.6763,0.0,0.0,0.0,0.6824,0.6885,0.6746,0.0,0.0,0.6502,0.6236,0.0,0.0,0.0,0.0,0.0,0.0,0.0,0.0,0.0,0.0,0.0,0.0,0.0,0.0,0.0,0.0,0.7339,0.7716,0.8411,0.8309,0.8208,0.8333,0.8577,0.8682,0.8547,0.8655,0.8737,0.8737,0.8737,0.8794,0.893,0.0,0.0,0.0,0.0,0.8801,0.8937,0.894,0.894,0.894,0.894,0.894,0.894,0.894,0.894,0.894,0.894,0.8862,0.8737,0.8737,0.8645,0.8492,0.835,0.8201,0.8065,0.8065,0.8055,0.8038,0.8038,0.0,0.0,0.7811,0.7726,0.7624,0.7624,0.7624,0.7624,0.7624,0.7624,0.7624,0.7624,0.7729,0.7838,0.7838,0.7838,0.7831,0.7814,0.7712,0.758,0.7428,0.7397,0.7353,0.7217,0.7163,0.7139,0.7139,0.7139,0.7139,0.7139,0.7139,0.7139,0.7139,0.0,0.0,0.7139,0.7024,0.6953,0.6953,0.6824,0.6749,0.6749,0.6878,0.6953,0.6953,0.6953,0.7014,0.7139,0.6934,0.6776,0.6729,0.6652,0.6276,0.0,0.0,0.0,0.0,0.0,0.0,0.0,0.0,0.0,0.0,0.0,0.0,0.0,0.0,0.0,0.7265,0.776,0.8231,0.8611,0.8821,0.8906,0.8818,0.8859,0.8882,0.8852,0.8876,0.8896,0.8896,0.8896,0.8906,0.8937,0.891,0.891,0.8937,0.891,0.891,0.894,0.894,0.894,0.894,0.0,0.0,0.894,0.894,0.894,0.894,0.894,0.892,0.8896,0.8896,0.8804,0.8652,0.8499,0.8353,0.8225,0.8225,0.8147,0.8038,0.8038,0.794,0.7811,0.7811,0.779,0.777,0.777,0.777,0.0,0.777,0.777,0.777,0.777,0.7882,0.7994,0.7994,0.7994,0.7963,0.7838,0.779,0.7729,0.7584,0.7556,0.7546,0.7516,0.7305,0.7139,0.7139,0.7139,0.7139,0.7139,0.7139,0.7139,0.7139,0.7139,0.7139,0.7139,0.7115,0.7099,0.7099,0.7071,0.7054,0.7054,0.7085,0.7099,0.7099,0.7099,0.7112,0.7139,0.7027,0.6048,0.4287,0.6154,0.493,0.0,0.0,0.0,0.0,0.0,0.0,0.0,0.0,0.0,0.0,0.0,0.6451,0.0,0.0,0.7519,0.7967,0.8296,0.8621,0.8994,0.911,0.91,0.8957,0.9001,0.9018,0.8947,0.894,0.894,0.894,0.894,0.894,0.894,0.894,0.894,0.894,0.9008,0.9011,0.894,0.9011,0.9045,0.9045,0.9045,0.9086,0.9157,0.9079,0.9045,0.9042,0.8967,0.894,0.894,0.894,0.8893,0.8818,0.874,0.853,0.8272,0.8272,0.8174,0.8062,0.8208,0.8163,0.8052,0.8123,0.8147,0.8147,0.8147,0.8147,0.8133,0.8062,0.8041,0.8024,0.7943,0.798,0.8038,0.8038,0.8038,0.8018,0.794,0.7926,0.7882,0.7733,0.7706,0.7682,0.7611,0.7472,0.7343,0.7268,0.719,0.7139,0.7139,0.7139,0.7139,0.7139,0.7139,0.7139,0.7139,0.7139,0.7139,0.7139,0.7139,0.7139,0.7139,0.7139,0.7139,0.7139,0.7064,0.7068,0.7068,0.7084,0.6462,0.5384,0.5313,0.3398,0.0,0.0,0.0,0.0,0.0,0.0,0.0,0.0,0.5736,0.5669,0.6326,0.7022,0.7461,0.7773,0.816,0.8672,0.8804,0.8957,0.9289,0.9256,0.9133,0.896,0.9042,0.9076,0.8988,0.8981,0.8991,0.9022,0.8998,0.8981,0.8981,0.8981,0.8981,0.8981,0.9123,0.914,0.9025,0.914,0.9198,0.9198,0.9167,0.9218,0.9334,0.9181,0.9113,0.9103,0.8988,0.894,0.894,0.894,0.894,0.8933,0.8906,0.8672,0.8357,0.8357,0.8258,0.816,0.8397,0.8408,0.833,0.8445,0.8482,0.8482,0.8482,0.8482,0.8459,0.8343,0.8313,0.8282,0.8157,0.8106,0.8082,0.8082,0.8062,0.8038,0.8038,0.8038,0.8004,0.7879,0.7855,0.7821,0.7706,0.7662,0.759,0.7438,0.7285,0.7183,0.7183,0.7156,0.7139,0.7139,0.7139,0.7139,0.7139,0.7139,0.7139,0.7139,0.7139,0.7139,0.7139,0.7139,0.7143,0.7058,0.7074,0.6903,0.645,0.6385,0.6671,0.7045,0.5138,0.2699,0.5783,0.5731,0.5255,0.3465,0.4441,0.5964,0.0,0.0,0.5315,0.3777,0.5426,0.7324,0.8072,0.835,0.8592,0.8882,0.9133,0.9276,0.9191,0.9283,0.9252,0.8971,0.8954,0.9008,0.912,0.913,0.9184,0.932,0.9205,0.913,0.913,0.913,0.913,0.913,0.9276,0.9347,0.933,0.9347,0.9354,0.9354,0.9218,0.9161,0.9174,0.9028,0.896,0.896,0.8947,0.894,0.894,0.894,0.894,0.8923,0.8791,0.8706,0.8662,0.8662,0.8564,0.8438,0.8469,0.8472,0.8462,0.8476,0.8482,0.8482,0.8482,0.8482,0.8479,0.8462,0.8459,0.8455,0.8438,0.834,0.8245,0.8245,0.814,0.8038,0.8038,0.8038,0.8035,0.8018,0.8014,0.8011,0.7994,0.7879,0.774,0.7597,0.7444,0.7346,0.7346,0.7224,0.7139,0.7139,0.7139,0.7139,0.7139,0.7139,0.7139,0.7139,0.7139,0.7139,0.7139,0.7139,0.7061,0.7081,0.7084,0.6086,0.4016,0.4018,0.502,0.7135,0.6863,0.4318,0.6061,0.5781,0.4818,0.0,0.1779,0.2778,0.4262,0.5397,0.5485,0.3473,0.299,0.3514,0.5422,0.7604,0.9084,0.0,0.9352,0.9412,0.9586,0.9425,0.9171,0.8883,0.8947,0.8994,0.9137,0.9079,0.9089,0.9239,0.911,0.9066,0.9147,0.9154,0.9195,0.9283,0.9435,0.9469,0.9381,0.9469,0.9513,0.9513,0.9449,0.9462,0.9537,0.9395,0.9232,0.9059,0.8974,0.894,0.894,0.894,0.894,0.893,0.8869,0.8845,0.8832,0.8743,0.8615,0.8509,0.8686,0.8689,0.8628,0.872,0.8757,0.8764,0.8754,0.8757,0.8747,0.8642,0.8615,0.8594,0.8506,0.8377,0.8272,0.8272,0.815,0.8065,0.8153,0.8102,0.8065,0.8157,0.8102,0.8038,0.8038,0.7987,0.7923,0.7865,0.7655,0.7506,0.7506,0.737,0.7241,0.7149,0.7139,0.7058,0.7071,0.7071,0.7071,0.7071,0.7071,0.7071,0.7071,0.7071,0.7078,0.7094,0.7108,0.6659,0.566,0.2867,0.1973,0.3056,0.5779,0.4508,0.5439,0.0,0.0,0.0975,0.0,0.0382,0.188,0.3469,0.4088,0.2565,0.1101,0.0566,0.2528,0.4993,0.7064,0.8056,0.8205,0.8193,0.8402,0.8149,0.8193,0.8843,0.8832,0.8845,0.914,0.9015,0.9062,0.9215,0.9127,0.9113,0.9222,0.9266,0.9337,0.9449,0.9595,0.9622,0.9527,0.9618,0.9669,0.9676,0.9632,0.9663,0.9758,0.9612,0.9381,0.9089,0.9032,0.8984,0.895,0.8846,0.8846,0.8846,0.8846,0.8846,0.8833,0.8832,0.8713,0.8638,0.8869,0.8872,0.8794,0.891,0.885,0.886,0.8954,0.8853,0.8843,0.8821,0.8781,0.8757,0.8638,0.8503,0.8381,0.834,0.8245,0.818,0.8255,0.8214,0.8194,0.8306,0.8238,0.816,0.816,0.816,0.815,0.8113,0.7926,0.776,0.7678,0.7409,0.7249,0.7138,0.7091,0.7071,0.7088,0.6542,0.6177,0.6177,0.6726,0.7091,0.7091,0.6453,0.6456,0.7111,0.7128,0.6496,0.5133,0.1707,0.0,0.009,0.3514,0.3332,0.3474,0.0,0.5237,0.1055,0.0,0.0,0.011,0.0112,0.0226,0.0117,0.0,0.0,0.0117,0.0232,0.1273,0.454,0.5045,0.5016,0.5059,0.5092,0.6005,0.8596,0.8635,0.8668,0.0,0.9113,0.9222,0.9514,0.9285,0.9285,0.9525,0.9547,0.9509,0.9513,0.963,0.9839,0.9767,0.9839,0.9825,0.9846,0.9686,0.9612,0.9612,0.9459,0.9225,0.8954,0.911,0.91,0.8863,0.8883,0.8893,0.8893,0.8893,0.8893,0.8893,0.889,0.8856,0.893,0.885,0.8843,0.8937,0.8853,0.8863,0.8863,0.8863,0.8876,0.889,0.8863,0.8853,0.885,0.893,0.8811,0.8659,0.8509,0.8472,0.8431,0.8299,0.8374,0.8469,0.8476,0.8472,0.8469,0.8469,0.8469,0.8425,0.8299,0.8272,0.816,0.7774,0.7399,0.7135,0.7129,0.7098,0.7101,0.7101,0.501,0.3749,0.3749,0.5824,0.7101,0.7101,0.4919,0.4746,0.7045,0.7135,0.486,0.018,0.009,0.0,0.0,0.018,0.018,0.5245,0.0,0.176,0.0312,0.0,0.0,0.0,0.0,0.0,0.0,0.0,0.0,0.0,0.0,0.0331,0.1484,0.1636,0.1656,0.1647,0.1636,0.3425,0.8268,0.7102,0.0,0.0,0.0,0.0,0.9462,0.9215,0.8132,0.6331,0.8245,0.947,0.9694,0.7609,0.7633,0.9784,0.7633,0.7627,0.9764,0.9734,0.971,0.9674,0.9559,0.9452,0.9535,0.9174,0.7826,0.6014,0.5958,0.5935,0.5935,0.5935,0.5935,0.5935,0.5935,0.5929,0.6258,0.8196,0.7621,0.626,0.8307,0.889,0.8549,0.6606,0.4583,0.3465,0.5367,0.7399,0.8883,0.8876,0.8872,0.8855,0.8804,0.8491,0.8216,0.8378,0.8458,0.856,0.8769,0.8598,0.8526,0.8526,0.8526,0.783,0.5803,0.6969,0.7369,0.5496,0.5129,0.4968,0.4806,0.4804,0.5398,0.6992,0.6352,0.4574,0.1429,0.1966,0.3851,0.6943,0.6302,0.4853,0.2426,0.2425,0.1616,0.0,0.0,0.0,0.0,0.0,0.0,0.6207,0.3261,0.0,0.0,0.0,0.0,0.0,0.0,0.0,0.0,0.0,0.0,0.0,0.0,0.0,0.0,0.0,0.0,0.0,0.0,0.1457,0.5308,0.4945,0.4367,0.0,0.0,0.0,0.9137,0.9041,0.7096,0.3163,0.4913,0.7208,0.9668,0.6653,0.5912,0.8044,0.5912,0.5908,0.8022,0.8066,0.8024,0.801,0.7856,0.778,0.7994,0.8784,0.8004,0.591,0.382,0.2908,0.2908,0.2908,0.358,0.448,0.448,0.448,0.4931,0.7874,0.6959,0.4583,0.5487,0.719,0.8565,0.6621,0.3244,0.0447,0.2345,0.4249,0.594,0.707,0.7348,0.7278,0.7342,0.708,0.6737,0.688,0.6972,0.708,0.7273,0.7222,0.7058,0.7058,0.7905,0.7955,0.6035,0.7058,0.7418,0.5664,0.3736,0.2532,0.2307,0.2342,0.2954,0.4449,0.4552,0.3232,0.0179,0.0,0.1345,0.4408,0.4589,0.3145,0.009,0.0,0.0,0.0,0.0,0.0,0.0,0.0,0.0,0.6124,0.3067,0.0,0.0,0.0,0.0,0.0,0.0,0.0,0.0,0.0,0.0,0.0,0.0,0.0,0.0,0.0,0.0,0.0,0.0,0.0,0.0,0.0,0.0,0.0,0.0,0.0,0.8269,0.0,0.6251,0.0353,0.0,0.2833,0.9063,0.6289,0.4681,0.4703,0.4682,0.4671,0.4671,0.4668,0.4595,0.4702,0.4596,0.4512,0.4497,0.7803,0.8954,0.8018,0.2355,0.0,0.0,0.0,0.1795,0.4271,0.4271,0.4271,0.472,0.7432,0.6624,0.3799,0.0893,0.3805,0.8453,0.8453,0.4489,0.0,0.0,0.0,0.067,0.3575,0.4247,0.4231,0.4271,0.4307,0.4228,0.3831,0.4087,0.4247,0.4247,0.4247,0.4247,0.4247,0.6543,0.86,0.8821,0.8152,0.7607,0.7544,0.3184,0.0,0.0,0.0,0.0,0.0,0.0,0.0,0.0,0.0,0.0,0.0,0.0,0.0,0.0,0.0,0.0,0.0,0.0,0.0,0.0,0.0,0.0,0.161,0.0794,0.0,0.0,0.0,0.0,0.0,0.0,0.0,0.0,0.0,0.0,0.0,0.0,0.0,0.0,0.0,0.0,0.0,0.0,0.0,0.0,0.0,0.1118,0.0997,0.112,0.0,0.0,0.6404,0.6287,0.0359,0.0,0.074,0.2469,0.1727,0.1233,0.1235,0.1233,0.1233,0.1233,0.1219,0.1207,0.1197,0.1296,0.1175,0.1181,0.2069,0.2407,0.2206,0.068,0.0,0.0,0.0,0.0449,0.1121,0.1121,0.1121,0.1234,0.2018,0.1793,0.1008,0.0224,0.1009,0.2242,0.2242,0.1233,0.0,0.0,0.0,0.0224,0.0896,0.112,0.1119,0.1114,0.1116,0.1118,0.1002,0.1116,0.112,0.112,0.112,0.112,0.112,0.1787,0.3778,0.8185,0.5015,0.2032,0.207,0.0812,0.0,0.0,0.0,0.0,0.0,0.0,0.0,0.0,0.0,0.0,0.0,0.0,0.0,0.0,0.0,0.0,0.0,0.0,0.0,0.0,0.0,0.0,0.0,0.0,0.0,0.0,0.0,0.0,0.0,0.0,0.0,0.0,0.0,0.0,0.0,0.0,0.0,0.0,0.0,0.0,0.0,0.0,0.0,0.0,0.0,0.0,0.0,0.0,0.0,0.0,0.3079,0.3584,0.0121,0.0,0.0,0.0,0.0,0.0,0.0,0.0,0.0,0.0,0.0,0.0,0.0,0.0,0.0,0.0,0.0,0.0,0.0,0.0,0.0,0.0,0.0,0.0,0.0,0.0,0.0,0.0,0.0,0.0,0.0,0.0,0.0,0.0,0.0,0.0,0.0,0.0,0.0,0.0,0.0,0.0,0.0,0.0,0.0,0.0,0.0,0.0,0.0,0.0,0.0,0.0,0.0,0.0,0.1118,0.4445,0.2091,0.0,0.0,0.0,0.0,0.0,0.0,0.0,0.0,0.0,0.0,0.0,0.0,0.0,0.0,0.0,0.0,0.0,0.0,0.0,0.0,0.0,0.0,0.0,0.0,0.0,0.0,0.0,0.0,0.0,0.0,0.0,0.0,0.0,0.0,0.0,0.0,0.0,0.0,0.0,-0.0252,-0.1076,0.0,0.0,0.0,0.0,0.0,0.0,0.0,0.0,0.0,0.0,0.0,0.0,0.0,0.0,0.0,0.0,0.0,0.0,0.0,0.0,0.0,0.0,0.0,0.0,0.0,0.0,0.0,0.0,0.0,0.0,0.0,0.0,0.0,0.0,0.0,0.0,0.0,0.0,0.0,0.0,0.0,0.0,0.0,0.0,0.0,0.0,0.0,0.0,0.0,0.0,0.0,0.0,0.0,0.0,0.0,0.0,0.0,0.0,0.0,0.0,0.0,0.0,0.0,0.0,0.0,0.0,0.0,0.0,0.0,0.0,0.0,0.0,0.0,0.0,0.0,0.0,0.0,0.0,0.0,0.0,0.0,0.0,0.0,0.0,0.0,0.0,0.0,0.0,0.0,0.0,-0.0,-0.0629,-0.0898,-0.0898,-0.0629,-0.0449,0.0,0.0,0.0,0.0,0.0,0.0,0.0,0.0,0.0,0.0,0.0,0.0,0.0,0.0,-0.1581,-0.6572,0.0,0.0,0.0,0.0,0.0,0.0,0.0,0.0,0.0,0.0,0.0,0.0,0.0,0.0,0.0,0.0,0.0,0.0,0.0,0.0,0.0,0.0,0.0,0.0,0.0,0.0,0.0,0.0,0.0,0.0,0.0,0.0,0.0,0.0,0.0,0.0,0.0,0.0,0.0,0.0,0.0,0.0,0.0,0.0,0.0,0.0,0.0,0.0,0.0,0.0,0.0,0.0,0.0,0.0,0.0,0.0,0.0,0.0,0.0,0.0,0.0,0.0,0.0,0.0,0.0,0.0,0.0,0.0,0.0,0.0,0.0,0.0,0.0,0.0,0.0,0.0,0.0,0.0,0.0,0.0,0.0,0.0,0.0,0.0,0.0,0.0,0.0,0.0,0.0,0.0,-0.0,-0.3957,-0.5858,-0.5858,-0.3849,-0.2948,-0.2603,-0.2489,-0.2108,-0.0367,0.0,0.0,0.0,0.0,0.0,0.0,0.0,0.0,0.0,0.0,0.0,0.0,0.0,0.0,0.0,0.0,0.0,0.0,0.0,0.0,0.0,0.0,0.0,0.0,0.0,0.0,0.0,0.0,0.0,0.0,0.0,0.0,0.0,0.0,0.0,0.0,0.0,0.0,0.0,0.0,0.0,0.0,0.0,0.0,0.0,0.0,0.0,0.0,0.0,0.0,0.0,0.0,0.0,0.0,0.0,0.0,0.0,0.0,0.0,0.0,0.0,0.0,0.0,0.0,0.0,0.0,0.0,0.0,0.0,0.0,0.0,0.0,0.0,0.0,0.0,0.0,0.0,0.0,0.0,0.0,0.0,0.0,0.0,0.0,0.0,0.0,0.0,0.0,0.0,0.0,0.0,0.0,0.0,0.0,0.0,0.0,0.0,-0.2335,-0.3687,-0.3687,-0.251,-0.1879,-0.1879,-0.4121,-0.593,-0.7118,-0.5922,-0.546,-0.5929,-0.5935,-0.5291,-0.2656,-0.1383,-0.0758,-0.0699,-0.0652,0.0,0.0,-0.0627,-0.0627,-0.0627,0.0,0.0,0.0,0.0,0.0,0.0,0.0,0.0,0.0,0.0,0.0,0.0,0.0,0.0,0.0,0.0,0.0,0.0,0.0,0.0,0.0,0.0,0.0,0.0,0.0,0.0,0.0,0.0,0.0,0.0,0.0,0.0,0.0,0.0,0.0,0.0,0.0,0.0,0.0,0.0,0.0,0.0,0.0,0.0,0.0,0.0,0.0,0.0,0.0,0.0,0.0,0.0,0.0,0.0,0.0,0.0,0.0,0.0,0.0,0.0,0.0,0.0,0.0,0.0,0.0,0.0,0.0,0.0,0.0,0.0,0.0,0.0,0.0,0.0,0.0,0.0,0.0,-0.0434,-0.1572,-0.0728,-0.0515,-0.1618,-0.1761,-0.1438,-0.0862,-0.0834,-0.0818,-0.0818,-0.4351,-0.6622,-0.7085,-0.5325,-0.4399,-0.4378,-0.4397,-0.5302,-0.7098,-0.7094,-0.7091,-0.9293,-0.9331,-0.9268,-0.8639,-0.5903,-0.3149,-0.2872,0.0,0.0,-0.2843,-0.2812,-0.2812,-0.2812,-0.2788,-0.3645,0.0,0.0,-0.4999,0.0,0.0,0.0,0.0,0.0,0.0,0.0,0.0,0.0,0.0,0.0,0.0,0.0,0.0,0.0,0.0,0.0,0.0,0.0,0.0,0.0,0.0,0.0,0.0,0.0,0.0,0.0,0.0,0.0,0.0,0.0,0.0,0.0,0.0,0.0,0.0,0.0,0.0,0.0,0.0,0.0,0.0,0.0,0.0,0.0,0.0,0.0,0.0,0.0,0.0,0.0,0.0,0.0,0.0,0.0,0.0,0.0,0.0,0.0,0.0,0.0,0.0,0.0,0.0,0.0,0.0,0.0,0.0,0.0,0.0,0.0,0.0,-0.1877,-0.6749,-0.2936,-0.1958,-0.6802,-0.7267,-0.6179,-0.3804,-0.3633,-0.3591,-0.3591,-0.3805,-0.4878,-0.7031,-0.7214,-0.7054,-0.6739,-0.695,-0.7034,-0.7088,-0.7064,-0.7058,-0.9573,-0.9751,-0.9724,-0.9355,-0.7868,-0.6266,-0.5477,0.0,-0.5057,-0.5053,-0.5018,-0.5018,-0.5018,-0.5056,-0.5431,-0.6776,-0.6168,0.0,0.0,0.0,0.0,0.0,0.0,0.0,0.0,0.0,0.0,0.0,-0.2952,-0.2954,-0.2954,-0.111,0.0,0.0,0.0,0.0,0.0,0.0,0.0,0.0,0.0,0.0,0.0,0.0,0.0,0.0,0.0,0.0,0.0,0.0,-0.2129,-0.539,-0.539,-0.4258,-0.2684,-0.2684,-0.2684,-0.2461,-0.0671,0.0,0.0,0.0,0.0,0.0,0.0,0.0,0.0,0.0,0.0,0.0,0.0,0.0,0.0,0.0,0.0,0.0,0.0,0.0,0.0,0.0,0.0,0.0,0.0,0.0,0.0,0.0,-0.3027,-0.539,-0.539,-0.3808,-0.3424,-0.5341,-0.5086,-0.5008,-0.556,-0.706,-0.7586,-0.6482,-0.6292,-0.6213,-0.6386,-0.607,-0.6412,-0.7443,-0.7533,-0.7499,-0.7438,-0.7404,-0.7353,-0.7292,-0.7187,-0.7139,-0.9596,-0.9941,-1.0051,-0.9264,-0.8625,-0.7959,0.0,0.0,-0.6381,-0.6315,-0.6285,-0.6285,-0.6285,-0.6285,-0.6386,-0.6688,-0.6725,-0.7011,-0.7622,0.0,0.0,0.0,0.0,0.0,0.0,0.0,0.0,-0.6528,-0.6403,-0.6403,-0.6403,-0.4189,-0.2466,-0.1479,-0.1479,-0.1479,-0.1479,-0.1479,-0.1479,-0.1479,-0.1479,-0.1467,-0.1324,-0.1303,-0.1282,-0.1375,-0.1353,-0.1344,0.0,-0.1344,-0.381,-0.7647,-0.8562,-0.7642,-0.5822,-0.5822,-0.5822,-0.5485,-0.3353,-0.2011,-0.1341,-0.1343,-0.1344,-0.1344,-0.1344,-0.0672,0.0,0.0,0.0,0.0,0.0,0.0,0.0,0.0,0.0,0.0,0.0,0.0,0.0,0.0,-0.1457,-0.2578,-0.2578,-0.1904,-0.1344,-0.1344,-0.4933,-0.7877,-0.8792,-0.7073,-0.5645,-0.5365,-0.6951,-0.7258,-0.5345,-0.688,-0.8038,-0.8031,-0.7825,-0.7848,-0.7962,-0.7708,-0.7573,-0.777,-0.7668,-0.7641,-0.76,-0.7533,-0.7455,-0.737,-0.7258,-0.7183,-1.0103,-1.0668,-1.1078,-0.9149,-0.8377,-0.7885,0.0,-0.6797,-0.643,-0.6291,-0.6338,-0.6338,-0.6338,-0.6338,-0.6359,-0.6654,-0.6702,-0.6912,-0.7516,0.0,0.0,0.0,0.0,0.0,0.0,0.0,0.0,-0.9781,-0.9781,0.0,-0.9781,-0.9658,-0.815,-0.4918,-0.4794,-0.4794,-0.4794,-0.4794,-0.4794,-0.4794,-0.4794,-0.4755,-0.444,-0.4487,-0.4415,-0.4457,-0.4501,-0.447,0.0,-0.447,-0.447,-0.4808,-0.775,-0.8897,-0.8893,-0.8893,-0.8893,-0.8893,-0.8782,-0.6842,-0.447,-0.447,-0.447,-0.447,-0.447,-0.2349,0.0,0.0,0.0,0.0,0.0,0.0,0.0,0.0,0.0,0.0,0.0,0.0,0.0,0.0,-0.4713,-0.8798,-0.8798,-0.6393,-0.447,-0.447,-0.447,-0.5596,-0.8549,-0.8893,-0.8826,-0.854,-0.8388,-0.8183,-0.7995,-0.7972,-0.7962,-0.8038,-0.8035,-0.8035,-0.8035,-0.7889,-0.7807,-0.7811,-0.7811,-0.774,-0.76,-0.774,-0.7655,-0.737,-0.737,-0.7285,-0.9317,-0.9561,-0.956,-0.8305,-0.7685,-0.7322,-0.6929,-0.6573,-0.6315,-0.6349,-0.6338,-0.6338,-0.6338,-0.6338,-0.6359,-0.6654,-0.6702,-0.6837,0.0,0.0,0.0,0.0,0.0,0.0,0.0,0.0,-0.9836,-0.9846,-0.9849,-0.9849,-0.9849,-0.9849,-0.9364,-0.8273,-0.8273,-0.8273,-0.8273,-0.8273,-0.8273,-0.8273,-0.806,-0.7954,-0.7828,-0.7583,-0.7461,-0.7463,-0.7539,-0.7522,-0.7522,-0.7522,-0.7516,-0.7616,-0.8526,-0.8863,-0.885,-0.885,-0.885,-0.8853,-0.8866,-0.8298,-0.7504,-0.7519,-0.7522,-0.7522,-0.7522,-0.5487,-0.3131,-0.3131,-0.3031,-0.3044,-0.3044,-0.3068,-0.3084,-0.3052,-0.3056,-0.3059,-0.3026,-0.3131,-0.3131,-0.3131,-0.4589,-0.6505,-0.8555,-0.8097,-0.7522,-0.7522,-0.751,-0.7844,-0.8759,-0.886,-0.8789,-0.8737,-0.8581,-0.8414,-0.8225,-0.8113,-0.8048,-0.8038,-0.794,-0.7929,-0.8035,-0.7892,-0.7862,-0.7967,-0.7967,-0.7943,-0.7899,-0.7841,-0.7658,-0.737,-0.737,-0.7346,0.0,-0.9867,-0.9908,-0.8204,-0.7727,0.0,0.0,-0.643,-0.6338,-0.6338,-0.6338,-0.6338,-0.6338,-0.6338,-0.6339,-0.6576,-0.6664,-0.6783,0.0,0.0,0.0,0.0,0.0,0.0,0.0,0.0,-0.9822,-0.9822,-0.9822,-0.9822,-0.9822,-0.9822,-0.9839,-0.9751,-0.9751,-0.9751,-0.9751,-0.9751,-0.9724,-0.967,-0.9576,-0.9422,-0.9334,-0.9121,-0.9,-0.887,-0.887,-0.887,0.0,-0.887,-0.8863,-0.885,-0.885,-0.895,-0.894,-0.894,-0.894,-0.894,-0.8846,-0.885,-0.8853,-0.8866,-0.887,-0.887,-0.887,-0.7624,-0.6168,-0.632,-0.6217,-0.6111,-0.615,-0.6175,-0.6175,-0.6116,-0.612,-0.612,-0.6175,-0.6161,-0.6161,-0.6161,-0.6156,-0.6717,-0.8539,-0.8876,-0.887,-0.887,-0.886,-0.885,-0.885,-0.8947,-0.8903,-0.8808,-0.8608,-0.8445,-0.836,-0.816,-0.8038,-0.8038,-0.795,-0.794,-0.8035,-0.7946,-0.7943,-0.8038,-0.8038,-0.8038,-0.8038,-0.8366,-0.8752,-0.9003,-0.8934,-0.8905,0.0,-1.1192,0.0,0.0,0.0,0.0,0.0,-0.651,0.0,-0.6338,-0.6338,-0.6264,-0.6352,-0.6268,-0.6315,-0.6478,-0.6614,0.0,0.0,0.0,0.0,0.0,0.0,0.0,0.0,0.0,-0.9822,-0.9822,-0.9822,-0.9822,-0.9822,-0.9822,-0.9822,-0.9822,-0.9822,-0.9822,-0.9822,-0.9822,-0.9754,-0.9625,-0.9602,-0.9445,-0.9167,-0.9147,-0.9066,0.0,-0.894,-0.894,-0.894,-0.894,-0.894,-0.894,-0.894,-0.894,-0.894,-0.894,-0.894,-0.894,-0.894,-0.894,-0.894,-0.894,-0.894,-0.894,-0.894,-0.8856,-0.892,-0.9281,-0.9087,-0.8882,-0.89,-0.8951,-0.8853,-0.8853,-0.8871,-0.889,-0.889,-0.889,-0.889,-0.889,-0.8873,-0.886,-0.886,-0.8954,-0.894,-0.894,-0.894,-0.894,-0.894,-0.894,-0.8933,-0.8923,-0.8659,-0.8479,-0.8469,-0.8204,-0.8038,-0.8038,-0.8038,-0.8038,-0.8038,-0.8137,-0.8137,-0.8137,-0.8233,-0.8233,-0.8233,-0.9437,-1.0582,-1.1696,-1.158,-1.1477,-1.0496,0.0,-1.0273,-0.9314,-0.9062,-0.8805,0.0,-0.7508,-0.7249,0.0,0.0,-0.6295,-0.6403,-0.6332,-0.6383,-0.6759,-0.6753,0.0,0.0,0.0,0.0,0.0,0.0,0.0,0.0,-0.9557,-0.9822,-0.9822,-0.9822,-0.9822,-0.9822,-0.9822,-0.9822,-0.9822,-0.9822,-0.9822,-0.9822,-0.9822,-0.9805,-0.9768,-0.9544,-0.9398,-0.932,-0.9093,-0.8971,-0.894,-0.894,-0.894,-0.894,-0.894,-0.894,-0.894,-0.894,-0.894,-0.894,-0.894,-0.894,-0.894,-0.894,-0.894,-0.894,-0.894,-0.894,-0.894,-0.894,-0.8947,-0.896,-0.8998,-0.9005,-0.89,-0.8933,-0.8917,-0.8893,-0.8893,-0.8866,-0.8954,-0.8954,-0.8954,-0.8954,-0.8954,-0.895,-0.8947,-0.8947,-0.8944,-0.894,-0.894,-0.894,-0.894,-0.894,-0.894,-0.8893,-0.8777,-0.8594,-0.8438,-0.833,-0.8147,-0.8038,-0.8038,-0.8038,-0.8038,-0.8038,-0.9019,-0.9509,-0.9509,-1.0485,-1.0974,-1.097,-1.1312,-1.149,-1.1701,-1.165,-1.1619,-1.1596,-1.1109,-1.0439,-0.9724,-0.9802,-0.9744,-0.8689,0.0,0.0,0.0,0.0,0.0,-0.7754,0.0,0.0,0.0,-0.833,0.0,0.0,0.0,0.0,0.0,0.0,0.0,0.0,-1.0151,-1.0058,-1.0899,-1.0179,-0.9822,-0.9822,-0.9822,-0.9822,-0.9822,-0.9758,-0.9754,-0.9822,-0.9822,-0.9751,-0.9618,-0.9456,-0.931,-0.9171,-0.9011,-0.894,-0.894,-0.894,-0.894,-0.894,-0.894,-0.894,-0.894,-0.894,-0.894,-0.894,-0.894,-0.894,-0.894,-0.894,-0.894,-0.894,-0.894,-0.9375,-0.9915,-0.9915,-1.0351,-1.0692,-0.9346,-0.8988,-0.8954,-0.9018,-0.8988,-0.894,-0.894,-0.894,-0.894,-0.894,-0.894,-0.894,-0.894,-0.894,-0.894,-0.894,-0.894,-0.894,-0.894,-0.894,-0.894,-0.894,-0.9482,-0.9851,-0.9685,-1.0035,-1.0265,-1.0087,-0.9904,-0.9312,-0.8038,-0.8531,-0.892,-0.892,-1.0194,-1.0877,-1.0877,-1.1556,-1.2237,-1.2813,-1.2813,-1.3036,-1.3578,-1.3578,-1.3578,-1.2802,-1.2296,-1.1567,-1.0539,-1.0683,-1.0789,-0.9744,0.0,0.0,0.0,0.0,0.0,0.0,0.0,0.0,0.0,0.0,0.0,0.0,0.0,0.0,0.0,0.0,0.0,-1.2285,-1.1331,-1.114,-1.2453,-1.1257,-1.0539,-1.0539,-1.0539,-1.0528,-1.0503,-1.0375,-1.0361,-1.0343,-0.9992,-0.9639,-0.9415,-0.9367,-0.9215,-0.8971,-0.895,-0.894,-0.894,0.0,0.0,-0.9265,-0.9482,-0.9592,-0.9592,-0.9592,-0.9592,-0.9592,-0.9592,-0.9592,-0.9592,-0.9592,-0.9592,-0.9592,-0.9592,-1.046,-1.1433,-1.1433,-1.2295,-1.2762,-1.052,-0.9583,-0.9293,-0.942,-0.9248,-0.894,-0.894,-0.894,-0.894,-0.894,-0.894,-0.8937,-0.9154,-0.9265,-0.9265,-0.9482,-0.9592,-0.9592,-0.9592,-0.9592,-0.9592,-0.9592,-1.0676,-1.1346,-1.1022,-1.1987,-1.2491,-1.2144,-1.1953,-1.097,-0.8726,-0.9706,-1.0391,-1.0578,-1.1653,-1.2334,-1.2528,-1.2528,-1.3011,-1.4166,-1.4166,-1.4752,-1.5832,-1.5832,-1.5832,-1.2964,-1.33,-1.3419,-1.224,-1.2011,-1.1842,-1.0789,0.0,0.0,0.0,0.0,0.0,0.0,0.0,0.0,0.0,0.0,0.0,0.0,0.0,0.0,0.0,0.0,-1.3684,-1.3688,-1.3805,-1.4009,-1.4247,-1.4004,-1.3885,-1.3885,-1.3885,-1.3803,-1.3494,-1.3455,-1.337,-1.3107,-1.0709,-0.949,-0.9571,-0.931,-0.9164,-0.9117,-0.8994,-0.894,-0.8937,0.0,-1.0781,-1.0891,-1.2077,-1.2615,-1.2615,-1.2615,-1.2615,-1.2615,-1.2615,-1.2615,-1.2615,-1.2615,-1.2615,-1.2615,-1.2615,-1.2724,-1.294,-1.294,-1.3156,-1.3166,-1.2767,-1.1778,-1.0789,-1.0814,-0.9824,-0.894,-0.894,-0.894,-0.894,-0.894,-0.894,-0.9265,-1.0566,-1.0781,-1.1214,-1.2403,-1.2615,-1.2615,-1.2615,-1.2615,-1.2615,-1.2615,-1.2832,-1.2787,-1.2383,-1.2515,-1.243,-1.1933,-1.1965,-1.175,-1.1361,-1.1463,-1.2134,-1.3295,-1.3488,-1.4076,-1.5146,-1.5242,-1.5343,-1.5534,-1.5534,-1.5635,-1.5832,-1.5832,-1.5832,-1.3987,-1.4314,-1.4537,-1.3692,-1.3675,-1.373,-1.3266,0.0,0.0,0.0,0.0,0.0,0.0,0.0,0.0,0.0,0.0,0.0,0.0,0.0,0.0,0.0,0.0,-1.4541,-1.5515,-1.5003,-1.4903,-1.5598,-1.5006,-1.4493,-1.4129,-1.4346,-1.4189,-1.3964,-1.3848,-1.3793,-1.369,-1.2239,-1.1569,-1.1757,-1.1577,-1.1441,-1.1444,-1.1362,-1.1324,-1.1324,0.0,-1.2295,-1.2295,-1.3053,-1.3264,-1.3264,-1.3264,-1.3264,-1.3264,-1.3264,-1.3264,-1.3264,-1.3264,-1.3264,-1.3264,-1.3264,-1.3804,-1.4449,-1.4449,-1.499,-1.5636,-1.5636,-1.4019,-1.2295,-1.2295,-1.1755,-1.1324,-1.1324,-1.1324,-1.1324,-1.1324,-1.1324,-1.1433,-1.2186,-1.2295,-1.2512,-1.3156,-1.3264,-1.3264,-1.3264,-1.3264,-1.3264,-1.3264,-1.3911,-1.4311,-1.3958,-1.4418,-1.4701,-1.432,-1.4063,-1.3692,-1.3006,-1.3011,-1.359,-1.4848,-1.4949,-1.5242,-1.5825,-1.5832,-1.5832,-1.5832,-1.5832,-1.5832,-1.5832,-1.5832,-1.5832,-1.4958,-1.514,-1.5387,-1.4962,-1.5043,-1.5188,-1.5342,0.0,0.0,0.0,0.0,0.0,0.0,0.0,0.0,0.0,0.0,0.0,0.0,0.0,0.0,0.0,-1.4966,-1.5705,-1.7213,-1.626,-1.5954,-1.6864,-1.6096,-1.534,-1.4853,-1.5118,-1.5107,-1.4751,-1.4579,-1.4546,-1.4659,-1.4413,-1.4033,-1.3492,-1.3437,-1.3436,-1.3264,-1.3264,-1.3264,-1.3372,-1.3696,-1.3804,-1.3804,-1.4126,-1.4341,-1.4341,-1.4341,-1.4341,-1.4341,-1.4341,-1.4341,-1.4341,-1.4341,-1.4341,-1.4341,-1.4341,-1.499,-1.5956,-1.5956,-1.6711,-1.7582,-1.7582,-1.5962,-1.4234,-1.3911,-1.3588,-1.3264,-1.3264,-1.3264,-1.3264,-1.3264,-1.3264,-1.3372,-1.3696,-1.3804,-1.3911,-1.4239,-1.4341,-1.4341,-1.4341,-1.4341,-1.4341,-1.4341,-1.5204,-1.5852,-1.5591,-1.6317,-1.6667,-1.6299,-1.5999,-1.5343,-1.4364,-1.4364,-1.4752,-1.573,-1.5832,-1.5832,-1.5832,-1.5832,-1.5832,-1.5832,-1.6109,-1.6197,-1.6292,-1.6567,-1.6655,-1.5332,-1.5712,-1.6052,-1.602,-1.5605,0.0,-1.5649,-1.5723,0.0,0.0,0.0,0.0,0.0,0.0,0.0,0.0,0.0,0.0,0.0,0.0,0.0,-1.7915,-1.8413,-1.8843,-1.8486,-1.8566,-1.8486,-1.8315,-1.8308,-1.819,-1.8144,-1.8164,-1.8039,-1.7751,-1.7725,-1.7587,-1.7318,-1.7279,-1.5988,-1.3492,-1.3391,-1.328,-1.3264,-1.3264,-1.3264,-1.3372,-1.4663,-1.5204,-1.531,-1.6717,-1.7259,-1.7259,-1.7259,-1.7259,-1.7259,-1.7259,-1.7259,-1.7259,-1.7259,-1.7259,-1.7259,-1.7259,-1.7364,-1.747,-1.747,-1.7477,-1.7582,-1.7582,-1.747,-1.6935,-1.5636,-1.4234,-1.3264,-1.3264,-1.3264,-1.3264,-1.3264,-1.3264,-1.3696,-1.499,-1.5204,-1.563,-1.7041,-1.7259,-1.7259,-1.7259,-1.7259,-1.7259,-1.7259,-1.7364,-1.7357,-1.7071,-1.7128,-1.6887,-1.6319,-1.5999,-1.573,-1.5635,-1.5635,-1.573,-1.5832,-1.5832,-1.5832,-1.5832,-1.5832,-1.5832,-1.5832,-1.6943,-1.7598,-1.7591,-1.868,-1.9214,-1.5526,-1.6673,-1.7711,-1.6713,-1.7142,0.0,0.0,0.0,0.0,0.0,0.0,0.0,0.0,0.0,0.0,0.0,0.0,0.0,0.0,0.0,-2.1211,-2.0672,-2.0962,-2.0891,-1.9895,-1.9871,-1.9381,-1.8237,-1.8384,-1.833,-1.7943,-1.811,-1.8076,-1.7769,-1.7756,-1.7702,-1.7582,-1.7582,-1.7009,-1.5765,-1.5931,-1.5962,-1.5962,-1.5962,-1.5962,-1.5962,-1.6499,-1.6823,-1.681,-1.7173,-1.7422,-1.7582,-1.7582,-1.7582,-1.7582,-1.7582,-1.7582,-1.7582,-1.7582,-1.7582,-1.7582,-1.7582,-1.7582,-1.7582,-1.7582,-1.7582,-1.7582,-1.7582,-1.7582,-1.7477,-1.6929,-1.6393,-1.5962,-1.5962,-1.5962,-1.5962,-1.5962,-1.5962,-1.6174,-1.6611,-1.6823,-1.6935,-1.7477,-1.7582,-1.7582,-1.7582,-1.7582,-1.7582,-1.7582,-1.7582,-1.7468,-1.7181,-1.751,-1.7595,-1.7158,-1.7744,-1.8118,-1.8118,-1.7397,-1.6943,-1.6943,-1.7669,-1.8118,-1.8118,-1.8118,-1.8118,-1.8118,-1.8588,-1.8864,-1.8864,-1.9314,-1.9497,-1.6244,-1.7164,-1.811,0.0,0.0,0.0,0.0,0.0,0.0,0.0,0.0,0.0,0.0,0.0,0.0,0.0,0.0,0.0,0.0,-2.2588,-2.2577,-2.2055,-2.2249,-2.2127,-2.0948,-2.0926,-2.0384,-1.9027,-1.9291,-1.9234,-1.8683,-1.8969,-1.9041,-1.8916,-1.8704,-1.8654,-1.8654,-1.8561,-1.8404,-1.8196,-1.8411,-1.8163,-1.7442,-1.7348,-1.7355,-1.7442,-1.7348,-1.7308,-1.7288,-1.7094,-1.7181,-1.7442,-1.7442,-1.7502,-1.7674,-1.7991,-1.8116,-1.8199,-1.8199,-1.8499,-1.87,-1.7891,-1.7891,-1.8199,-1.7681,-1.7891,-1.8199,-1.8199,-1.8499,-1.8909,-1.8909,-1.8297,-1.7582,-1.7582,-1.7582,-1.7582,-1.7582,-1.7582,-1.7582,-1.7582,-1.7582,-1.7582,-1.7582,-1.7582,-1.7582,-1.7582,-1.7582,-1.7786,-1.8199,-1.8199,-1.8317,-1.8614,-1.8807,-1.8835,-1.8807,-1.9329,-1.9711,-1.9919,-1.9366,-1.8806,-1.8326,-1.9039,-1.9497,-1.9497,-1.9497,-1.9497,-1.9497,-1.9852,-2.0034,-2.0124,-2.0494,-2.0674,-1.7578,-1.7101,0.0,0.0,0.0,0.0,0.0,0.0,0.0,0.0,0.0,0.0,0.0,0.0,0.0,0.0,0.0,0.0,-2.3835,-2.3916,-2.3498,-2.1895,-2.219,-2.2346,-2.1818,-2.1989,-2.1804,-2.1057,-2.1436,-2.1486,-2.1016,-2.1445,-2.1744,-2.1744,-2.1288,-2.0999,-2.0999,-2.0549,-2.0377,-2.0377,-2.0377,-1.9299,-1.7237,-1.684,-1.6968,-1.723,-1.6834,-1.6707,-1.6707,-1.6707,-1.6881,-1.7244,-1.7244,-1.7425,-1.7745,-1.8869,-1.9351,-1.9627,-1.9627,-2.0538,-2.1245,-1.8499,-1.8506,-1.9317,-1.7989,-1.8603,-1.9627,-1.9627,-2.0641,-2.1752,-2.1752,-1.9723,-1.7687,-1.7687,-1.7687,-1.7687,-1.7687,-1.7687,-1.7687,-1.7687,-1.7687,-1.7687,-1.7687,-1.7687,-1.7687,-1.7687,-1.7687,-1.8094,-1.9428,-1.962,-2.012,-2.1541,-2.0991,-2.0807,-2.1155,-2.0533,-2.037,-2.0833,-2.1573,-2.1287,-1.9604,-1.9497,-1.9488,-1.9488,-1.9488,-1.9488,-1.9588,-2.0747,-2.1293,-2.1382,-2.258,-2.3135,-1.8238,-1.9099,0.0,0.0,0.0,0.0,0.0,0.0,0.0,0.0,0.0,0.0,0.0,0.0,0.0,0.0,0.0,0.0,-2.5023,-2.5223,-2.5055,-2.452,-2.4625,-2.4363,-2.3203,-2.3182,-2.2641,-2.1139,-2.1106,-2.1007,-2.0557,-2.0736,-2.0794,-2.0794,-2.0687,-2.054,-2.054,-2.0434,-2.0254,-2.0095,-2.0095,-1.9806,-1.9465,-1.9365,-1.9372,-1.9465,-1.9365,-1.8739,-1.7973,-1.7973,-1.7894,-1.7905,-1.8996,-1.9675,-2.0054,-2.0353,-2.0744,-2.1041,-2.1041,-2.1347,-2.155,-2.0735,-2.0735,-2.1041,-2.0633,-2.0735,-2.1041,-2.1041,-2.1347,-2.1752,-2.1752,-2.1143,-2.0531,-2.0531,-2.0531,-2.0531,-2.0531,-2.0531,-2.0531,-2.0531,-2.0531,-2.0531,-2.0531,-2.0531,-2.0531,-2.0531,-2.0531,-2.0633,-2.1041,-2.0608,-2.05,-2.0891,-2.1346,-2.1666,-2.1781,-2.2583,-2.3224,-2.3345,-2.354,-2.2999,-2.1304,-2.1752,-2.2041,-2.2041,-2.2041,-2.2041,-2.2041,-2.2403,-2.2589,-2.258,-2.295,-2.3135,-1.9385,0.0,0.0,0.0,0.0,0.0,0.0,0.0,0.0,0.0,0.0,0.0,0.0,0.0,0.0,0.0,0.0,-2.4414,-2.5117,-2.5361,-2.54,-2.5234,-2.5361,-2.5093,-2.4026,-2.4007,-2.3437,-2.2256,-2.2267,-2.2187,-2.1808,-2.1931,-2.2011,-2.2011,-2.1861,-2.179,-2.179,-2.1538,-2.1344,-2.1198,-2.1198,-2.1322,-2.1459,-2.0516,-2.0128,-2.0156,-2.0112,-1.9581,-1.8931,-1.8966,-1.9,-1.8933,-1.9797,-2.0385,-2.0777,-2.1227,-2.1599,-2.2021,-2.2021,-2.2316,-2.2602,-2.1519,-2.162,-2.2136,-2.1528,-2.1938,-2.2458,-2.2458,-2.2754,-2.3036,-2.3036,-2.3036,-2.274,-2.1628,-2.1544,-2.161,-2.1461,-2.1544,-2.1752,-2.1752,-2.1752,-2.1752,-2.1752,-2.1752,-2.1752,-2.1752,-2.2156,-2.2458,-2.2458,-2.2565,-2.2522,-2.2363,-2.2767,-2.2917,-2.2917,-2.3736,-2.4316,-2.4658,-2.4512,-2.4098,-2.3261,-2.3352,-2.332,-2.3144,-2.3135,-2.3135,-2.3135,-2.3135,-2.3135,-2.3135,-2.3135,-2.3135,0.0,0.0,0.0,0.0,0.0,0.0,0.0,0.0,0.0,0.0,0.0,0.0,0.0,0.0,0.0,0.0,-2.3703,-2.4116,-2.4539,-2.4943,-2.5041,-2.4647,-2.4952,-2.4938,-2.4453,-2.4414,-2.4238,-2.3828,-2.4141,-2.418,-2.375,-2.4053,-2.4248,-2.4248,-2.3838,-2.3613,-2.3613,-2.3223,-2.3027,-2.3027,-2.3027,-2.3027,-2.294,-2.0828,-1.9946,-2.0145,-1.9812,-1.967,-1.9695,-1.9936,-2.0069,-2.0069,-2.0162,-2.0387,-2.087,-2.1773,-2.2362,-2.2604,-2.2604,-2.3364,-2.4034,-2.1536,-2.1865,-2.2937,-2.1646,-2.2484,-2.3781,-2.3781,-2.4418,-2.501,-2.501,-2.501,-2.4412,-2.1939,-2.1661,-2.1963,-2.1519,-2.1712,-2.2055,-2.2055,-2.2055,-2.2055,-2.2055,-2.2055,-2.2055,-2.2055,-2.3076,-2.389,-2.389,-2.4884,-2.5518,-2.5117,-2.4717,-2.4463,-2.4506,-2.4313,-2.4542,-2.5387,-2.5089,-2.505,-2.5417,-2.4542,-2.3811,-2.3291,-2.3446,-2.3426,-2.3387,-2.3387,-2.3406,-2.3446,-2.3446,-2.3446,0.0,0.0,0.0,0.0,0.0,0.0,0.0,0.0,0.0,0.0,0.0,0.0,0.0,0.0,0.0,-2.503,-2.5011,-2.5228,-2.5692,-2.5846,-2.5867,-2.5774,-2.5846,-2.5503,-2.4516,-2.4414,-2.4238,-2.3828,-2.3877,-2.373,-2.3301,-2.3057,-2.292,-2.292,-2.251,-2.2295,-2.2295,-2.2197,-2.2158,-2.2158,-2.2158,-2.2158,-2.2178,-2.2293,-2.2362,-2.2349,-2.1338,-2.0935,-2.0944,-2.1024,-2.0969,-2.1059,-2.2073,-2.2702,-2.307,-2.3357,-2.3679,-2.3942,-2.3942,-2.4127,-2.4322,-2.3746,-2.3803,-2.4076,-2.3776,-2.3937,-2.421,-2.421,-2.4433,-2.456,-2.456,-2.456,-2.4365,-2.3776,-2.4258,-2.4786,-2.4701,-2.4758,-2.4815,-2.4815,-2.4815,-2.4815,-2.4815,-2.4815,-2.4815,-2.4815,-2.5128,-2.5226,-2.5226,-2.5228,-2.5176,-2.5078,-2.498,-2.5149,-2.5704,-2.6413,-2.7064,-2.7778,-2.8119,-2.8244,-2.7981,-2.66,-2.5471,-2.4939,-2.5862,-2.619,-2.5808,-2.5808,-2.6005,-2.6376,-2.6376,-2.6376,0.0,0.0,0.0,0.0,0.0,0.0,0.0,0.0,0.0,0.0,0.0,0.0,0.0,0.0,-2.5946,-2.5535,-2.5301,-2.5408,-2.6206,-2.6217,-2.6217,-2.6314,-2.6498,-2.6205,-2.5055,-2.5013,-2.474,-2.4293,-2.4251,-2.4148,-2.3909,-2.3762,-2.3627,-2.3627,-2.3408,-2.3283,-2.3283,-2.3283,-2.3283,-2.3283,-2.2808,-2.2339,-2.1904,-2.2549,-2.2832,-2.2755,-2.211,-2.1727,-2.1568,-2.1755,-2.1839,-2.1945,-2.2785,-2.3271,-2.3477,-2.3477,-2.3623,-2.3809,-2.3809,-2.3809,-2.3809,-2.3809,-2.3945,-2.4111,-2.4111,-2.4258,-2.4414,-2.4414,-2.4277,-2.4202,-2.4726,-2.5048,-2.5472,-2.5903,-2.5734,-2.542,-2.542,-2.5586,-2.5742,-2.5742,-2.5742,-2.5742,-2.5742,-2.6197,-2.6572,-2.6572,-2.7115,-2.7484,-2.7484,-2.7264,-2.7117,-2.6907,-2.6875,-2.696,-2.7028,-2.7323,-2.7831,-2.8668,-2.869,-2.8791,-2.9116,-2.8544,-2.7667,-2.6368,-2.6956,-2.706,-2.6483,-2.6801,-2.7049,-2.7307,-2.7543,-2.7644,0.0,0.0,0.0,0.0,0.0,0.0,0.0,0.0,0.0,0.0,0.0,0.0,0.0,0.0,-2.5984,-2.5746,-2.5408,-2.5464,-2.6459,-2.6434,-2.6411,-2.6583,-2.6877,-2.6577,-2.5585,-2.5427,-2.526,-2.4848,-2.4826,-2.4826,-2.4826,-2.4748,-2.4704,-2.4704,-2.4626,-2.457,-2.457,-2.457,-2.457,-2.4581,-2.3713,-2.2995,-2.2331,-2.2609,-2.2651,-2.2402,-2.2562,-2.2438,-2.2142,-2.2655,-2.2844,-2.2784,-2.3222,-2.3421,-2.3377,-2.3471,-2.3567,-2.3724,-2.3724,-2.3724,-2.3724,-2.3724,-2.3974,-2.4275,-2.4275,-2.4526,-2.4716,-2.4716,-2.4546,-2.4442,-2.5385,-2.6009,-2.6571,-2.7511,-2.6621,-2.5518,-2.5668,-2.5999,-2.6174,-2.6174,-2.6234,-2.638,-2.638,-2.721,-2.784,-2.7755,-2.8718,-2.9373,-2.9284,-2.9351,-2.925,-2.8948,-2.8903,-2.879,-2.8544,-2.8202,-2.8425,-2.9355,-2.8992,-2.9129,-2.9885,-3.0402,-2.978,-2.7908,-2.7885,-2.769,-2.7195,-2.769,-2.7977,-2.8149,-2.8574,-2.8856,0.0,0.0,0.0,0.0,0.0,0.0,0.0,0.0,0.0,0.0,0.0,0.0,0.0,-2.7693,-2.7433,-2.6517,-2.6306,-2.6459,-2.7101,-2.6818,-2.6623,-2.7125,-2.6865,-2.612,-2.5016,-2.4915,-2.4893,-2.4837,-2.4826,-2.4826,-2.4826,-2.4513,-2.429,-2.429,-2.3865,-2.3631,-2.3631,-2.3631,-2.3631,-2.3631,-2.3557,-2.3641,-2.3908,-2.3974,-2.3229,-2.2046,-2.2798,-2.3153,-2.3182,-2.4115,-2.4234,-2.3867,-2.4374,-2.4566,-2.466,-2.507,-2.5601,-2.6069,-2.6069,-2.6069,-2.6069,-2.6069,-2.6102,-2.6157,-2.6157,-2.6201,-2.6256,-2.6256,-2.6212,-2.6157,-2.6324,-2.6368,-2.6607,-2.7104,-2.7004,-2.7107,-2.7953,-2.8184,-2.8228,-2.8228,-2.8569,-2.8947,-2.8947,-2.9039,-2.8987,-2.8565,-2.9047,-2.925,-2.8735,-2.9138,-2.9385,-2.9317,-2.9306,-2.9556,-3.0032,-3.0413,-3.0958,-3.1709,-3.2166,-3.224,-3.1808,-3.1891,-3.1357,-3.0208,-3.0183,-3.0146,-3.0072,-3.0146,-3.0654,-3.1559,-3.1633,-3.1658,0.0,0.0,0.0,0.0,0.0,0.0,0.0,0.0,0.0,0.0,0.0,0.0,-2.7143,-2.7444,-2.7501,-2.7041,-2.6711,-2.6809,-2.763,-2.7299,-2.7164,-2.7691,-2.7557,-2.7065,-2.6294,-2.6184,-2.6065,-2.5767,-2.5743,-2.5743,-2.5743,-2.5601,-2.5481,-2.5481,-2.5254,-2.5205,-2.5205,-2.5205,-2.4921,-2.4337,-2.4337,-2.4162,-2.385,-2.385,-2.359,-2.3213,-2.3662,-2.3655,-2.3493,-2.415,-2.4327,-2.4143,-2.4647,-2.501,-2.5278,-2.5547,-2.5954,-2.6483,-2.6483,-2.6483,-2.6483,-2.6483,-2.6483,-2.6483,-2.6483,-2.6483,-2.6483,-2.6483,-2.6483,-2.6648,-2.7197,-2.7662,-2.8023,-2.8845,-2.9284,-2.9535,-2.9726,-2.8844,-2.8243,-2.8522,-2.8757,-2.9082,-2.9362,-2.9954,-3.0232,-2.9723,-3.0366,-3.0874,-3.0647,-3.0814,-3.1077,-3.1476,-3.1512,-3.1604,-3.1908,-3.181,-3.2068,-3.2692,-3.2629,-3.2478,-3.2227,-3.1913,-3.1537,-3.106,-3.1047,-3.0909,-3.062,-3.1223,-3.175,-3.2227,-3.2554,-3.2692,0.0,0.0,0.0,0.0,0.0,0.0,0.0,0.0,0.0,0.0,0.0,0.0,-2.6533,-2.6804,-2.708,-2.708,-2.6728,-2.6804,-2.7758,-2.7419,-2.7281,-2.7833,-2.777,-2.7532,-2.7118,-2.708,-2.6904,-2.6559,-2.6533,-2.6533,-2.6533,-2.6533,-2.6533,-2.6533,-2.6533,-2.6533,-2.6533,-2.6533,-2.6094,-2.537,-2.537,-2.4992,-2.4253,-2.4253,-2.4461,-2.4756,-2.4522,-2.4158,-2.3913,-2.4522,-2.4677,-2.4589,-2.5055,-2.5458,-2.5848,-2.6163,-2.6576,-2.7129,-2.7267,-2.7313,-2.7313,-2.7313,-2.7313,-2.7313,-2.7313,-2.7313,-2.7313,-2.7313,-2.7313,-2.7545,-2.8359,-2.8807,-2.9363,-3.0223,-3.0696,-3.0922,-3.067,-2.9462,-2.854,-2.9017,-2.919,-2.9485,-2.9866,-3.0643,-3.1098,-3.0482,-3.1304,-3.1951,-3.1825,-3.1926,-3.2215,-3.2792,-3.2855,-3.2918,-3.3068,-3.2679,-3.2616,-3.3056,-3.2908,-3.2695,-3.2403,-3.2213,-3.2079,-3.1937,-3.2066,-3.18,-3.1022,-3.1825,-3.2445,-3.2835,-3.3267,-3.3628,0.0,0.0,0.0,0.0,0.0,0.0,0.0,0.0,0.0,0.0,0.0,-2.6533,-2.6533,-2.6546,-2.6571,-2.6571,-2.6546,-2.6666,-2.7243,-2.6854,-2.6703,-2.7256,-2.6866,-2.6596,-2.6502,-2.6571,-2.6559,-2.6533,-2.6533,-2.6533,-2.6533,-2.6533,-2.6533,-2.6533,-2.6533,-2.6533,-2.6533,-2.6533,-2.6452,-2.6383,-2.6383,-2.6383,-2.6314,-2.6314,-2.6327,-2.6352,-2.5336,-2.4957,-2.5004,-2.598,-2.6064,-2.5571,-2.6214,-2.6455,-2.6546,-2.7607,-2.8338,-2.8887,-2.9437,-2.9624,-2.9624,-2.9624,-2.9624,-2.9624,-2.9624,-2.9624,-2.9624,-2.9624,-2.9624,-2.9624,-2.9714,-2.9727,-2.9752,-2.9829,-2.9854,-3.0005,-3.0507,-3.0553,-3.0498,-3.0523,-3.0923,-3.1272,-3.1297,-3.1379,-3.1217,-3.0691,-3.111,-3.126,-3.0758,-3.1135,-3.165,-3.2202,-3.2252,-3.2478,-3.3031,-3.3056,-3.3043,-3.3081,-3.3998,-3.4041,-3.2843,-3.3734,-3.3977,-3.3487,-3.3949,-3.3525,-3.2127,-3.219,-3.304,-3.4541,-3.4568,-3.5129,0.0,0.0,0.0,0.0,0.0,0.0,0.0,0.0,0.0,0.0,0.0,-2.7297,-2.7297,-2.685,-2.6533,-2.6533,-2.6533,-2.6596,-2.6798,-2.6647,-2.6596,-2.6728,-2.6647,-2.6533,-2.6533,-2.6533,-2.6533,-2.6533,-2.6533,-2.6533,-2.6533,-2.6533,-2.6533,-2.6533,-2.6533,-2.6533,-2.6533,-2.6533,-2.6533,-2.6533,-2.6533,-2.6533,-2.6533,-2.6533,-2.6533,-2.6452,-2.6094,-2.5943,-2.6025,-2.6383,-2.6357,-2.6214,-2.6389,-2.6694,-2.7052,-2.7426,-2.7921,-2.8436,-2.8637,-2.8938,-2.9239,-2.9239,-2.949,-2.9792,-2.9792,-2.9792,-2.9792,-2.9792,-2.9792,-2.9792,-2.9792,-3.0279,-3.0833,-3.1476,-3.1623,-3.1676,-3.1816,-3.0944,-3.0193,-3.0545,-3.0771,-3.0997,-3.1336,-3.1386,-3.1223,-3.0696,-3.0771,-3.0821,-3.0633,-3.1276,-3.1966,-3.2536,-3.3146,-3.3634,-3.3847,-3.3873,-3.3873,-3.3873,-3.4254,-3.4032,-3.3192,-3.3526,-3.3652,-3.3505,-3.3638,-3.3943,-3.4246,-3.4166,-3.4525,-3.5031,-3.4665,-3.4835,-2.4274,0.0,0.0,0.0,0.0,0.0,0.0,0.0,0.0,0.0,-2.8356,-2.8117,-2.8117,-2.767,-2.7162,-2.6589,-2.6533,-2.6533,-2.6533,-2.6533,-2.6533,-2.6533,-2.6533,-2.6533,-2.6533,-2.6533,-2.6533,-2.6533,-2.6533,0.0,-2.6533,-2.6533,-2.6533,-2.6533,-2.6533,-2.6533,-2.6533,-2.6533,-2.6533,-2.6533,-2.6533,-2.6533,-2.6533,-2.6533,-2.6533,-2.6533,-2.6533,-2.6533,-2.6533,-2.6533,-2.6533,-2.6533,-2.6533,-2.6747,-2.703,-2.7218,-2.7519,-2.7858,-2.8047,-2.8348,-2.8687,-2.8875,-2.9403,-3.0049,-3.0228,-3.0495,-3.0709,-3.0709,-3.0709,-3.0709,-3.0709,-3.1193,-3.1815,-3.2464,-3.2593,-3.2593,-3.2593,-3.1623,-3.0825,-3.1189,-3.1266,-3.1383,-3.1747,-3.1798,-3.1682,-3.1318,-3.1266,-3.1266,-3.1266,-3.1836,-3.2412,-3.2911,-3.3601,-3.4073,-3.4279,-3.4293,-3.4293,-3.4293,-3.4668,-3.4538,-3.391,-3.4242,-3.447,-3.447,-3.447,-3.4981,-3.6105,-3.5356,-3.5225,-3.5787,-3.5381,-3.5672,0.0,0.0,0.0,0.0,0.0,0.0,0.0,0.0,0.0,0.0,-2.8588,-2.9066,-2.9066,-2.9066,-2.8492,-2.685,-2.6589,-2.6589,-2.6589,-2.6589,-2.6589,-2.6589,-2.6589,-2.6589,-2.6589,-2.6589,-2.6589,-2.6521,-2.6589,-2.6589,-2.6521,-2.6589,-2.6589,-2.6589,-2.6521,-2.6521,-2.6521,-2.6533,-2.6533,-2.6521,-2.6521,-2.6521,-2.6589,-2.6589,-2.6589,-2.6589,-2.6589,-2.6589,-2.6589,-2.6521,-2.6533,-2.6533,-2.6533,-2.6533,-2.6584,-2.7125,-2.7326,-2.7402,-2.7943,-2.8132,-2.8233,-2.8774,-2.9606,-3.0513,-3.1056,-3.1861,-3.2579,-3.2593,-3.2593,-3.2593,-3.2593,-3.2664,-3.2664,-3.2664,-3.2678,-3.2678,-3.2678,-3.2678,-3.2664,-3.2593,-3.2593,-3.2593,-3.2593,-3.2593,-3.2593,-3.2593,-3.2593,-3.2593,-3.2593,-3.2593,-3.2828,-3.3335,-3.3463,-3.3726,-3.4272,-3.4327,-3.4327,-3.4327,-3.5291,-3.5625,-3.4936,-3.5946,-3.6462,-3.6492,-3.6492,-3.6791,-3.7404,-3.5407,-3.526,-3.6821,-3.6835,-3.774,-2.6629,0.0,0.0,0.0,0.0,0.0,0.0,0.0,0.0,0.0,-3.0214,-2.995,-2.995,-2.995,-2.9566,-2.8492,-2.8298,-2.8298,-2.8298,-2.8298,-2.8298,-2.8298,-2.8298,-2.8298,-2.8298,-2.8298,-2.8051,0.0,-2.792,-2.8051,-2.7417,-2.7986,-2.8298,-2.8298,-2.767,-2.7351,-2.7351,-2.6782,-2.6782,-2.7351,-2.7351,-2.767,-2.8298,-2.8298,-2.8298,-2.8298,-2.8298,-2.8298,-2.8247,-2.6973,-2.6533,-2.6533,-2.6533,-2.685,-2.7377,-2.7533,-2.7974,-2.8568,-2.8663,-2.9,-2.9322,-2.9483,-3.0024,-3.0691,-3.1289,-3.1678,-3.1971,-3.2469,-3.2593,-3.2749,-3.3449,-3.3602,-3.3822,-3.4558,-3.4706,-3.4706,-3.4706,-3.4706,-3.4274,-3.289,-3.2593,-3.2593,-3.2593,-3.2593,-3.2593,-3.2593,-3.2593,-3.2593,-3.2593,-3.3171,-3.3659,-3.3829,-3.4452,-3.4976,-3.5151,-3.518,-3.518,-3.518,-3.5465,-3.5526,-3.5348,-3.5627,-3.5998,-3.6477,-3.6492,-3.6791,-3.7404,-3.6821,-3.6755,-3.7242,-3.7701,-3.8577,-2.747,-2.7306,0.0,0.0,0.0,0.0,-2.839,-2.8466,-2.8655,0.0,-3.0776,-3.0777,-3.0777,-3.0777,-3.0644,-3.0133,-3.0011,-2.9827,-2.9129,-2.9002,-2.9002,-2.9002,-2.9002,-2.9002,-2.9002,-2.9002,-2.8812,-2.8298,-2.8684,-2.8812,-2.8233,-2.8748,-2.9002,-2.9002,-2.8492,-2.8247,-2.8247,-2.7802,-2.7802,-2.8247,-2.8247,-2.8492,-2.9002,-2.9002,-2.9002,-2.9002,-2.9002,-2.9002,-2.8939,-2.792,-2.7537,-2.7537,-2.7537,-2.7868,-2.8247,-2.8247,-2.8556,-2.9002,-2.9002,-2.9223,-2.9504,-2.9752,-3.0266,-3.0984,-3.1615,-3.2079,-3.2497,-3.2854,-3.3154,-3.3561,-3.4403,-3.4624,-3.4758,-3.5359,-3.5504,-3.5504,-3.5504,-3.5504,-3.5133,-3.4041,-3.3837,-3.3837,-3.3837,-3.3837,-3.3837,-3.3837,-3.3837,-3.3837,-3.3837,-3.4259,-3.4624,-3.4624,-3.5133,-3.5504,-3.5504,-3.5504,-3.5504,-3.5504,-3.5759,-3.5908,-3.5908,-3.6526,-3.7025,-3.742,-3.7781,-3.8283,-3.8882,-3.7918,-3.7744,-3.8394,-3.9388,-4.0153,-2.7715,-2.7679,0.0,0.0,0.0,0.0,-2.7925,-2.8816,-2.9699,0.0,-3.0717,-3.1482,-3.1482,-3.1482,-3.1482,-3.1482,-3.1482,-3.097,-2.9504,-2.9254,-2.9254,-2.9254,-2.9254,-2.9254,-2.9254,-2.9254,-2.9254,-2.9129,-2.9129,-2.9192,-2.9254,-2.9254,-2.9254,-2.9254,-2.9192,-2.9129,-2.9129,-2.9066,-2.9066,-2.9129,-2.9129,-2.9192,-2.9254,-2.9254,-2.9254,-2.9254,-2.9254,-2.9254,-2.9254,-2.9254,-2.9192,-2.9002,-2.9002,-2.9066,-2.9129,-2.9129,-2.9192,-2.9254,-2.9254,-2.9254,-2.9338,-2.9817,-3.0559,-3.1377,-3.198,-3.2717,-3.3395,-3.3469,-3.3918,-3.4502,-3.5115,-3.528,-3.531,-3.537,-3.5385,-3.5415,-3.5489,-3.5504,-3.5504,-3.5504,-3.5504,-3.5504,-3.5504,-3.5504,-3.5504,-3.5619,-3.5554,-3.5504,-3.5619,-3.5619,-3.5619,-3.5619,-3.5668,-3.5763,-3.5903,-3.5903,-3.5933,-3.6008,-3.6567,-3.6899,-3.6899,-3.8172,-3.8869,-3.8947,-3.9815,-4.0537,-4.1132,-3.8912,-3.8544,-3.9991,-4.1373,-4.2062,0.0,0.0,0.0,0.0,0.0,0.0,-2.9819,-3.0133,-3.0477,0.0,-3.1302,-3.1482,-3.1482,-3.1482,-3.1482,-3.1482,-3.1482,-3.1409,-3.1087,-3.1029,-3.1029,-3.1029,-3.1029,-3.1029,-3.1029,-3.1029,-3.0718,-3.0072,-3.0072,-3.0329,-3.097,-3.1029,-3.1029,-3.1029,-3.0389,-3.0072,-3.0072,-2.938,-2.938,-3.0072,-3.0072,-3.0389,-3.1029,-3.1029,-3.1029,-3.1029,-3.1029,-3.1029,-3.1029,-3.1029,-3.0208,-2.9002,-2.9002,-2.9442,-3.0072,-3.0072,-3.045,-3.1029,-3.1029,-3.1029,-3.1043,-3.1117,-3.1279,-3.1589,-3.2243,-3.2571,-3.2826,-3.335,-3.3589,-3.3724,-3.3858,-3.3888,-3.4023,-3.4547,-3.4681,-3.4831,-3.5385,-3.5504,-3.5504,-3.5504,-3.5504,-3.5504,-3.5504,-3.5504,-3.5733,-3.6275,-3.5894,-3.5733,-3.6337,-3.6384,-3.6384,-3.6384,-3.6995,-3.7575,-3.8188,-3.822,-3.8518,-3.9057,-3.9215,-3.9311,-3.9311,-3.9606,-4.0019,-4.0546,-4.123,-4.1645,-4.1789,-4.0769,-4.0721,-4.1533,-4.1869,-4.2395,0.0,0.0,0.0,-2.9505,0.0,0.0,0.0,-3.0283,-3.0612,-3.0941,-3.13,-3.1482,-3.1482,-3.1482,-3.1482,-3.1482,-3.1482,-3.1482,-3.1482,-3.1482,-3.1482,-3.1482,-3.1482,-3.1482,-3.1482,-3.1482,-3.1351,-3.0896,-3.0896,-3.1087,-3.1467,-3.1482,-3.1482,-3.1482,-3.1087,-3.0896,-3.0896,-3.0464,-3.0464,-3.0896,-3.0896,-3.1087,-3.1482,-3.1482,-3.1482,-3.1482,-3.1482,-3.1482,-3.1482,-3.1482,-3.1029,-3.0269,-3.0269,-3.0524,-3.0896,-3.0896,-3.1161,-3.1482,-3.1482,-3.1482,-3.1482,-3.1482,-3.1482,-3.1541,-3.1928,-3.2018,-3.2153,-3.2826,-3.3006,-3.308,-3.341,-3.3499,-3.3682,-3.4334,-3.479,-3.5248,-3.5952,-3.6368,-3.6662,-3.6662,-3.6662,-3.643,-3.5619,-3.5782,-3.6165,-3.6554,-3.6646,-3.6768,-3.716,-3.7203,-3.7203,-3.7203,-3.7573,-3.795,-3.8302,-3.8697,-3.9049,-3.9445,-4.0135,-4.0521,-4.0521,-4.1241,-4.1978,-4.2789,-4.3108,-4.329,-4.329,-4.2987,-4.2731,-4.2645,-4.3092,-4.3545,0.0,0.0,0.0,0.0,0.0,-2.9968,0.0,0.0,0.0,-3.0702,-3.115,0.0,0.0,0.0,0.0,0.0,0.0,0.0,0.0,-3.1482,0.0,-3.1482,-3.1482,-3.1482,-3.1482,-3.1482,-3.1482,-3.1482,-3.1482,-3.1482,-3.1482,-3.1482,-3.1482,-3.1482,-3.1482,-3.1482,-3.1482,-3.1482,-3.1482,-3.1482,-3.1482,-3.1482,-3.1482,-3.1482,-3.1482,-3.1482,-3.1482,-3.1482,-3.1482,-3.1482,-3.1482,-3.1482,-3.1482,-3.1482,-3.1482,-3.1482,-3.1482,-3.1482,-3.1482,-3.1482,-3.1482,-3.1482,-3.1482,-3.1482,-3.1482,-3.1482,-3.1586,-3.2183,-3.2332,-3.2437,-3.3141,-3.3337,-3.3561,-3.4508,-3.5163,-3.588,-3.6724,-3.7406,-3.7822,-3.7822,-3.7822,-3.7413,-3.6148,-3.6461,-3.6904,-3.7008,-3.7499,-3.7863,-3.7978,-3.8035,-3.8035,-3.8035,-3.8149,-3.8327,-3.8456,-3.9104,-3.9632,-3.9761,-4.0994,-4.1707,-4.1707,-4.2917,-4.3873,-4.4587,-4.4587,-4.4587,-4.4587,-4.4587,-4.4253,-4.3562,-4.4253,-4.4587,0.0,0.0,0.0,0.0,-3.1258,0.0,0.0,0.0,-3.1362,-3.1362,0.0,0.0,0.0,0.0,0.0,0.0,0.0,0.0,-3.1482,-3.1482,-3.1482,-3.1482,-3.1482,-3.1482,-3.1482,-3.1482,-3.1482,-3.1482,-3.1482,-3.1482,-3.1482,-3.1482,-3.1482,-3.1482,-3.1482,-3.1482,-3.1482,-3.1482,-3.1482,-3.1482,-3.1482,-3.1482,-3.1482,-3.1482,-3.1482,-3.1482,-3.1482,-3.1482,-3.1482,-3.1482,-3.1482,-3.1482,-3.1482,-3.1482,-3.1482,-3.1482,-3.1482,-3.1482,-3.1482,-3.1482,-3.1482,-3.1482,-3.1482,-3.1482,-3.1482,-3.1482,-3.1497,-3.1556,-3.1586,-3.176,-3.2542,-3.2709,-3.3168,-3.5133,-3.5648,-3.6047,-3.7364,-3.7758,-3.7822,-3.7822,-3.7822,-3.7748,-3.7589,-3.7589,-3.7921,-3.8509,-3.8133,-3.8035,-3.869,-3.8799,-3.8799,-3.8799,-3.9437,-4.012,-4.074,-4.1499,-4.2206,-4.2879,-4.3721,-4.4192,-4.4192,-4.435,-4.4514,-4.4587,-4.4587,-4.4587,-4.4587,-4.4587,-4.457,-4.444,-4.457,-4.4587,0.0,0.0,0.0,0.0,0.0,0.0,-3.1482,0.0,-3.1482,0.0,0.0,0.0,0.0,0.0,0.0,0.0,-3.1482,0.0,0.0,0.0,-3.1482,0.0,0.0,0.0,-3.1482,-3.1482,-3.1482,-3.1482,-3.1482,-3.1482,-3.1482,-3.1482,-3.1482,-3.1482,-3.1482,-3.1482,-3.1482,-3.1482,-3.1482,-3.1482,-3.1482,-3.1482,-3.1482,-3.1482,-3.1482,-3.1482,-3.1482,-3.1482,-3.1482,-3.1482,-3.1482,-3.1482,-3.1482,-3.1482,-3.1482,-3.1482,-3.1482,-3.1482,-3.1482,-3.1482,-3.1582,-3.2007,-3.212,-3.2216,-3.2625,-3.2718,-3.2718,-3.2718,-3.2718,-3.2772,-3.3093,-3.3198,-3.3482,-3.4732,-3.5717,-3.6604,-3.7642,-3.854,-3.9119,-3.9119,-3.9119,-3.9119,-3.9119,-3.8761,-3.8525,-3.8854,-3.9032,-3.9226,-3.9558,-3.961,-3.961,-3.961,-3.9901,-4.0206,-4.0527,-4.1238,-4.1982,-4.2726,-4.391,-4.4587,-4.4587,-4.4587,-4.4587,-4.4587,-4.4587,-4.4587,-4.4587,-4.4587,-4.4587,-4.4587,-4.4587,-4.4587,-3.1482,0.0,0.0,0.0,0.0,0.0,0.0,0.0,0.0,0.0,0.0,0.0,0.0,0.0,-3.1482,-3.1482,0.0,-3.1482,0.0,-3.1482,0.0,0.0,0.0,0.0,0.0,-3.1482,-3.1482,-3.1482,-3.1482,-3.1482,-3.1482,-3.1482,-3.1482,-3.1482,-3.1482,-3.1482,-3.1482,-3.1482,-3.1482,-3.1482,-3.1482,-3.1482,-3.1482,-3.1482,-3.1482,-3.1482,-3.1482,-3.1482,-3.1482,-3.1482,-3.1482,-3.1482,-3.1482,-3.1482,-3.1482,-3.1482,-3.1482,-3.1524,-3.1739,-3.1894,-3.2145,-3.2492,-3.2734,-3.2933,-3.3443,-3.3582,-3.3582,-3.3582,-3.3582,-3.3633,-3.3836,-3.3887,-3.4086,-3.5,-3.6173,-3.7303,-3.8046,-3.9191,-4.007,-4.007,-4.007,-4.007,-4.007,-3.961,-3.9262,-3.9262,-3.9731,-4.007,-4.007,-4.007,-4.007,-4.007,-4.007,-4.007,-4.007,-4.0781,-4.161,-4.254,-4.3639,-4.435,-4.457,-4.4587,-4.4682,-4.4869,-4.4869,-4.4906,-4.5089,-4.5089,-4.5089,-4.5089,-4.4776,-4.4665,0.0,0.0,0.0,-3.1482,0.0,0.0,0.0,0.0,-3.1482,0.0,0.0,0.0,0.0,-3.1482,-3.1482,-3.1482,-3.1482,0.0,0.0,0.0,0.0,0.0,0.0,0.0,0.0,-3.1482,-3.1482,-3.1482,-3.1482,-3.1482,-3.1482,-3.1482,-3.1482,-3.1482,-3.1482,-3.1482,-3.1482,-3.1482,-3.1482,-3.1482,-3.1482,-3.1482,-3.1482,-3.1482,-3.1482,-3.1482,-3.1482,-3.1482,-3.1482,-3.1482,-3.1482,-3.1482,-3.1482,-3.1482,-3.1482,-3.1482,-3.1482,-3.1582,-3.2327,-3.2986,-3.3443,-3.2788,-3.3039,-3.3582,-3.3582,-3.3582,-3.3582,-3.3582,-3.3582,-3.3735,-3.4382,-3.4576,-3.4918,-3.6397,-3.733,-3.8043,-3.8802,-3.9546,-4.007,-4.007,-4.007,-4.007,-4.007,-4.007,-4.007,-4.007,-4.007,-4.007,-4.007,-4.007,-4.007,-4.007,-4.007,-4.007,-4.007,-4.0781,-4.183,-4.3284,-4.342,-4.3792,-4.4553,-4.4587,-4.4852,-4.5459,-4.5459,-4.5732,-4.6336,-4.6336,-4.6336,-4.6336,-4.5125,-4.4906,0.0,0.0,-3.1482,-3.1482,0.0,0.0,0.0,0.0,0.0,0.0,0.0,0.0,0.0,-3.1482,-3.1482,-3.1482,-3.1482,-3.1482,0.0,0.0,0.0,0.0,0.0,0.0,0.0,0.0,-3.1482,-3.1482,-3.1482,-3.1482,-3.1482,-3.1482,-3.1482,-3.1482,-3.1482,-3.1482,-3.1482,-3.1482,-3.1482,-3.1482,-3.1482,-3.1482,-3.1482,-3.1482,-3.1482,-3.1524,-3.2007,-3.2231,-3.2272,-3.2718,-3.2625,-3.2272,-3.2718,-3.2625,-3.2176,-3.1682,-3.1796,-3.2327,-3.3039,-3.3391,-3.3649,-3.3836,-3.4087,-3.4333,-3.48,-3.4911,-3.4911,-3.4911,-3.4911,-3.4958,-3.5207,-3.5253,-3.5501,-3.654,-3.7347,-3.8108,-3.8836,-3.9563,-4.007,-4.007,-4.007,-4.007,-4.007,-4.007,-4.007,-4.007,-4.007,-4.007,-4.007,-4.007,-4.007,-4.007,-4.007,-4.007,-4.007,-4.0781,-4.1818,-4.3237,-4.3804,-4.4595,-4.5748,-4.5783,-4.5865,-4.6112,-4.6112,-4.6192,-4.6383,-4.6383,-4.6383,-4.6383,-4.5965,-4.5915,-3.1482,-3.1482,0.0,-3.1482,-3.1482,0.0,-3.1482,0.0,-3.1482,0.0,0.0,0.0,0.0,-3.1482,-3.1482,-3.1482,-3.1482,-3.1582,0.0,-3.2272,0.0,0.0,0.0,0.0,0.0,0.0,-3.2048,-3.1539,-3.1936,-3.2145,-3.1894,-3.2104,-3.2256,-3.2256,-3.2256,-3.2256,-3.2256,-3.2256,-3.2256,-3.2256,-3.2256,-3.2256,-3.2256,-3.2256,-3.2256,-3.2256,-3.2734,-3.2949,-3.2986,-3.3443,-3.3339,-3.2986,-3.3443,-3.3339,-3.2895,-3.2407,-3.2718,-3.3339,-3.3531,-3.3887,-3.435,-3.4528,-3.4783,-3.5052,-3.547,-3.5622,-3.5723,-3.6282,-3.6045,-3.574,-3.6299,-3.6028,-3.5808,-3.6586,-3.7347,-3.8108,-3.8836,-3.9563,-4.007,-4.007,-4.007,-4.007,-4.007,-4.007,-4.007,-4.007,-4.007,-4.007,-4.007,-4.007,-4.007,-4.007,-4.007,-4.0323,-4.0827,-4.1452,-4.2483,-4.3925,-4.4449,-4.5256,-4.6348,-4.6383,-4.6524,-4.6756,-4.6756,-4.6847,-4.7088,-4.7088,-4.7088,-4.7088,-4.7088,-4.7088]}]]